GFSGBSN_prec_precacc_075.txt.gz
Total_Precipitation_Accumulation
0.16 0.16 0.15 0.15 0.14 0.12 0.18 0.25 0.20 0.18 0.21 0.31 0.39 0.38 0.38 0.32 0.33 0.38 0.28 0.23 0.21 0.23 0.18 0.23 0.33 0.43 0.67 0.59 0.19 0.18 0.15 0.35 0.73 1.03 0.53 0.23 0.29 0.18 0.09 0.07 0.52 0.47 0.24 0.21 0.31 0.14 0.04
0.17 0.18 0.15 0.16 0.14 0.14 0.24 0.26 0.23 0.21 0.26 0.37 0.41 0.39 0.39 0.35 0.44 0.33 0.19 0.16 0.16 0.18 0.20 0.29 0.42 0.61 0.48 0.31 0.04 0.11 0.18 0.36 0.61 0.93 0.65 0.32 0.28 0.15 0.14 0.07 0.31 0.46 0.38 0.40 0.70 0.28 0.09
0.15 0.17 0.18 0.17 0.16 0.20 0.26 0.27 0.26 0.25 0.34 0.39 0.48 0.39 0.30 0.37 0.48 0.32 0.20 0.18 0.16 0.20 0.18 0.33 0.51 0.58 0.35 0.10 0.06 0.27 0.25 0.50 0.67 0.82 0.82 0.55 0.25 0.24 0.24 0.11 0.15 0.36 0.60 0.75 0.84 0.63 0.18
0.18 0.21 0.19 0.19 0.20 0.21 0.24 0.24 0.23 0.27 0.38 0.41 0.51 0.41 0.36 0.46 0.34 0.27 0.17 0.22 0.21 0.21 0.29 0.39 0.67 0.67 0.27 0.03 0.04 0.27 0.24 0.50 0.77 1.08 1.08 0.94 0.33 0.24 0.17 0.12 0.21 0.31 0.78 0.71 0.88 0.76 0.51
0.25 0.22 0.21 0.16 0.16 0.22 0.23 0.22 0.24 0.27 0.36 0.47 0.49 0.41 0.39 0.31 0.28 0.30 0.24 0.32 0.26 0.31 0.48 0.59 0.61 0.50 0.21 0.15 0.12 0.46 0.24 0.52 1.00 1.41 1.76 1.47 0.73 0.34 0.20 0.18 0.20 0.28 0.41 0.44 0.51 0.51 0.53
0.22 0.16 0.11 0.14 0.19 0.25 0.25 0.26 0.26 0.29 0.38 0.47 0.47 0.41 0.35 0.28 0.39 0.50 0.49 0.45 0.47 0.40 0.70 0.98 0.77 0.66 0.16 0.44 0.49 0.61 0.20 0.68 1.34 1.84 2.54 2.52 1.30 0.52 0.24 0.13 0.08 0.22 0.11 0.11 0.30 0.28 0.28
0.12 0.14 0.14 0.17 0.24 0.29 0.31 0.31 0.29 0.31 0.40 0.46 0.45 0.38 0.42 0.52 0.53 0.78 0.79 0.88 0.97 0.92 0.80 0.81 0.53 0.33 0.27 0.70 1.04 0.59 0.31 1.12 1.85 2.60 2.45 2.01 1.06 0.36 0.11 0.02 0.00 0.03 0.05 0.02 0.05 0.13 0.12
0.12 0.12 0.16 0.23 0.38 0.40 0.33 0.31 0.32 0.33 0.38 0.42 0.43 0.45 0.51 0.53 0.63 1.06 0.98 0.91 0.52 0.65 0.58 0.39 0.28 0.21 0.11 0.34 0.81 0.64 0.70 1.76 2.26 2.53 1.71 1.14 0.52 0.15 0.15 0.05 0.03 0.02 0.09 0.11 0.08 0.09 0.10
0.13 0.14 0.25 0.36 0.40 0.41 0.40 0.37 0.38 0.44 0.48 0.47 0.47 0.46 0.50 0.56 0.80 1.14 0.74 0.48 0.34 0.58 0.66 0.51 0.60 0.35 0.35 0.54 0.59 0.93 1.10 2.09 1.92 1.85 1.09 0.67 0.33 0.15 0.23 0.15 0.03 0.01 0.01 0.03 0.06 0.13 0.11
0.12 0.14 0.21 0.25 0.36 0.43 0.45 0.44 0.55 0.64 0.60 0.66 0.55 0.53 0.59 0.90 1.49 0.93 0.58 0.32 0.65 0.82 0.78 0.88 0.99 0.82 0.57 0.77 0.98 0.97 1.19 1.70 1.93 1.88 1.21 0.90 0.24 0.23 0.23 0.18 0.02 0.01 0.00 0.00 0.02 0.15 0.07
0.16 0.21 0.26 0.32 0.34 0.40 0.47 0.51 0.63 0.73 0.71 0.60 0.65 0.66 0.79 1.30 1.45 0.79 0.51 0.46 1.03 1.20 1.21 1.21 1.20 0.67 0.72 0.83 0.66 0.80 1.12 1.20 1.13 1.33 1.11 0.79 0.34 0.33 0.31 0.16 0.06 0.02 0.00 0.01 0.05 0.31 0.27
0.20 0.30 0.37 0.44 0.49 0.53 0.52 0.52 0.56 0.56 0.56 0.67 0.88 0.95 1.23 1.04 0.94 0.59 0.57 0.83 1.40 1.43 1.42 1.26 1.08 0.95 0.76 0.43 0.23 0.63 1.13 0.98 0.85 0.98 0.72 0.40 0.33 0.49 0.40 0.22 0.09 0.03 0.03 0.04 0.16 0.30 0.57
0.26 0.36 0.42 0.44 0.46 0.52 0.65 0.66 0.56 0.56 0.66 0.83 0.97 1.16 1.21 1.05 0.81 0.67 1.00 1.28 1.34 1.04 0.84 0.77 0.77 0.34 0.18 0.21 0.24 0.73 1.01 0.92 0.97 1.52 1.28 0.88 0.45 0.36 0.34 0.40 0.20 0.07 0.13 0.28 0.37 0.64 0.36
0.29 0.38 0.44 0.52 0.57 0.67 0.76 0.74 0.72 0.73 0.74 0.69 1.12 1.05 1.07 0.88 0.77 1.16 1.41 1.08 0.75 0.70 0.60 0.41 0.13 0.09 0.10 0.10 0.24 0.47 0.77 0.55 0.31 0.42 0.60 0.86 0.71 0.49 0.32 0.29 0.25 0.08 0.07 0.24 0.18 0.18 0.15
0.36 0.45 0.55 0.60 0.74 0.73 0.76 0.79 0.62 0.62 0.78 0.99 1.26 1.31 1.31 1.13 1.00 1.20 1.31 0.84 0.96 0.65 0.42 0.18 0.12 0.17 0.14 0.07 0.14 0.36 0.60 0.25 0.08 0.12 0.30 0.33 0.25 0.25 0.30 0.11 0.32 0.31 0.24 0.14 0.43 0.17 0.26
0.43 0.53 0.61 0.62 0.67 0.79 0.84 0.85 0.78 0.91 1.09 1.11 1.37 1.75 1.26 0.92 1.08 1.35 0.99 0.73 0.61 0.15 0.02 0.03 0.16 0.10 0.05 0.04 0.07 0.09 0.18 0.04 0.01 0.01 0.02 0.04 0.23 0.21 0.28 0.27 0.28 0.33 0.12 0.39 1.01 0.62 0.17
0.45 0.55 0.62 0.69 0.77 0.95 1.08 1.10 0.98 1.06 1.13 1.79 1.25 1.87 1.24 0.91 1.41 1.45 0.99 0.79 0.31 0.03 0.02 0.06 0.05 0.05 0.01 0.01 0.01 0.01 0.02 0.03 0.00 0.00 0.01 0.01 0.10 0.20 0.43 0.33 0.22 0.34 0.44 0.30 0.50 0.45 0.32
0.52 0.64 0.72 0.80 0.92 1.06 1.30 1.25 1.11 1.24 1.50 2.25 1.95 1.47 1.15 1.12 1.69 1.07 0.61 0.61 0.29 0.05 0.04 0.10 0.10 0.04 0.01 0.01 0.01 0.01 0.01 0.02 0.00 0.00 0.01 0.01 0.17 0.25 0.20 0.08 0.08 0.16 0.22 0.18 0.51 0.46 0.32
0.52 0.60 0.72 0.78 0.97 1.02 1.12 1.05 0.98 1.24 1.73 1.99 1.80 1.44 1.53 0.78 0.64 0.48 0.54 0.27 0.16 0.08 0.08 0.12 0.08 0.04 0.01 0.01 0.01 0.00 0.00 0.00 0.00 0.00 0.00 0.05 0.30 0.40 0.36 0.35 0.35 0.32 0.25 0.36 0.39 0.79 0.69
0.63 0.67 0.79 0.85 1.06 1.10 1.05 0.80 0.85 1.24 1.45 1.86 1.56 1.88 2.20 1.47 0.33 0.18 0.22 0.12 0.07 0.05 0.05 0.11 0.13 0.08 0.04 0.02 0.00 0.00 0.00 0.00 0.00 0.00 0.02 0.20 0.40 0.59 0.59 0.52 0.71 0.51 0.28 0.50 0.96 1.19 0.38
0.58 0.71 0.86 0.96 1.04 1.17 1.12 0.82 1.04 1.42 1.46 1.50 1.15 0.78 0.57 0.75 0.30 0.09 0.15 0.10 0.05 0.08 0.09 0.14 0.11 0.09 0.06 0.04 0.01 0.00 0.00 0.00 0.01 0.02 0.13 0.45 0.81 0.91 0.42 0.32 0.62 0.60 0.30 0.42 0.97 0.54 0.45
0.61 0.65 0.78 0.77 0.81 0.82 0.86 0.80 0.92 1.49 1.69 1.18 0.90 0.43 0.06 0.04 0.03 0.01 0.03 0.05 0.04 0.10 0.14 0.13 0.07 0.04 0.05 0.05 0.02 0.01 0.00 0.00 0.01 0.02 0.12 0.33 0.74 0.74 0.46 0.33 0.34 0.33 0.13 0.24 0.54 0.38 0.25
0.60 0.63 0.72 0.76 0.74 0.68 0.65 0.74 0.88 1.48 1.85 1.29 0.74 0.39 0.08 0.04 0.03 0.02 0.01 0.00 0.01 0.10 0.08 0.04 0.05 0.08 0.06 0.04 0.03 0.02 0.01 0.02 0.01 0.02 0.11 0.34 0.50 0.79 0.67 0.40 0.38 0.32 0.08 0.17 0.38 0.32 0.16
0.85 1.00 1.22 1.42 1.39 1.20 0.99 0.87 0.90 1.25 1.53 1.27 0.74 0.47 0.18 0.09 0.03 0.01 0.01 0.01 0.01 0.06 0.09 0.06 0.03 0.07 0.05 0.04 0.05 0.06 0.02 0.02 0.02 0.01 0.03 0.18 0.39 0.74 0.95 0.76 0.75 0.44 0.13 0.16 0.17 0.16 0.10
0.88 0.93 1.04 1.09 1.08 1.00 1.05 1.06 0.84 0.73 0.69 0.76 0.57 0.41 0.20 0.08 0.03 0.03 0.03 0.02 0.03 0.05 0.09 0.13 0.08 0.02 0.05 0.09 0.18 0.21 0.21 0.07 0.00 0.01 0.01 0.05 0.21 0.40 0.44 0.35 0.17 0.11 0.13 0.11 0.08 0.10 0.03
0.60 0.63 0.60 0.59 0.63 0.59 0.58 0.63 0.62 0.56 0.52 0.65 0.67 0.63 0.21 0.08 0.04 0.02 0.03 0.02 0.07 0.13 0.13 0.11 0.11 0.09 0.13 0.25 0.39 0.26 0.12 0.05 0.02 0.01 0.00 0.01 0.06 0.25 0.19 0.19 0.08 0.03 0.02 0.02 0.03 0.03 0.00
0.54 0.50 0.44 0.47 0.52 0.52 0.46 0.39 0.52 0.41 0.40 0.53 0.63 0.50 0.19 0.07 0.01 0.01 0.02 0.01 0.04 0.13 0.19 0.20 0.17 0.23 0.23 0.38 0.39 0.18 0.04 0.00 0.00 0.01 0.03 0.07 0.11 0.16 0.15 0.15 0.01 0.00 0.00 0.01 0.08 0.07 0.00
1.08 0.90 0.90 0.83 0.77 0.65 0.52 0.37 0.46 0.36 0.38 0.44 0.41 0.41 0.24 0.06 0.01 0.01 0.00 0.01 0.06 0.12 0.22 0.25 0.34 0.35 0.43 0.42 0.34 0.15 0.03 0.01 0.00 0.00 0.00 0.03 0.06 0.09 0.09 0.12 0.01 0.00 0.00 0.03 0.02 0.00 0.01
1.08 1.13 1.31 1.33 1.19 0.92 0.57 0.36 0.46 0.41 0.35 0.39 0.31 0.31 0.22 0.08 0.02 0.00 0.00 0.00 0.03 0.09 0.22 0.24 0.36 0.29 0.32 0.42 0.21 0.12 0.04 0.01 0.00 0.01 0.00 0.00 0.00 0.01 0.00 0.00 0.00 0.00 0.00 0.00 0.00 0.00 0.00

GFSGBSN_prec_precacc_078.txt.gz
Total_Precipitation_Accumulation
0.19 0.19 0.17 0.17 0.17 0.16 0.22 0.28 0.20 0.18 0.21 0.31 0.39 0.38 0.38 0.33 0.33 0.39 0.29 0.24 0.22 0.24 0.18 0.23 0.34 0.43 0.67 0.59 0.19 0.18 0.15 0.35 0.74 1.04 0.54 0.42 0.38 0.29 0.19 0.10 0.54 0.71 0.35 0.26 0.37 0.17 0.08
0.20 0.21 0.18 0.19 0.19 0.19 0.29 0.32 0.25 0.21 0.26 0.37 0.41 0.39 0.39 0.36 0.44 0.34 0.19 0.16 0.17 0.19 0.20 0.30 0.43 0.61 0.48 0.31 0.04 0.11 0.18 0.36 0.61 0.93 0.65 0.40 0.43 0.27 0.24 0.11 0.34 0.58 0.46 0.44 0.83 0.34 0.15
0.18 0.20 0.21 0.21 0.22 0.26 0.33 0.32 0.30 0.25 0.34 0.39 0.48 0.39 0.30 0.37 0.48 0.33 0.21 0.18 0.17 0.20 0.18 0.34 0.53 0.59 0.35 0.10 0.06 0.27 0.25 0.50 0.67 0.82 0.83 0.56 0.30 0.32 0.34 0.16 0.19 0.47 0.66 0.77 1.06 0.87 0.22
0.19 0.23 0.22 0.23 0.25 0.26 0.27 0.28 0.31 0.30 0.38 0.41 0.51 0.41 0.36 0.46 0.34 0.27 0.17 0.22 0.21 0.21 0.29 0.39 0.67 0.67 0.27 0.03 0.04 0.27 0.24 0.50 0.77 1.08 1.08 0.94 0.34 0.29 0.33 0.19 0.28 0.41 0.86 0.79 1.09 1.23 0.61
0.26 0.24 0.23 0.18 0.19 0.26 0.28 0.30 0.30 0.30 0.39 0.47 0.49 0.41 0.39 0.31 0.28 0.30 0.24 0.32 0.26 0.31 0.48 0.59 0.61 0.50 0.21 0.15 0.14 0.47 0.24 0.53 1.01 1.41 1.76 1.47 0.73 0.36 0.36 0.31 0.24 0.31 0.44 0.52 0.65 0.90 0.90
0.22 0.18 0.12 0.15 0.21 0.28 0.31 0.35 0.33 0.36 0.44 0.48 0.47 0.41 0.35 0.29 0.39 0.50 0.49 0.45 0.47 0.40 0.70 0.98 0.77 0.67 0.17 0.48 0.50 0.62 0.20 0.68 1.36 1.86 2.55 2.53 1.30 0.55 0.45 0.36 0.12 0.22 0.11 0.12 0.44 0.55 0.77
0.12 0.14 0.15 0.17 0.25 0.34 0.39 0.40 0.40 0.39 0.47 0.49 0.46 0.38 0.42 0.52 0.53 0.78 0.79 0.88 0.97 0.92 0.80 0.81 0.53 0.34 0.29 0.70 1.04 0.59 0.31 1.13 1.86 2.62 2.46 2.02 1.07 0.38 0.22 0.09 0.02 0.03 0.05 0.02 0.13 0.31 0.46
0.12 0.12 0.17 0.24 0.38 0.42 0.39 0.39 0.42 0.47 0.49 0.47 0.44 0.45 0.51 0.53 0.63 1.06 0.98 0.91 0.52 0.65 0.58 0.39 0.28 0.21 0.11 0.34 0.81 0.64 0.71 1.80 2.30 2.55 1.71 1.14 0.54 0.17 0.24 0.13 0.06 0.04 0.11 0.13 0.13 0.18 0.31
0.13 0.15 0.25 0.37 0.41 0.41 0.45 0.45 0.48 0.59 0.58 0.52 0.49 0.46 0.50 0.56 0.80 1.14 0.74 0.48 0.34 0.58 0.66 0.51 0.60 0.35 0.35 0.54 0.59 0.94 1.19 2.23 1.98 1.85 1.09 0.67 0.42 0.19 0.36 0.32 0.06 0.01 0.02 0.06 0.12 0.17 0.17
0.12 0.15 0.22 0.26 0.37 0.44 0.47 0.52 0.68 0.81 0.75 0.75 0.58 0.53 0.59 0.90 1.49 0.93 0.58 0.32 0.65 0.82 0.78 0.88 0.99 0.82 0.57 0.77 0.98 0.98 1.25 1.78 1.97 1.89 1.22 0.93 0.40 0.27 0.26 0.26 0.03 0.01 0.01 0.02 0.08 0.29 0.12
0.16 0.22 0.27 0.33 0.35 0.41 0.49 0.59 0.75 0.87 0.81 0.68 0.69 0.66 0.79 1.30 1.45 0.79 0.51 0.46 1.03 1.20 1.21 1.21 1.20 0.67 0.72 0.83 0.66 0.80 1.15 1.28 1.17 1.34 1.14 0.93 0.45 0.34 0.35 0.21 0.07 0.02 0.00 0.02 0.06 0.36 0.28
0.21 0.31 0.38 0.45 0.50 0.54 0.53 0.56 0.66 0.67 0.66 0.77 0.92 0.95 1.23 1.04 0.94 0.59 0.57 0.83 1.40 1.43 1.42 1.26 1.08 0.95 0.76 0.43 0.23 0.63 1.13 0.98 0.85 1.02 0.85 0.46 0.34 0.49 0.41 0.22 0.09 0.03 0.04 0.09 0.18 0.30 0.58
0.28 0.39 0.44 0.46 0.47 0.52 0.66 0.71 0.68 0.70 0.81 0.92 0.99 1.16 1.21 1.05 0.81 0.67 1.00 1.28 1.34 1.04 0.84 0.77 0.77 0.34 0.18 0.21 0.24 0.73 1.01 0.92 0.97 1.56 1.38 0.90 0.45 0.36 0.34 0.40 0.20 0.08 0.15 0.39 0.42 0.65 0.36
0.32 0.40 0.47 0.53 0.58 0.70 0.78 0.79 0.84 0.91 0.91 0.78 1.15 1.05 1.07 0.88 0.77 1.16 1.41 1.08 0.75 0.70 0.60 0.41 0.13 0.09 0.10 0.10 0.24 0.47 0.77 0.55 0.31 0.42 0.61 0.87 0.73 0.49 0.32 0.29 0.26 0.09 0.08 0.24 0.18 0.18 0.15
0.38 0.47 0.56 0.61 0.79 0.80 0.80 0.85 0.77 0.83 0.94 1.09 1.31 1.32 1.31 1.13 1.00 1.20 1.31 0.84 0.96 0.65 0.42 0.18 0.13 0.17 0.14 0.07 0.14 0.36 0.60 0.25 0.08 0.12 0.30 0.33 0.25 0.25 0.30 0.11 0.32 0.31 0.24 0.14 0.43 0.17 0.26
0.43 0.54 0.61 0.64 0.72 0.85 0.88 0.92 0.96 1.11 1.22 1.20 1.42 1.77 1.27 0.92 1.08 1.35 0.99 0.73 0.61 0.15 0.02 0.03 0.16 0.10 0.05 0.04 0.07 0.09 0.18 0.04 0.01 0.01 0.02 0.04 0.23 0.21 0.28 0.27 0.28 0.33 0.12 0.39 1.01 0.62 0.17
0.46 0.56 0.63 0.70 0.78 0.96 1.11 1.27 1.58 1.66 1.37 1.92 1.34 1.91 1.26 0.91 1.41 1.45 0.99 0.79 0.31 0.03 0.02 0.06 0.05 0.05 0.01 0.01 0.01 0.01 0.02 0.03 0.00 0.00 0.01 0.01 0.10 0.20 0.43 0.33 0.22 0.34 0.44 0.30 0.50 0.45 0.32
0.52 0.65 0.72 0.81 0.93 1.06 1.33 1.37 1.47 1.81 1.88 2.50 2.08 1.53 1.18 1.12 1.69 1.07 0.61 0.61 0.29 0.05 0.04 0.10 0.10 0.04 0.01 0.01 0.01 0.01 0.01 0.02 0.00 0.00 0.01 0.01 0.17 0.25 0.20 0.08 0.08 0.16 0.22 0.18 0.51 0.46 0.32
0.52 0.60 0.72 0.79 0.97 1.03 1.15 1.07 1.08 1.56 1.94 2.15 1.94 1.54 1.56 0.78 0.64 0.48 0.54 0.27 0.16 0.08 0.08 0.12 0.08 0.04 0.01 0.01 0.01 0.01 0.00 0.00 0.00 0.00 0.00 0.05 0.30 0.41 0.37 0.35 0.35 0.32 0.25 0.36 0.39 0.79 0.69
0.63 0.67 0.79 0.86 1.07 1.12 1.14 0.97 0.94 1.38 1.60 1.99 1.69 1.96 2.24 1.48 0.33 0.18 0.22 0.12 0.07 0.05 0.05 0.11 0.13 0.08 0.04 0.02 0.00 0.00 0.00 0.00 0.00 0.00 0.02 0.20 0.40 0.59 0.60 0.52 0.71 0.51 0.28 0.50 0.96 1.19 0.38
0.60 0.72 0.87 0.98 1.06 1.22 1.26 1.35 1.56 1.77 1.63 1.66 1.24 0.81 0.58 0.76 0.30 0.09 0.15 0.10 0.05 0.08 0.09 0.14 0.11 0.09 0.06 0.04 0.01 0.00 0.00 0.01 0.01 0.02 0.13 0.45 0.81 0.91 0.42 0.32 0.62 0.60 0.30 0.42 0.97 0.54 0.45
0.63 0.66 0.79 0.78 0.84 0.90 0.99 1.08 1.41 1.97 1.95 1.41 1.01 0.45 0.06 0.04 0.03 0.01 0.03 0.05 0.04 0.10 0.14 0.13 0.07 0.04 0.05 0.05 0.02 0.01 0.00 0.00 0.01 0.02 0.12 0.33 0.74 0.74 0.46 0.33 0.34 0.33 0.13 0.24 0.54 0.38 0.25
0.62 0.65 0.73 0.78 0.80 0.87 0.88 0.91 1.13 1.77 2.12 1.52 0.85 0.41 0.08 0.04 0.03 0.02 0.01 0.00 0.01 0.10 0.08 0.04 0.05 0.08 0.06 0.04 0.03 0.02 0.01 0.02 0.01 0.02 0.11 0.34 0.50 0.79 0.67 0.40 0.38 0.32 0.08 0.17 0.38 0.32 0.16
0.87 1.02 1.24 1.45 1.52 1.58 1.74 1.58 1.26 1.42 1.78 1.49 0.82 0.47 0.18 0.09 0.03 0.01 0.01 0.01 0.01 0.06 0.09 0.06 0.03 0.07 0.05 0.04 0.05 0.06 0.02 0.02 0.02 0.01 0.03 0.18 0.39 0.74 0.95 0.76 0.75 0.44 0.13 0.16 0.17 0.16 0.10
0.90 0.95 1.07 1.13 1.19 1.23 1.34 1.57 1.55 1.10 0.98 0.89 0.58 0.41 0.20 0.08 0.03 0.03 0.03 0.02 0.03 0.05 0.09 0.13 0.08 0.02 0.05 0.09 0.18 0.21 0.21 0.07 0.00 0.01 0.01 0.05 0.21 0.41 0.44 0.35 0.17 0.11 0.13 0.11 0.08 0.10 0.03
0.63 0.67 0.62 0.61 0.67 0.70 0.64 0.69 0.88 0.81 0.69 0.69 0.67 0.63 0.21 0.08 0.04 0.02 0.03 0.02 0.07 0.13 0.13 0.11 0.11 0.09 0.13 0.25 0.39 0.26 0.12 0.05 0.02 0.01 0.00 0.01 0.06 0.25 0.19 0.19 0.08 0.03 0.02 0.02 0.03 0.03 0.00
0.57 0.53 0.46 0.50 0.61 0.66 0.57 0.43 0.59 0.50 0.49 0.54 0.63 0.50 0.19 0.07 0.01 0.01 0.02 0.01 0.04 0.13 0.19 0.20 0.17 0.23 0.23 0.38 0.39 0.18 0.04 0.00 0.00 0.01 0.03 0.07 0.11 0.16 0.15 0.15 0.01 0.00 0.00 0.01 0.08 0.07 0.00
1.10 0.91 0.91 0.89 1.00 0.98 0.79 0.56 0.63 0.47 0.44 0.44 0.41 0.41 0.24 0.06 0.01 0.01 0.00 0.01 0.06 0.12 0.22 0.25 0.34 0.35 0.43 0.42 0.34 0.15 0.03 0.01 0.00 0.00 0.00 0.03 0.06 0.09 0.09 0.12 0.01 0.00 0.00 0.03 0.02 0.00 0.01
1.10 1.14 1.32 1.41 1.37 1.37 1.08 0.68 0.70 0.53 0.40 0.39 0.31 0.31 0.22 0.08 0.02 0.00 0.00 0.00 0.03 0.09 0.22 0.24 0.36 0.29 0.32 0.42 0.21 0.12 0.04 0.01 0.00 0.01 0.00 0.00 0.00 0.01 0.00 0.00 0.00 0.00 0.00 0.00 0.00 0.00 0.00

GFSGBSN_prec_precacc_081.txt.gz
Total_Precipitation_Accumulation
0.19 0.20 0.18 0.19 0.21 0.20 0.26 0.35 0.31 0.26 0.25 0.33 0.39 0.38 0.38 0.33 0.34 0.39 0.29 0.24 0.23 0.24 0.20 0.24 0.34 0.44 0.67 0.59 0.19 0.18 0.15 0.35 0.74 1.04 0.55 0.44 0.50 0.38 0.32 0.13 0.58 0.73 0.43 0.39 0.54 0.23 0.10
0.20 0.21 0.18 0.20 0.21 0.22 0.32 0.39 0.32 0.27 0.35 0.43 0.41 0.39 0.39 0.36 0.44 0.34 0.20 0.16 0.17 0.19 0.21 0.31 0.43 0.62 0.48 0.31 0.04 0.11 0.18 0.36 0.61 0.93 0.66 0.47 0.62 0.37 0.33 0.19 0.37 0.59 0.62 0.55 0.98 0.44 0.22
0.18 0.20 0.21 0.21 0.22 0.27 0.34 0.34 0.33 0.37 0.47 0.46 0.49 0.40 0.30 0.37 0.48 0.33 0.21 0.19 0.17 0.20 0.19 0.34 0.53 0.60 0.35 0.10 0.06 0.27 0.25 0.50 0.67 0.82 0.83 0.61 0.54 0.40 0.47 0.23 0.24 0.52 0.80 1.05 1.19 1.00 0.29
0.19 0.23 0.22 0.23 0.25 0.26 0.27 0.29 0.35 0.41 0.50 0.50 0.60 0.45 0.37 0.46 0.34 0.27 0.17 0.22 0.21 0.21 0.30 0.39 0.68 0.68 0.27 0.03 0.04 0.27 0.24 0.50 0.77 1.08 1.08 0.94 0.47 0.37 0.47 0.26 0.35 0.49 1.14 1.06 1.32 1.41 0.73
0.26 0.24 0.23 0.18 0.19 0.26 0.28 0.32 0.37 0.40 0.51 0.65 0.60 0.46 0.42 0.32 0.28 0.30 0.24 0.32 0.26 0.31 0.48 0.59 0.61 0.50 0.21 0.16 0.14 0.47 0.24 0.53 1.01 1.41 1.76 1.47 0.75 0.47 0.53 0.38 0.29 0.36 0.78 0.76 0.73 1.04 1.18
0.23 0.18 0.13 0.15 0.21 0.28 0.31 0.36 0.42 0.45 0.56 0.61 0.58 0.49 0.41 0.30 0.39 0.50 0.49 0.45 0.47 0.40 0.70 0.98 0.77 0.67 0.17 0.49 0.51 0.62 0.20 0.68 1.37 1.87 2.56 2.54 1.32 0.61 0.48 0.41 0.16 0.24 0.30 0.35 0.45 0.67 1.10
0.12 0.14 0.15 0.18 0.26 0.34 0.39 0.40 0.41 0.45 0.56 0.61 0.59 0.51 0.48 0.52 0.53 0.78 0.79 0.88 0.97 0.92 0.80 0.81 0.53 0.34 0.29 0.70 1.04 0.59 0.31 1.13 1.87 2.63 2.47 2.02 1.08 0.41 0.26 0.24 0.05 0.04 0.07 0.11 0.16 0.40 0.69
0.12 0.12 0.17 0.25 0.39 0.43 0.39 0.39 0.43 0.51 0.59 0.59 0.54 0.55 0.56 0.55 0.63 1.06 0.98 0.91 0.52 0.65 0.58 0.39 0.28 0.21 0.11 0.34 0.81 0.64 0.72 1.82 2.32 2.56 1.71 1.15 0.54 0.17 0.25 0.23 0.13 0.05 0.11 0.15 0.18 0.24 0.42
0.13 0.15 0.26 0.38 0.42 0.43 0.46 0.45 0.48 0.60 0.65 0.63 0.61 0.59 0.59 0.60 0.80 1.14 0.74 0.48 0.34 0.58 0.66 0.51 0.60 0.35 0.35 0.54 0.59 0.98 1.25 2.30 2.01 1.86 1.09 0.67 0.42 0.19 0.37 0.37 0.15 0.03 0.02 0.06 0.14 0.24 0.24
0.12 0.15 0.22 0.26 0.38 0.46 0.48 0.52 0.68 0.82 0.80 0.86 0.72 0.67 0.66 0.93 1.49 0.93 0.58 0.32 0.65 0.82 0.78 0.88 0.99 0.82 0.57 0.77 1.00 1.03 1.27 1.81 1.98 1.90 1.23 0.93 0.45 0.28 0.42 0.37 0.09 0.02 0.01 0.02 0.12 0.37 0.17
0.16 0.22 0.28 0.33 0.35 0.42 0.50 0.59 0.76 0.87 0.83 0.73 0.81 0.79 0.84 1.32 1.46 0.79 0.51 0.46 1.03 1.20 1.21 1.21 1.20 0.67 0.72 0.83 0.67 0.87 1.22 1.33 1.20 1.35 1.15 1.01 0.52 0.36 0.49 0.30 0.07 0.03 0.00 0.02 0.09 0.50 0.33
0.21 0.31 0.38 0.45 0.50 0.54 0.54 0.57 0.66 0.68 0.67 0.82 1.04 1.05 1.28 1.05 0.94 0.59 0.57 0.83 1.40 1.43 1.42 1.26 1.08 0.95 0.76 0.43 0.23 0.63 1.13 0.99 0.85 1.04 0.99 0.56 0.38 0.55 0.44 0.25 0.10 0.04 0.06 0.13 0.22 0.35 0.67
0.28 0.39 0.44 0.46 0.47 0.53 0.66 0.71 0.68 0.70 0.84 0.98 1.10 1.25 1.25 1.06 0.81 0.67 1.00 1.28 1.34 1.04 0.84 0.77 0.77 0.34 0.18 0.21 0.24 0.73 1.01 0.92 0.97 1.61 1.47 0.91 0.47 0.37 0.35 0.41 0.21 0.08 0.16 0.55 0.57 0.68 0.38
0.32 0.40 0.47 0.53 0.58 0.71 0.79 0.80 0.84 0.92 0.97 0.92 1.37 1.16 1.10 0.89 0.77 1.16 1.41 1.08 0.75 0.70 0.60 0.41 0.13 0.09 0.10 0.10 0.24 0.47 0.77 0.55 0.31 0.43 0.61 0.89 0.75 0.49 0.33 0.30 0.29 0.10 0.10 0.28 0.20 0.18 0.15
0.38 0.47 0.56 0.61 0.79 0.81 0.82 0.85 0.77 0.84 1.01 1.23 1.48 1.41 1.36 1.16 1.00 1.20 1.31 0.84 0.96 0.65 0.42 0.18 0.13 0.17 0.14 0.07 0.14 0.36 0.60 0.25 0.08 0.12 0.30 0.33 0.26 0.26 0.30 0.11 0.32 0.35 0.26 0.14 0.43 0.17 0.26
0.43 0.55 0.62 0.64 0.72 0.85 0.89 0.92 0.98 1.27 1.43 1.26 1.49 1.88 1.35 0.94 1.08 1.35 0.99 0.73 0.61 0.15 0.02 0.03 0.16 0.10 0.05 0.04 0.07 0.09 0.18 0.04 0.01 0.01 0.02 0.04 0.23 0.21 0.28 0.27 0.29 0.33 0.12 0.39 1.01 0.62 0.17
0.46 0.56 0.63 0.71 0.78 0.96 1.11 1.28 1.62 2.01 2.06 2.33 1.58 2.12 1.34 0.93 1.41 1.46 0.99 0.79 0.31 0.03 0.02 0.06 0.05 0.05 0.01 0.01 0.01 0.01 0.02 0.03 0.00 0.00 0.01 0.01 0.10 0.20 0.43 0.33 0.22 0.34 0.44 0.30 0.50 0.45 0.32
0.53 0.65 0.73 0.82 0.94 1.07 1.33 1.38 1.51 1.98 2.31 3.03 2.55 1.80 1.27 1.16 1.70 1.07 0.61 0.61 0.29 0.05 0.04 0.10 0.10 0.04 0.01 0.01 0.01 0.01 0.01 0.02 0.00 0.00 0.01 0.01 0.17 0.25 0.20 0.08 0.08 0.16 0.22 0.18 0.51 0.46 0.32
0.53 0.63 0.75 0.82 0.99 1.04 1.15 1.09 1.10 1.64 2.18 2.46 2.26 1.86 1.79 0.88 0.67 0.48 0.54 0.27 0.16 0.08 0.08 0.12 0.08 0.04 0.01 0.01 0.01 0.01 0.00 0.00 0.00 0.00 0.00 0.05 0.30 0.41 0.37 0.35 0.35 0.32 0.25 0.36 0.39 0.79 0.69
0.66 0.71 0.84 0.90 1.09 1.14 1.15 0.99 0.95 1.43 1.80 2.28 1.96 2.21 2.50 1.61 0.35 0.18 0.22 0.12 0.07 0.05 0.05 0.11 0.13 0.08 0.04 0.02 0.00 0.00 0.00 0.00 0.00 0.00 0.02 0.20 0.40 0.59 0.60 0.52 0.71 0.51 0.28 0.50 0.96 1.19 0.38
0.63 0.77 0.92 1.02 1.08 1.24 1.28 1.37 1.61 1.89 1.88 2.00 1.49 0.96 0.66 0.82 0.32 0.09 0.15 0.10 0.05 0.08 0.09 0.14 0.11 0.09 0.06 0.04 0.01 0.00 0.00 0.01 0.01 0.02 0.13 0.45 0.81 0.91 0.42 0.32 0.62 0.60 0.30 0.42 0.97 0.54 0.45
0.66 0.71 0.83 0.81 0.86 0.94 1.03 1.10 1.50 2.21 2.36 1.86 1.21 0.59 0.18 0.08 0.04 0.01 0.03 0.05 0.04 0.10 0.14 0.13 0.07 0.04 0.05 0.05 0.02 0.01 0.00 0.00 0.01 0.02 0.12 0.33 0.74 0.74 0.46 0.33 0.34 0.33 0.13 0.24 0.54 0.38 0.25
0.66 0.69 0.77 0.81 0.83 0.91 0.94 0.98 1.27 2.04 2.56 1.88 1.11 0.65 0.19 0.08 0.03 0.02 0.01 0.00 0.01 0.10 0.08 0.04 0.05 0.08 0.06 0.04 0.03 0.02 0.01 0.02 0.01 0.02 0.11 0.34 0.50 0.79 0.67 0.40 0.38 0.32 0.08 0.17 0.38 0.32 0.16
0.91 1.05 1.27 1.48 1.55 1.62 1.85 1.73 1.52 1.75 2.09 1.66 1.02 0.62 0.22 0.10 0.03 0.01 0.01 0.01 0.01 0.06 0.09 0.06 0.03 0.07 0.05 0.04 0.05 0.06 0.02 0.02 0.02 0.01 0.03 0.18 0.39 0.74 0.95 0.76 0.75 0.44 0.13 0.16 0.17 0.16 0.10
0.94 0.99 1.09 1.16 1.22 1.28 1.42 1.65 1.75 1.62 1.29 1.04 0.74 0.46 0.20 0.08 0.03 0.03 0.03 0.02 0.03 0.05 0.09 0.13 0.08 0.02 0.05 0.09 0.18 0.21 0.22 0.07 0.00 0.01 0.01 0.05 0.21 0.41 0.44 0.35 0.17 0.11 0.13 0.11 0.08 0.10 0.03
0.67 0.69 0.65 0.64 0.70 0.75 0.71 0.75 0.95 1.01 1.01 0.82 0.74 0.64 0.21 0.08 0.04 0.02 0.03 0.02 0.08 0.13 0.13 0.11 0.11 0.09 0.13 0.25 0.40 0.27 0.13 0.05 0.02 0.01 0.00 0.01 0.06 0.25 0.19 0.19 0.08 0.03 0.02 0.02 0.03 0.03 0.00
0.60 0.55 0.48 0.52 0.63 0.69 0.63 0.57 0.71 0.57 0.59 0.62 0.66 0.50 0.19 0.07 0.01 0.01 0.02 0.01 0.04 0.13 0.19 0.20 0.17 0.23 0.23 0.38 0.39 0.18 0.04 0.00 0.00 0.01 0.03 0.07 0.11 0.16 0.15 0.15 0.01 0.00 0.00 0.01 0.08 0.07 0.00
1.12 0.93 0.93 0.91 1.02 1.01 0.83 0.70 0.80 0.56 0.53 0.49 0.42 0.41 0.24 0.06 0.01 0.01 0.00 0.01 0.06 0.12 0.22 0.25 0.34 0.35 0.43 0.42 0.34 0.15 0.03 0.01 0.00 0.00 0.00 0.03 0.06 0.09 0.09 0.12 0.01 0.00 0.00 0.03 0.02 0.00 0.01
1.11 1.15 1.34 1.42 1.39 1.40 1.11 0.82 0.82 0.62 0.47 0.40 0.31 0.31 0.22 0.08 0.02 0.00 0.00 0.00 0.03 0.09 0.22 0.24 0.36 0.29 0.32 0.42 0.21 0.12 0.04 0.01 0.00 0.01 0.00 0.00 0.00 0.01 0.00 0.00 0.00 0.00 0.00 0.00 0.00 0.00 0.00

GFSGBSN_prec_precacc_084.txt.gz
Total_Precipitation_Accumulation
0.20 0.21 0.19 0.20 0.21 0.20 0.27 0.35 0.32 0.29 0.29 0.39 0.47 0.46 0.41 0.34 0.35 0.39 0.30 0.25 0.23 0.25 0.20 0.26 0.36 0.45 0.67 0.59 0.19 0.18 0.15 0.35 0.74 1.04 0.55 0.46 0.51 0.39 0.34 0.14 0.63 0.78 0.46 0.39 0.56 0.49 0.24
0.21 0.21 0.18 0.20 0.21 0.23 0.33 0.39 0.32 0.27 0.37 0.49 0.52 0.47 0.44 0.41 0.47 0.35 0.20 0.17 0.17 0.20 0.22 0.31 0.45 0.64 0.48 0.31 0.04 0.11 0.18 0.36 0.61 0.93 0.67 0.48 0.64 0.43 0.35 0.20 0.41 0.63 0.64 0.57 1.00 0.66 0.48
0.18 0.20 0.21 0.21 0.22 0.27 0.34 0.34 0.33 0.37 0.49 0.54 0.60 0.48 0.37 0.42 0.54 0.36 0.21 0.19 0.17 0.21 0.19 0.34 0.54 0.63 0.35 0.10 0.06 0.27 0.25 0.50 0.67 0.82 0.83 0.61 0.61 0.68 0.58 0.28 0.25 0.56 0.85 1.07 1.24 1.14 0.65
0.20 0.24 0.22 0.23 0.25 0.27 0.28 0.29 0.35 0.41 0.52 0.58 0.66 0.49 0.42 0.54 0.41 0.32 0.19 0.23 0.21 0.21 0.30 0.40 0.69 0.69 0.27 0.03 0.04 0.27 0.24 0.50 0.77 1.08 1.08 0.95 0.51 0.46 0.59 0.40 0.41 0.55 1.20 1.08 1.40 1.56 0.96
0.26 0.24 0.24 0.19 0.21 0.27 0.28 0.32 0.37 0.40 0.52 0.66 0.63 0.49 0.50 0.40 0.36 0.34 0.25 0.32 0.27 0.31 0.48 0.60 0.61 0.50 0.21 0.16 0.14 0.47 0.25 0.53 1.01 1.41 1.76 1.48 0.83 0.65 0.65 0.49 0.37 0.43 0.81 0.77 0.90 1.20 1.32
0.23 0.18 0.14 0.17 0.24 0.30 0.33 0.37 0.42 0.46 0.57 0.62 0.60 0.53 0.47 0.41 0.44 0.51 0.49 0.45 0.47 0.40 0.70 0.98 0.77 0.67 0.17 0.49 0.51 0.62 0.20 0.68 1.37 1.88 2.57 2.56 1.36 0.88 0.82 0.48 0.21 0.27 0.31 0.44 0.60 0.81 1.22
0.13 0.14 0.16 0.20 0.28 0.36 0.41 0.41 0.42 0.45 0.56 0.62 0.59 0.53 0.54 0.59 0.56 0.79 0.80 0.89 0.97 0.92 0.80 0.81 0.53 0.34 0.29 0.70 1.04 0.59 0.31 1.13 1.87 2.65 2.49 2.03 1.09 0.49 0.49 0.30 0.07 0.05 0.08 0.39 0.37 0.48 0.79
0.13 0.13 0.19 0.26 0.41 0.44 0.41 0.41 0.44 0.51 0.60 0.59 0.55 0.58 0.62 0.60 0.68 1.08 1.00 0.91 0.52 0.65 0.58 0.39 0.28 0.21 0.11 0.34 0.81 0.64 0.72 1.82 2.33 2.58 1.72 1.15 0.54 0.18 0.28 0.27 0.15 0.07 0.13 0.28 0.47 0.35 0.51
0.13 0.15 0.27 0.39 0.43 0.44 0.47 0.46 0.49 0.60 0.65 0.63 0.63 0.68 0.69 0.64 0.83 1.15 0.75 0.48 0.34 0.58 0.66 0.51 0.60 0.35 0.35 0.54 0.60 0.99 1.26 2.33 2.02 1.86 1.10 0.67 0.42 0.19 0.38 0.38 0.20 0.04 0.03 0.07 0.18 0.38 0.36
0.13 0.15 0.23 0.26 0.38 0.46 0.48 0.53 0.70 0.83 0.81 0.86 0.74 0.78 0.78 0.96 1.50 0.93 0.59 0.32 0.65 0.82 0.78 0.88 0.99 0.82 0.57 0.77 1.02 1.04 1.28 1.83 1.99 1.90 1.23 0.94 0.45 0.28 0.42 0.37 0.19 0.06 0.02 0.02 0.12 0.44 0.35
0.16 0.22 0.28 0.33 0.35 0.42 0.50 0.60 0.76 0.88 0.84 0.73 0.82 0.86 0.96 1.35 1.47 0.81 0.51 0.46 1.03 1.20 1.21 1.21 1.20 0.67 0.72 0.83 0.67 0.88 1.27 1.43 1.24 1.35 1.16 1.01 0.52 0.36 0.52 0.32 0.16 0.04 0.00 0.02 0.09 0.52 0.43
0.21 0.31 0.38 0.45 0.50 0.54 0.54 0.57 0.67 0.69 0.68 0.82 1.05 1.11 1.39 1.09 0.95 0.59 0.57 0.83 1.40 1.43 1.42 1.26 1.08 0.95 0.76 0.43 0.23 0.63 1.16 1.00 0.87 1.06 1.03 0.63 0.39 0.60 0.54 0.27 0.12 0.04 0.06 0.13 0.22 0.37 0.75
0.29 0.39 0.44 0.46 0.47 0.53 0.67 0.71 0.69 0.70 0.84 0.98 1.11 1.37 1.45 1.09 0.82 0.67 1.00 1.28 1.34 1.04 0.84 0.77 0.77 0.34 0.18 0.21 0.24 0.73 1.01 0.92 0.99 1.77 1.64 1.11 0.55 0.39 0.36 0.42 0.22 0.08 0.17 0.61 0.62 0.71 0.42
0.32 0.41 0.47 0.53 0.58 0.72 0.79 0.80 0.85 0.92 0.97 0.92 1.37 1.28 1.22 0.92 0.78 1.16 1.41 1.08 0.75 0.70 0.60 0.41 0.13 0.09 0.10 0.10 0.24 0.47 0.77 0.55 0.31 0.44 0.62 0.91 0.78 0.51 0.34 0.30 0.32 0.11 0.11 0.29 0.22 0.18 0.16
0.39 0.47 0.57 0.62 0.80 0.82 0.83 0.86 0.77 0.85 1.02 1.30 1.55 1.46 1.40 1.18 1.03 1.22 1.32 0.85 0.96 0.65 0.42 0.18 0.13 0.17 0.14 0.07 0.14 0.36 0.60 0.25 0.08 0.12 0.30 0.33 0.30 0.27 0.31 0.11 0.34 0.38 0.26 0.14 0.43 0.17 0.26
0.44 0.56 0.63 0.65 0.74 0.88 0.91 0.92 0.99 1.31 1.56 1.60 1.75 1.96 1.39 0.97 1.14 1.41 1.04 0.74 0.61 0.15 0.02 0.03 0.16 0.10 0.05 0.04 0.07 0.09 0.18 0.04 0.01 0.01 0.02 0.04 0.23 0.21 0.28 0.31 0.31 0.34 0.13 0.39 1.01 0.62 0.17
0.47 0.58 0.64 0.73 0.82 0.99 1.14 1.29 1.64 2.04 2.15 2.58 1.97 2.30 1.41 1.01 1.55 1.58 1.05 0.80 0.31 0.03 0.02 0.06 0.05 0.05 0.01 0.01 0.01 0.01 0.02 0.03 0.00 0.00 0.01 0.01 0.10 0.20 0.43 0.37 0.23 0.34 0.44 0.30 0.50 0.45 0.32
0.54 0.66 0.75 0.86 0.97 1.10 1.38 1.40 1.52 2.00 2.36 3.14 2.85 1.97 1.37 1.34 1.90 1.15 0.62 0.61 0.29 0.05 0.04 0.10 0.10 0.04 0.01 0.01 0.01 0.01 0.01 0.02 0.00 0.00 0.01 0.01 0.17 0.25 0.20 0.08 0.08 0.16 0.22 0.18 0.51 0.46 0.32
0.54 0.64 0.77 0.87 1.03 1.07 1.19 1.11 1.13 1.67 2.23 2.66 2.44 1.95 2.01 1.11 0.80 0.51 0.55 0.27 0.16 0.08 0.08 0.12 0.08 0.04 0.01 0.01 0.01 0.01 0.00 0.00 0.00 0.00 0.00 0.05 0.30 0.41 0.37 0.35 0.35 0.32 0.25 0.36 0.39 0.79 0.69
0.67 0.71 0.87 0.95 1.13 1.18 1.18 1.02 0.99 1.46 1.83 2.52 2.11 2.31 2.71 1.86 0.44 0.21 0.26 0.14 0.07 0.05 0.05 0.11 0.13 0.08 0.04 0.02 0.00 0.00 0.00 0.00 0.00 0.00 0.02 0.20 0.40 0.59 0.60 0.52 0.71 0.51 0.28 0.50 0.96 1.19 0.38
0.64 0.79 0.95 1.06 1.11 1.26 1.32 1.40 1.65 1.91 1.94 2.39 1.67 1.04 0.72 0.91 0.37 0.16 0.19 0.11 0.05 0.08 0.09 0.14 0.11 0.09 0.06 0.04 0.01 0.00 0.00 0.01 0.01 0.02 0.13 0.45 0.81 0.91 0.42 0.32 0.62 0.60 0.30 0.42 0.97 0.54 0.45
0.67 0.73 0.87 0.85 0.90 0.97 1.06 1.14 1.53 2.25 2.48 2.05 1.32 0.65 0.25 0.18 0.14 0.09 0.05 0.05 0.04 0.10 0.14 0.13 0.07 0.04 0.05 0.05 0.02 0.01 0.00 0.00 0.01 0.02 0.12 0.33 0.74 0.74 0.46 0.33 0.34 0.33 0.13 0.24 0.54 0.38 0.25
0.67 0.72 0.80 0.84 0.86 0.94 0.97 1.02 1.32 2.07 2.71 2.05 1.19 0.71 0.29 0.19 0.09 0.04 0.01 0.00 0.01 0.10 0.08 0.04 0.05 0.08 0.06 0.04 0.03 0.02 0.01 0.02 0.01 0.02 0.11 0.34 0.50 0.79 0.67 0.40 0.38 0.32 0.08 0.17 0.38 0.32 0.16
0.93 1.08 1.30 1.51 1.57 1.66 1.90 1.78 1.55 1.78 2.29 1.90 1.12 0.71 0.30 0.15 0.05 0.01 0.01 0.01 0.01 0.06 0.09 0.06 0.03 0.07 0.05 0.04 0.05 0.06 0.02 0.02 0.02 0.01 0.03 0.18 0.39 0.74 0.95 0.76 0.75 0.44 0.13 0.16 0.17 0.16 0.10
0.96 1.01 1.12 1.19 1.25 1.33 1.47 1.68 1.79 1.68 1.45 1.23 0.84 0.53 0.23 0.09 0.03 0.03 0.03 0.02 0.03 0.05 0.09 0.13 0.08 0.02 0.05 0.09 0.18 0.22 0.22 0.07 0.00 0.01 0.01 0.05 0.21 0.41 0.44 0.35 0.17 0.11 0.13 0.11 0.08 0.10 0.03
0.69 0.71 0.66 0.66 0.74 0.81 0.77 0.78 1.01 1.09 1.10 0.90 0.77 0.65 0.21 0.08 0.04 0.02 0.03 0.02 0.08 0.13 0.13 0.11 0.11 0.09 0.13 0.25 0.40 0.27 0.13 0.05 0.02 0.01 0.00 0.01 0.06 0.25 0.19 0.19 0.08 0.03 0.02 0.02 0.03 0.03 0.00
0.61 0.56 0.49 0.54 0.65 0.72 0.64 0.60 0.78 0.73 0.67 0.63 0.67 0.50 0.19 0.07 0.01 0.01 0.02 0.01 0.04 0.13 0.19 0.20 0.17 0.23 0.23 0.38 0.39 0.18 0.04 0.00 0.00 0.01 0.03 0.07 0.11 0.16 0.16 0.15 0.01 0.00 0.00 0.01 0.08 0.07 0.00
1.13 0.94 0.94 0.92 1.04 1.01 0.83 0.72 0.87 0.63 0.56 0.49 0.43 0.41 0.24 0.06 0.01 0.01 0.00 0.01 0.06 0.12 0.22 0.25 0.34 0.35 0.43 0.42 0.34 0.15 0.03 0.01 0.00 0.00 0.00 0.03 0.06 0.09 0.09 0.12 0.01 0.00 0.00 0.03 0.02 0.00 0.01
1.12 1.16 1.36 1.44 1.40 1.40 1.11 0.83 0.92 0.66 0.47 0.41 0.31 0.31 0.22 0.08 0.02 0.00 0.00 0.00 0.03 0.09 0.22 0.24 0.36 0.29 0.32 0.42 0.21 0.12 0.04 0.01 0.00 0.01 0.00 0.00 0.00 0.01 0.00 0.00 0.00 0.00 0.00 0.00 0.00 0.00 0.00

GFSGBSN_prec_precacc_087.txt.gz
Total_Precipitation_Accumulation
0.20 0.21 0.19 0.20 0.22 0.21 0.27 0.36 0.32 0.30 0.29 0.40 0.49 0.51 0.48 0.39 0.39 0.43 0.31 0.25 0.23 0.25 0.21 0.27 0.38 0.49 0.67 0.59 0.19 0.18 0.15 0.35 0.74 1.04 0.55 0.46 0.52 0.41 0.35 0.15 0.64 0.79 0.55 0.46 0.61 0.51 0.25
0.21 0.21 0.19 0.20 0.22 0.23 0.34 0.40 0.33 0.28 0.37 0.50 0.57 0.55 0.53 0.46 0.50 0.37 0.22 0.17 0.18 0.20 0.22 0.32 0.47 0.68 0.48 0.31 0.04 0.11 0.18 0.36 0.61 0.93 0.67 0.48 0.65 0.46 0.39 0.23 0.43 0.64 0.66 0.65 1.03 0.69 0.51
0.18 0.21 0.22 0.22 0.23 0.28 0.35 0.35 0.34 0.37 0.50 0.55 0.62 0.51 0.39 0.46 0.57 0.38 0.24 0.20 0.18 0.21 0.20 0.34 0.55 0.66 0.35 0.10 0.06 0.27 0.25 0.50 0.67 0.82 0.83 0.61 0.62 0.79 0.70 0.32 0.27 0.60 0.91 1.14 1.31 1.17 0.70
0.20 0.24 0.23 0.24 0.27 0.28 0.28 0.31 0.36 0.42 0.53 0.59 0.68 0.50 0.43 0.57 0.44 0.34 0.20 0.23 0.21 0.21 0.30 0.40 0.70 0.70 0.28 0.03 0.04 0.27 0.24 0.50 0.77 1.08 1.08 0.95 0.52 0.54 0.85 0.47 0.47 0.59 1.32 1.13 1.43 1.60 0.98
0.26 0.25 0.24 0.21 0.23 0.28 0.30 0.34 0.37 0.41 0.52 0.67 0.63 0.50 0.52 0.45 0.39 0.35 0.25 0.32 0.27 0.32 0.49 0.61 0.62 0.51 0.21 0.16 0.14 0.47 0.25 0.53 1.01 1.41 1.76 1.48 0.84 0.71 0.79 0.64 0.45 0.49 0.92 0.83 0.92 1.25 1.34
0.23 0.19 0.14 0.18 0.25 0.31 0.35 0.39 0.42 0.46 0.58 0.62 0.60 0.53 0.48 0.44 0.48 0.53 0.50 0.45 0.47 0.40 0.71 0.99 0.78 0.68 0.17 0.49 0.51 0.62 0.20 0.68 1.37 1.88 2.57 2.56 1.38 0.93 0.84 0.60 0.31 0.28 0.34 0.45 0.61 0.83 1.22
0.13 0.15 0.17 0.21 0.29 0.37 0.43 0.43 0.43 0.46 0.57 0.62 0.59 0.53 0.56 0.64 0.59 0.81 0.81 0.89 0.97 0.93 0.80 0.81 0.53 0.34 0.29 0.70 1.04 0.59 0.31 1.13 1.87 2.66 2.49 2.04 1.13 0.65 0.66 0.34 0.15 0.06 0.10 0.39 0.39 0.50 0.82
0.13 0.13 0.19 0.27 0.41 0.45 0.42 0.42 0.45 0.53 0.61 0.60 0.55 0.59 0.68 0.77 0.74 1.09 1.00 0.91 0.52 0.65 0.58 0.39 0.28 0.21 0.11 0.34 0.81 0.64 0.72 1.83 2.34 2.58 1.72 1.16 0.55 0.21 0.46 0.39 0.20 0.08 0.13 0.29 0.49 0.39 0.60
0.13 0.15 0.27 0.39 0.43 0.44 0.47 0.46 0.50 0.62 0.67 0.64 0.63 0.68 0.77 0.78 0.89 1.17 0.75 0.48 0.34 0.58 0.66 0.51 0.60 0.35 0.35 0.54 0.60 0.99 1.26 2.33 2.03 1.86 1.10 0.68 0.42 0.21 0.43 0.50 0.20 0.04 0.03 0.08 0.19 0.41 0.43
0.13 0.15 0.23 0.27 0.38 0.46 0.48 0.53 0.70 0.83 0.81 0.86 0.74 0.78 0.81 1.05 1.53 0.93 0.59 0.32 0.65 0.82 0.78 0.88 0.99 0.82 0.57 0.77 1.02 1.04 1.28 1.83 1.99 1.91 1.24 0.94 0.46 0.29 0.43 0.38 0.20 0.07 0.02 0.03 0.12 0.44 0.41
0.16 0.22 0.28 0.34 0.35 0.42 0.50 0.60 0.76 0.88 0.84 0.73 0.82 0.86 0.96 1.39 1.48 0.81 0.52 0.46 1.03 1.20 1.21 1.21 1.20 0.67 0.72 0.83 0.67 0.88 1.27 1.44 1.25 1.36 1.16 1.02 0.53 0.36 0.52 0.32 0.25 0.05 0.00 0.02 0.09 0.52 0.44
0.21 0.31 0.39 0.45 0.51 0.54 0.54 0.58 0.67 0.69 0.68 0.82 1.05 1.11 1.42 1.19 0.97 0.62 0.57 0.83 1.40 1.43 1.43 1.26 1.08 0.95 0.76 0.43 0.23 0.63 1.16 1.06 0.92 1.09 1.15 0.65 0.42 0.63 0.56 0.29 0.13 0.05 0.06 0.13 0.22 0.37 0.76
0.29 0.40 0.45 0.47 0.47 0.53 0.69 0.74 0.70 0.70 0.84 0.99 1.12 1.37 1.47 1.21 0.86 0.72 1.01 1.28 1.35 1.04 0.85 0.77 0.77 0.34 0.18 0.21 0.24 0.73 1.01 0.92 1.09 1.84 1.77 1.22 0.71 0.50 0.38 0.43 0.25 0.08 0.17 0.62 0.62 0.72 0.45
0.33 0.42 0.48 0.54 0.59 0.74 0.84 0.85 0.86 0.92 0.97 0.93 1.38 1.28 1.22 0.93 0.80 1.22 1.44 1.10 0.76 0.71 0.60 0.41 0.13 0.09 0.10 0.10 0.24 0.47 0.77 0.55 0.37 0.54 0.68 0.94 0.83 0.56 0.37 0.32 0.35 0.11 0.11 0.30 0.22 0.18 0.16
0.40 0.48 0.58 0.63 0.81 0.86 0.89 0.90 0.79 0.86 1.04 1.36 1.63 1.53 1.43 1.19 1.04 1.29 1.39 0.90 0.96 0.66 0.42 0.18 0.13 0.17 0.14 0.07 0.14 0.36 0.60 0.25 0.08 0.12 0.30 0.33 0.34 0.30 0.32 0.13 0.34 0.38 0.26 0.14 0.43 0.17 0.26
0.45 0.57 0.64 0.66 0.75 0.92 0.96 0.96 1.01 1.32 1.60 1.74 1.97 2.12 1.46 0.98 1.16 1.51 1.15 0.76 0.62 0.16 0.02 0.03 0.16 0.10 0.05 0.04 0.07 0.09 0.18 0.04 0.01 0.01 0.02 0.04 0.24 0.23 0.29 0.31 0.32 0.34 0.13 0.39 1.01 0.62 0.17
0.48 0.59 0.65 0.74 0.84 1.03 1.19 1.34 1.66 2.06 2.21 2.71 2.08 2.55 1.59 1.10 1.69 1.76 1.13 0.80 0.31 0.04 0.02 0.06 0.05 0.05 0.01 0.01 0.01 0.01 0.02 0.03 0.00 0.00 0.01 0.01 0.10 0.20 0.44 0.40 0.24 0.34 0.44 0.30 0.50 0.45 0.32
0.54 0.67 0.76 0.87 1.00 1.15 1.42 1.44 1.55 2.02 2.45 3.20 2.91 2.14 1.66 1.55 2.09 1.25 0.63 0.61 0.29 0.06 0.04 0.10 0.10 0.04 0.01 0.01 0.01 0.01 0.01 0.02 0.00 0.00 0.01 0.01 0.17 0.25 0.20 0.08 0.08 0.16 0.22 0.18 0.51 0.46 0.32
0.54 0.64 0.77 0.89 1.07 1.12 1.24 1.15 1.15 1.71 2.31 2.70 2.49 2.03 2.35 1.31 0.88 0.53 0.56 0.28 0.17 0.09 0.08 0.12 0.08 0.04 0.01 0.01 0.01 0.01 0.00 0.00 0.00 0.00 0.00 0.05 0.30 0.41 0.37 0.35 0.35 0.32 0.25 0.36 0.39 0.79 0.69
0.67 0.72 0.88 0.98 1.16 1.23 1.23 1.05 1.01 1.50 1.90 2.60 2.18 2.39 2.98 2.08 0.51 0.21 0.28 0.19 0.10 0.05 0.05 0.11 0.13 0.08 0.04 0.02 0.00 0.00 0.00 0.00 0.00 0.00 0.02 0.20 0.40 0.59 0.60 0.52 0.71 0.51 0.28 0.50 0.96 1.19 0.38
0.64 0.79 0.96 1.09 1.15 1.30 1.36 1.43 1.67 1.95 2.06 2.48 1.72 1.11 0.79 0.96 0.42 0.16 0.22 0.13 0.07 0.09 0.09 0.14 0.11 0.09 0.06 0.04 0.01 0.00 0.00 0.01 0.01 0.02 0.13 0.45 0.81 0.91 0.42 0.32 0.62 0.60 0.30 0.42 0.97 0.54 0.45
0.67 0.73 0.88 0.90 0.95 1.01 1.08 1.16 1.55 2.30 2.53 2.08 1.34 0.67 0.28 0.18 0.15 0.12 0.09 0.06 0.05 0.11 0.14 0.13 0.07 0.04 0.05 0.05 0.02 0.01 0.00 0.00 0.01 0.02 0.12 0.33 0.74 0.74 0.46 0.33 0.34 0.33 0.13 0.24 0.54 0.38 0.25
0.67 0.72 0.84 0.90 0.91 0.98 1.00 1.05 1.35 2.11 2.74 2.14 1.29 0.73 0.32 0.26 0.13 0.09 0.03 0.01 0.01 0.10 0.08 0.04 0.05 0.08 0.06 0.04 0.03 0.02 0.01 0.02 0.01 0.02 0.11 0.34 0.50 0.79 0.67 0.40 0.38 0.32 0.08 0.17 0.38 0.32 0.16
0.93 1.10 1.34 1.55 1.61 1.68 1.92 1.79 1.57 1.79 2.34 2.02 1.19 0.73 0.31 0.18 0.07 0.03 0.01 0.01 0.01 0.06 0.09 0.06 0.03 0.07 0.05 0.04 0.05 0.06 0.02 0.02 0.02 0.01 0.03 0.18 0.39 0.74 0.95 0.76 0.75 0.44 0.13 0.16 0.17 0.16 0.10
0.96 1.04 1.14 1.21 1.26 1.34 1.48 1.70 1.80 1.69 1.47 1.25 0.85 0.54 0.26 0.11 0.03 0.03 0.03 0.02 0.03 0.05 0.09 0.13 0.08 0.02 0.05 0.09 0.18 0.22 0.22 0.07 0.00 0.01 0.01 0.05 0.21 0.41 0.44 0.35 0.17 0.11 0.13 0.11 0.08 0.10 0.03
0.70 0.72 0.68 0.67 0.76 0.82 0.80 0.81 1.02 1.13 1.12 0.91 0.78 0.66 0.21 0.08 0.04 0.02 0.03 0.02 0.08 0.14 0.13 0.11 0.11 0.09 0.13 0.25 0.40 0.27 0.13 0.05 0.02 0.01 0.00 0.01 0.06 0.25 0.19 0.19 0.08 0.03 0.02 0.02 0.03 0.03 0.00
0.62 0.57 0.50 0.55 0.67 0.75 0.66 0.62 0.79 0.85 0.70 0.63 0.67 0.50 0.19 0.07 0.01 0.01 0.02 0.01 0.04 0.14 0.19 0.20 0.17 0.23 0.23 0.38 0.39 0.18 0.04 0.00 0.00 0.01 0.03 0.07 0.11 0.16 0.16 0.15 0.01 0.00 0.00 0.01 0.08 0.07 0.00
1.14 0.94 0.94 0.93 1.05 1.02 0.84 0.73 0.87 0.68 0.58 0.50 0.43 0.41 0.24 0.06 0.01 0.01 0.00 0.01 0.06 0.12 0.22 0.25 0.35 0.35 0.43 0.43 0.34 0.15 0.03 0.01 0.00 0.00 0.00 0.03 0.06 0.09 0.09 0.12 0.01 0.00 0.00 0.03 0.02 0.00 0.01
1.13 1.17 1.36 1.44 1.40 1.40 1.12 0.83 0.93 0.68 0.47 0.41 0.31 0.31 0.22 0.08 0.02 0.00 0.00 0.00 0.03 0.09 0.22 0.24 0.36 0.29 0.32 0.42 0.21 0.12 0.04 0.01 0.00 0.01 0.00 0.00 0.00 0.01 0.00 0.00 0.00 0.00 0.00 0.00 0.00 0.00 0.00

GFSGBSN_prec_precacc_090.txt.gz
Total_Precipitation_Accumulation
0.20 0.21 0.20 0.21 0.22 0.22 0.28 0.37 0.34 0.30 0.30 0.41 0.49 0.53 0.53 0.50 0.56 0.49 0.31 0.25 0.24 0.25 0.21 0.27 0.38 0.50 0.67 0.59 0.19 0.18 0.15 0.35 0.74 1.04 0.55 0.46 0.52 0.41 0.36 0.15 0.64 0.80 0.55 0.46 0.62 0.53 0.29
0.21 0.22 0.19 0.21 0.23 0.25 0.34 0.41 0.34 0.29 0.38 0.51 0.57 0.56 0.54 0.51 0.57 0.42 0.23 0.18 0.18 0.21 0.22 0.32 0.47 0.68 0.48 0.31 0.04 0.11 0.18 0.36 0.61 0.93 0.67 0.48 0.65 0.47 0.41 0.24 0.45 0.65 0.66 0.65 1.06 0.71 0.55
0.19 0.21 0.22 0.22 0.24 0.30 0.36 0.36 0.34 0.38 0.51 0.56 0.63 0.51 0.39 0.46 0.58 0.40 0.26 0.21 0.18 0.21 0.20 0.34 0.55 0.66 0.36 0.10 0.06 0.27 0.25 0.50 0.67 0.82 0.83 0.61 0.63 0.80 0.72 0.35 0.28 0.63 0.95 1.17 1.33 1.21 0.74
0.20 0.24 0.23 0.25 0.28 0.29 0.29 0.32 0.36 0.42 0.54 0.60 0.69 0.50 0.44 0.57 0.45 0.38 0.23 0.24 0.21 0.21 0.30 0.40 0.71 0.71 0.28 0.03 0.04 0.27 0.24 0.51 0.77 1.09 1.08 0.95 0.53 0.55 0.88 0.55 0.52 0.64 1.35 1.21 1.52 1.63 1.03
0.26 0.25 0.24 0.21 0.24 0.29 0.31 0.35 0.38 0.42 0.54 0.68 0.64 0.50 0.52 0.45 0.43 0.41 0.27 0.33 0.27 0.32 0.49 0.61 0.63 0.51 0.21 0.16 0.14 0.47 0.25 0.53 1.01 1.41 1.76 1.48 0.87 0.72 0.87 0.86 0.53 0.59 0.93 0.84 0.98 1.30 1.39
0.23 0.19 0.14 0.19 0.26 0.31 0.35 0.40 0.44 0.47 0.59 0.63 0.60 0.53 0.48 0.44 0.53 0.58 0.51 0.47 0.47 0.40 0.72 1.01 0.78 0.68 0.17 0.49 0.51 0.62 0.20 0.68 1.37 1.88 2.58 2.57 1.41 0.96 0.87 0.65 0.35 0.31 0.39 0.51 0.64 0.89 1.27
0.13 0.15 0.17 0.22 0.30 0.37 0.44 0.44 0.44 0.48 0.59 0.63 0.60 0.53 0.56 0.67 0.73 0.84 0.82 0.90 0.98 0.93 0.80 0.82 0.53 0.34 0.29 0.70 1.04 0.59 0.31 1.13 1.87 2.66 2.50 2.06 1.15 0.70 0.69 0.36 0.17 0.06 0.10 0.42 0.44 0.56 0.84
0.13 0.13 0.20 0.28 0.42 0.47 0.43 0.42 0.46 0.54 0.63 0.61 0.55 0.59 0.69 0.83 0.99 1.24 1.05 0.92 0.52 0.65 0.58 0.39 0.28 0.21 0.11 0.34 0.81 0.64 0.72 1.83 2.34 2.59 1.73 1.18 0.56 0.23 0.60 0.50 0.24 0.08 0.15 0.31 0.54 0.42 0.60
0.14 0.16 0.27 0.40 0.44 0.45 0.48 0.47 0.51 0.62 0.68 0.64 0.63 0.68 0.77 0.78 0.96 1.22 0.81 0.52 0.34 0.58 0.66 0.51 0.60 0.35 0.35 0.54 0.60 0.99 1.26 2.33 2.03 1.86 1.11 0.70 0.43 0.26 0.53 0.63 0.23 0.05 0.04 0.08 0.20 0.41 0.43
0.13 0.16 0.23 0.28 0.39 0.47 0.49 0.53 0.71 0.85 0.82 0.87 0.74 0.78 0.82 1.06 1.54 0.93 0.59 0.32 0.65 0.82 0.78 0.88 0.99 0.82 0.57 0.77 1.02 1.04 1.28 1.83 1.99 1.91 1.24 0.95 0.46 0.31 0.47 0.41 0.21 0.08 0.02 0.03 0.13 0.44 0.42
0.17 0.22 0.29 0.35 0.36 0.43 0.50 0.61 0.80 0.90 0.85 0.73 0.82 0.87 0.97 1.40 1.50 0.82 0.54 0.47 1.04 1.20 1.21 1.21 1.20 0.67 0.72 0.83 0.67 0.89 1.27 1.44 1.25 1.36 1.17 1.03 0.54 0.37 0.53 0.32 0.26 0.06 0.01 0.03 0.10 0.52 0.44
0.21 0.32 0.40 0.46 0.52 0.56 0.56 0.61 0.70 0.70 0.69 0.83 1.05 1.11 1.42 1.19 0.99 0.72 0.66 0.86 1.41 1.44 1.43 1.26 1.08 0.95 0.76 0.43 0.23 0.63 1.17 1.08 0.93 1.14 1.17 0.66 0.46 0.67 0.66 0.38 0.18 0.05 0.07 0.13 0.22 0.37 0.76
0.30 0.41 0.45 0.47 0.49 0.54 0.71 0.77 0.72 0.72 0.87 1.01 1.14 1.38 1.48 1.22 0.87 0.82 1.15 1.32 1.38 1.05 0.85 0.77 0.77 0.34 0.18 0.21 0.24 0.73 1.01 0.94 1.15 1.89 1.88 1.37 0.82 0.59 0.46 0.47 0.26 0.09 0.18 0.62 0.62 0.72 0.45
0.35 0.43 0.48 0.55 0.60 0.75 0.86 0.86 0.88 0.96 1.01 0.95 1.44 1.34 1.25 0.93 0.80 1.28 1.61 1.19 0.78 0.71 0.60 0.41 0.13 0.09 0.10 0.10 0.24 0.47 0.77 0.65 0.52 0.65 0.81 1.09 0.92 0.60 0.38 0.33 0.36 0.11 0.11 0.30 0.22 0.19 0.17
0.46 0.51 0.58 0.64 0.82 0.88 0.92 0.91 0.83 0.90 1.07 1.40 1.71 1.60 1.49 1.19 1.05 1.33 1.56 0.96 0.97 0.66 0.43 0.18 0.13 0.17 0.14 0.07 0.14 0.36 0.60 0.26 0.08 0.12 0.30 0.34 0.39 0.32 0.34 0.13 0.34 0.38 0.26 0.14 0.43 0.17 0.26
0.52 0.61 0.65 0.67 0.76 0.95 0.98 0.99 1.06 1.36 1.63 1.80 2.05 2.26 1.61 1.01 1.17 1.60 1.30 0.78 0.62 0.16 0.02 0.04 0.16 0.10 0.05 0.04 0.07 0.09 0.18 0.04 0.01 0.01 0.02 0.04 0.27 0.24 0.29 0.31 0.32 0.34 0.13 0.39 1.01 0.62 0.17
0.55 0.63 0.66 0.75 0.86 1.05 1.22 1.38 1.71 2.10 2.24 2.76 2.14 2.75 1.84 1.15 1.74 1.91 1.20 0.82 0.31 0.04 0.03 0.06 0.05 0.05 0.01 0.01 0.01 0.01 0.02 0.03 0.00 0.00 0.01 0.01 0.10 0.21 0.45 0.40 0.24 0.34 0.44 0.30 0.50 0.45 0.32
0.64 0.69 0.76 0.87 1.02 1.17 1.45 1.49 1.59 2.05 2.49 3.22 2.97 2.32 2.16 1.75 2.19 1.37 0.65 0.62 0.30 0.11 0.05 0.10 0.10 0.04 0.01 0.01 0.01 0.01 0.01 0.02 0.00 0.00 0.01 0.01 0.17 0.26 0.20 0.08 0.08 0.16 0.22 0.18 0.51 0.46 0.32
0.59 0.64 0.77 0.90 1.08 1.14 1.28 1.20 1.19 1.74 2.37 2.72 2.53 2.20 2.64 1.47 0.94 0.57 0.57 0.29 0.20 0.14 0.10 0.12 0.08 0.04 0.01 0.01 0.01 0.01 0.00 0.00 0.00 0.00 0.00 0.05 0.30 0.41 0.37 0.35 0.35 0.32 0.25 0.36 0.39 0.79 0.69
0.67 0.72 0.88 0.98 1.18 1.26 1.28 1.09 1.03 1.53 1.94 2.61 2.19 2.50 3.16 2.23 0.54 0.22 0.31 0.25 0.17 0.08 0.06 0.11 0.13 0.08 0.04 0.02 0.00 0.00 0.00 0.00 0.00 0.00 0.02 0.20 0.40 0.59 0.60 0.52 0.71 0.51 0.28 0.50 0.96 1.19 0.38
0.64 0.79 0.96 1.10 1.17 1.34 1.40 1.45 1.68 1.98 2.10 2.49 1.72 1.16 0.88 1.01 0.45 0.17 0.24 0.20 0.12 0.10 0.10 0.14 0.12 0.09 0.06 0.04 0.01 0.00 0.00 0.01 0.01 0.02 0.13 0.45 0.81 0.91 0.42 0.32 0.62 0.60 0.30 0.42 0.97 0.54 0.45
0.67 0.73 0.88 0.93 0.98 1.03 1.09 1.17 1.56 2.31 2.55 2.08 1.35 0.68 0.30 0.19 0.16 0.14 0.14 0.12 0.08 0.11 0.15 0.14 0.08 0.04 0.05 0.05 0.02 0.01 0.00 0.00 0.01 0.02 0.12 0.33 0.74 0.74 0.46 0.33 0.34 0.33 0.13 0.24 0.54 0.38 0.25
0.67 0.72 0.84 0.92 0.94 1.00 1.01 1.06 1.35 2.12 2.76 2.15 1.31 0.77 0.35 0.30 0.16 0.14 0.07 0.02 0.01 0.11 0.08 0.04 0.06 0.08 0.06 0.04 0.03 0.02 0.01 0.02 0.01 0.02 0.11 0.34 0.50 0.79 0.67 0.40 0.38 0.32 0.08 0.17 0.38 0.32 0.16
0.93 1.10 1.35 1.56 1.62 1.69 1.92 1.81 1.58 1.81 2.35 2.04 1.21 0.76 0.32 0.18 0.07 0.03 0.01 0.01 0.01 0.07 0.10 0.06 0.03 0.07 0.05 0.04 0.05 0.06 0.02 0.02 0.02 0.01 0.03 0.18 0.39 0.74 0.95 0.76 0.75 0.44 0.13 0.16 0.17 0.16 0.10
0.96 1.05 1.15 1.22 1.27 1.35 1.51 1.72 1.81 1.70 1.48 1.26 0.86 0.54 0.26 0.12 0.04 0.03 0.03 0.02 0.03 0.05 0.09 0.13 0.08 0.02 0.05 0.09 0.18 0.22 0.22 0.07 0.00 0.01 0.01 0.05 0.21 0.41 0.44 0.35 0.17 0.11 0.13 0.11 0.08 0.10 0.03
0.70 0.73 0.68 0.68 0.76 0.84 0.82 0.81 1.03 1.15 1.12 0.91 0.78 0.66 0.21 0.08 0.04 0.02 0.03 0.02 0.08 0.16 0.13 0.11 0.11 0.09 0.13 0.25 0.40 0.27 0.13 0.05 0.02 0.01 0.00 0.01 0.06 0.25 0.19 0.19 0.08 0.03 0.02 0.02 0.03 0.03 0.00
0.62 0.57 0.50 0.55 0.68 0.76 0.66 0.62 0.80 0.86 0.71 0.63 0.67 0.50 0.19 0.07 0.01 0.01 0.02 0.01 0.04 0.16 0.19 0.20 0.17 0.23 0.23 0.38 0.39 0.18 0.04 0.00 0.00 0.01 0.03 0.07 0.11 0.16 0.16 0.15 0.01 0.00 0.00 0.01 0.08 0.07 0.00
1.14 0.94 0.95 0.93 1.05 1.02 0.85 0.74 0.87 0.68 0.58 0.50 0.43 0.41 0.24 0.06 0.01 0.01 0.00 0.01 0.06 0.12 0.22 0.25 0.35 0.36 0.43 0.43 0.34 0.15 0.03 0.01 0.00 0.00 0.00 0.03 0.06 0.09 0.09 0.12 0.01 0.00 0.00 0.03 0.02 0.00 0.01
1.13 1.17 1.36 1.44 1.40 1.40 1.12 0.83 0.93 0.68 0.47 0.41 0.31 0.31 0.22 0.08 0.02 0.00 0.00 0.00 0.03 0.09 0.22 0.24 0.37 0.29 0.32 0.42 0.21 0.12 0.04 0.01 0.00 0.01 0.00 0.00 0.00 0.01 0.00 0.00 0.00 0.00 0.00 0.00 0.00 0.00 0.00

GFSGBSN_prec_precacc_093.txt.gz
Total_Precipitation_Accumulation
0.21 0.22 0.20 0.21 0.23 0.23 0.29 0.38 0.35 0.30 0.31 0.42 0.50 0.54 0.54 0.50 0.58 0.61 0.47 0.35 0.25 0.25 0.21 0.27 0.38 0.50 0.67 0.59 0.19 0.18 0.15 0.35 0.74 1.04 0.55 0.46 0.52 0.42 0.36 0.15 0.65 0.80 0.55 0.46 0.62 0.53 0.29
0.21 0.22 0.20 0.21 0.24 0.26 0.35 0.42 0.34 0.29 0.39 0.52 0.59 0.57 0.55 0.51 0.58 0.44 0.31 0.30 0.21 0.21 0.22 0.32 0.47 0.69 0.48 0.31 0.04 0.11 0.18 0.36 0.61 0.93 0.67 0.48 0.65 0.47 0.41 0.25 0.46 0.65 0.67 0.65 1.06 0.71 0.55
0.19 0.21 0.22 0.22 0.25 0.31 0.36 0.37 0.35 0.38 0.51 0.57 0.64 0.52 0.40 0.46 0.59 0.41 0.28 0.29 0.21 0.23 0.21 0.34 0.55 0.67 0.36 0.10 0.06 0.27 0.25 0.50 0.67 0.82 0.83 0.62 0.63 0.80 0.72 0.35 0.28 0.64 0.97 1.18 1.33 1.21 0.74
0.20 0.25 0.24 0.25 0.28 0.30 0.30 0.32 0.37 0.43 0.54 0.61 0.69 0.50 0.44 0.57 0.45 0.38 0.26 0.28 0.23 0.22 0.30 0.40 0.71 0.72 0.28 0.03 0.04 0.27 0.24 0.51 0.77 1.09 1.09 0.95 0.53 0.56 0.89 0.55 0.52 0.66 1.40 1.24 1.52 1.63 1.03
0.27 0.25 0.24 0.21 0.24 0.29 0.31 0.36 0.39 0.42 0.54 0.69 0.64 0.50 0.52 0.45 0.43 0.42 0.30 0.38 0.34 0.34 0.50 0.61 0.64 0.51 0.21 0.16 0.14 0.47 0.25 0.53 1.01 1.41 1.77 1.48 0.90 0.75 0.89 0.90 0.60 0.63 0.96 0.85 0.98 1.30 1.40
0.23 0.19 0.15 0.19 0.27 0.32 0.37 0.41 0.44 0.49 0.60 0.64 0.60 0.53 0.48 0.44 0.53 0.67 0.66 0.52 0.52 0.44 0.73 1.02 0.79 0.68 0.17 0.49 0.51 0.62 0.20 0.68 1.37 1.88 2.58 2.58 1.44 0.99 0.89 0.72 0.42 0.35 0.41 0.52 0.65 0.92 1.31
0.13 0.15 0.18 0.23 0.30 0.39 0.46 0.45 0.47 0.49 0.60 0.65 0.60 0.53 0.56 0.67 0.81 1.17 0.93 0.99 1.00 0.96 0.83 0.82 0.54 0.34 0.29 0.70 1.04 0.59 0.31 1.13 1.87 2.66 2.51 2.09 1.19 0.73 0.70 0.37 0.18 0.07 0.11 0.43 0.49 0.63 0.91
0.13 0.14 0.20 0.28 0.43 0.48 0.44 0.43 0.47 0.55 0.64 0.64 0.56 0.59 0.69 0.83 1.01 1.38 1.23 1.03 0.56 0.65 0.58 0.39 0.28 0.21 0.11 0.34 0.81 0.64 0.72 1.83 2.36 2.61 1.74 1.20 0.58 0.24 0.62 0.52 0.25 0.09 0.15 0.35 0.67 0.49 0.65
0.14 0.16 0.28 0.40 0.46 0.46 0.49 0.47 0.51 0.64 0.70 0.67 0.65 0.69 0.77 0.78 0.96 1.25 0.88 0.66 0.43 0.58 0.66 0.51 0.60 0.35 0.35 0.54 0.60 0.99 1.26 2.33 2.03 1.87 1.11 0.71 0.44 0.28 0.58 0.66 0.24 0.06 0.06 0.17 0.26 0.44 0.45
0.13 0.16 0.24 0.30 0.40 0.47 0.50 0.54 0.73 0.87 0.83 0.88 0.77 0.79 0.82 1.06 1.54 0.94 0.60 0.35 0.69 0.82 0.78 0.88 0.99 0.82 0.57 0.77 1.02 1.04 1.28 1.83 2.00 1.91 1.25 0.96 0.47 0.32 0.52 0.44 0.23 0.10 0.04 0.10 0.15 0.50 0.47
0.20 0.26 0.34 0.40 0.38 0.44 0.51 0.63 0.82 0.91 0.88 0.78 0.85 0.87 0.98 1.41 1.50 0.83 0.56 0.47 1.04 1.21 1.24 1.21 1.20 0.67 0.72 0.83 0.68 0.89 1.27 1.45 1.25 1.36 1.19 1.05 0.56 0.37 0.53 0.34 0.27 0.10 0.01 0.10 0.12 0.54 0.53
0.32 0.43 0.52 0.56 0.56 0.57 0.57 0.64 0.72 0.72 0.74 0.91 1.08 1.13 1.43 1.19 0.99 0.72 0.73 0.91 1.44 1.53 1.46 1.26 1.08 0.95 0.77 0.43 0.23 0.64 1.18 1.10 0.94 1.16 1.18 0.67 0.51 0.82 0.75 0.40 0.18 0.09 0.10 0.16 0.23 0.39 0.80
0.48 0.69 0.68 0.61 0.51 0.55 0.74 0.79 0.74 0.77 0.94 1.06 1.16 1.44 1.51 1.23 0.87 0.88 1.29 1.46 1.50 1.11 0.85 0.77 0.77 0.34 0.18 0.21 0.24 0.73 1.03 0.96 1.18 1.92 1.89 1.40 0.94 0.84 0.66 0.53 0.27 0.12 0.24 0.68 0.67 0.75 0.47
0.67 0.77 0.73 0.63 0.61 0.78 0.89 0.88 0.91 1.02 1.05 0.98 1.48 1.39 1.30 0.94 0.81 1.30 1.78 1.34 0.83 0.71 0.60 0.41 0.13 0.09 0.10 0.10 0.24 0.47 0.79 0.76 0.60 0.74 0.92 1.15 0.96 0.70 0.49 0.35 0.39 0.16 0.14 0.34 0.24 0.19 0.17
0.73 0.73 0.74 0.66 0.83 0.91 0.94 0.93 0.86 0.94 1.10 1.43 1.75 1.69 1.61 1.20 1.05 1.36 1.71 1.06 1.01 0.66 0.43 0.18 0.13 0.17 0.14 0.07 0.14 0.37 0.62 0.28 0.10 0.13 0.34 0.35 0.40 0.33 0.36 0.13 0.35 0.39 0.26 0.14 0.43 0.17 0.26
0.68 0.76 0.73 0.68 0.77 0.96 0.99 1.01 1.09 1.39 1.66 1.86 2.19 2.52 1.73 1.01 1.18 1.63 1.42 0.86 0.62 0.16 0.02 0.04 0.16 0.10 0.05 0.04 0.07 0.09 0.19 0.04 0.01 0.01 0.02 0.05 0.28 0.25 0.29 0.32 0.33 0.34 0.13 0.39 1.01 0.62 0.17
0.62 0.74 0.68 0.75 0.87 1.06 1.23 1.40 1.74 2.12 2.28 2.80 2.18 2.88 1.97 1.18 1.76 1.96 1.28 0.86 0.31 0.05 0.03 0.06 0.05 0.05 0.01 0.01 0.01 0.01 0.03 0.03 0.00 0.00 0.01 0.01 0.10 0.21 0.45 0.40 0.24 0.34 0.44 0.30 0.50 0.45 0.32
0.68 0.71 0.76 0.88 1.02 1.18 1.47 1.52 1.61 2.08 2.52 3.24 3.01 2.45 2.28 1.81 2.24 1.42 0.68 0.62 0.31 0.12 0.05 0.10 0.10 0.04 0.01 0.01 0.01 0.01 0.01 0.02 0.00 0.00 0.01 0.01 0.17 0.26 0.20 0.08 0.08 0.16 0.22 0.18 0.51 0.46 0.32
0.59 0.64 0.77 0.90 1.08 1.15 1.30 1.21 1.20 1.77 2.40 2.73 2.58 2.39 2.77 1.53 0.95 0.60 0.59 0.29 0.22 0.16 0.10 0.12 0.08 0.04 0.01 0.01 0.01 0.01 0.00 0.00 0.00 0.00 0.00 0.05 0.30 0.41 0.37 0.35 0.35 0.32 0.25 0.36 0.39 0.79 0.69
0.68 0.72 0.88 0.98 1.18 1.27 1.29 1.09 1.04 1.54 1.95 2.61 2.19 2.59 3.24 2.25 0.55 0.23 0.31 0.26 0.21 0.09 0.07 0.12 0.13 0.08 0.04 0.02 0.00 0.00 0.00 0.00 0.00 0.00 0.02 0.20 0.40 0.59 0.60 0.52 0.71 0.51 0.28 0.50 0.96 1.19 0.38
0.64 0.79 0.96 1.10 1.18 1.34 1.41 1.45 1.69 1.98 2.11 2.49 1.72 1.19 0.90 1.03 0.45 0.17 0.24 0.22 0.14 0.14 0.11 0.15 0.13 0.09 0.06 0.04 0.01 0.00 0.00 0.01 0.01 0.02 0.13 0.45 0.81 0.91 0.42 0.32 0.62 0.60 0.30 0.42 0.97 0.54 0.45
0.67 0.73 0.88 0.93 0.99 1.04 1.10 1.17 1.56 2.32 2.55 2.08 1.35 0.69 0.30 0.19 0.16 0.14 0.15 0.13 0.09 0.12 0.16 0.15 0.09 0.04 0.05 0.05 0.02 0.01 0.00 0.00 0.01 0.02 0.12 0.33 0.74 0.74 0.46 0.33 0.34 0.33 0.13 0.24 0.54 0.38 0.25
0.67 0.72 0.84 0.93 0.94 1.00 1.01 1.07 1.36 2.12 2.76 2.15 1.32 0.77 0.36 0.31 0.17 0.15 0.07 0.03 0.02 0.11 0.09 0.05 0.06 0.09 0.06 0.04 0.03 0.02 0.01 0.02 0.01 0.02 0.11 0.34 0.50 0.79 0.67 0.40 0.38 0.32 0.08 0.17 0.38 0.32 0.16
0.93 1.10 1.36 1.56 1.62 1.69 1.93 1.82 1.58 1.81 2.36 2.04 1.21 0.77 0.33 0.19 0.08 0.04 0.01 0.01 0.01 0.07 0.10 0.06 0.03 0.08 0.05 0.04 0.05 0.06 0.02 0.02 0.02 0.01 0.03 0.18 0.39 0.74 0.95 0.76 0.75 0.44 0.13 0.16 0.17 0.16 0.10
0.96 1.05 1.15 1.22 1.27 1.35 1.51 1.72 1.81 1.72 1.50 1.27 0.86 0.55 0.27 0.12 0.04 0.03 0.03 0.02 0.03 0.06 0.09 0.13 0.08 0.02 0.05 0.09 0.18 0.22 0.22 0.07 0.00 0.01 0.01 0.05 0.21 0.41 0.44 0.35 0.17 0.11 0.13 0.11 0.08 0.10 0.03
0.70 0.74 0.69 0.68 0.76 0.84 0.82 0.81 1.03 1.15 1.12 0.91 0.78 0.66 0.21 0.08 0.04 0.02 0.03 0.02 0.08 0.16 0.13 0.11 0.11 0.09 0.13 0.25 0.40 0.27 0.13 0.05 0.02 0.01 0.00 0.01 0.06 0.25 0.19 0.19 0.08 0.03 0.02 0.02 0.03 0.03 0.00
0.62 0.57 0.50 0.55 0.68 0.77 0.66 0.62 0.80 0.86 0.71 0.63 0.67 0.50 0.19 0.07 0.01 0.01 0.02 0.01 0.04 0.16 0.19 0.20 0.17 0.23 0.23 0.38 0.39 0.18 0.04 0.00 0.00 0.01 0.03 0.07 0.11 0.16 0.16 0.15 0.01 0.00 0.00 0.01 0.08 0.07 0.00
1.14 0.95 0.95 0.93 1.05 1.02 0.85 0.74 0.87 0.68 0.58 0.50 0.43 0.41 0.24 0.06 0.01 0.01 0.00 0.01 0.06 0.12 0.22 0.25 0.36 0.36 0.44 0.44 0.34 0.15 0.03 0.01 0.00 0.00 0.00 0.03 0.06 0.09 0.09 0.12 0.01 0.00 0.00 0.03 0.02 0.00 0.01
1.13 1.17 1.36 1.44 1.40 1.41 1.13 0.83 0.93 0.68 0.47 0.41 0.31 0.31 0.22 0.08 0.02 0.00 0.00 0.00 0.03 0.09 0.22 0.24 0.37 0.30 0.32 0.42 0.21 0.12 0.04 0.01 0.00 0.01 0.00 0.00 0.00 0.01 0.00 0.00 0.00 0.00 0.00 0.00 0.00 0.00 0.00

GFSGBSN_prec_precacc_096.txt.gz
Total_Precipitation_Accumulation
0.21 0.22 0.21 0.22 0.24 0.24 0.30 0.38 0.35 0.31 0.31 0.42 0.51 0.55 0.55 0.51 0.58 0.61 0.47 0.42 0.43 0.41 0.25 0.27 0.38 0.50 0.67 0.59 0.19 0.18 0.15 0.35 0.74 1.04 0.55 0.46 0.52 0.42 0.36 0.15 0.65 0.80 0.55 0.46 0.62 0.53 0.29
0.22 0.23 0.20 0.22 0.24 0.27 0.35 0.42 0.35 0.29 0.39 0.52 0.59 0.58 0.55 0.51 0.58 0.44 0.31 0.33 0.35 0.38 0.28 0.33 0.47 0.69 0.49 0.31 0.04 0.11 0.18 0.36 0.61 0.93 0.67 0.48 0.65 0.47 0.41 0.25 0.46 0.65 0.67 0.65 1.06 0.71 0.55
0.20 0.22 0.24 0.23 0.25 0.31 0.37 0.37 0.35 0.38 0.51 0.58 0.64 0.52 0.40 0.47 0.59 0.41 0.29 0.30 0.31 0.34 0.31 0.38 0.56 0.67 0.36 0.10 0.06 0.27 0.25 0.50 0.67 0.82 0.83 0.62 0.63 0.80 0.72 0.35 0.28 0.64 0.97 1.18 1.34 1.21 0.74
0.21 0.25 0.25 0.26 0.29 0.30 0.30 0.33 0.37 0.43 0.54 0.61 0.69 0.50 0.44 0.57 0.45 0.38 0.26 0.28 0.30 0.35 0.35 0.41 0.71 0.72 0.29 0.03 0.04 0.27 0.24 0.51 0.77 1.09 1.09 0.95 0.53 0.56 0.89 0.55 0.52 0.67 1.41 1.25 1.53 1.64 1.03
0.27 0.26 0.25 0.22 0.24 0.30 0.32 0.37 0.39 0.42 0.54 0.69 0.64 0.50 0.52 0.45 0.43 0.43 0.33 0.42 0.40 0.40 0.52 0.62 0.64 0.52 0.22 0.16 0.14 0.47 0.25 0.53 1.01 1.41 1.77 1.49 0.90 0.76 0.90 0.92 0.62 0.65 0.97 0.85 0.99 1.30 1.40
0.23 0.19 0.15 0.20 0.27 0.33 0.38 0.42 0.45 0.49 0.60 0.64 0.60 0.53 0.48 0.44 0.53 0.75 0.84 0.73 0.58 0.50 0.78 1.04 0.79 0.69 0.17 0.49 0.51 0.62 0.20 0.68 1.37 1.88 2.58 2.59 1.45 1.00 0.89 0.75 0.45 0.40 0.52 0.55 0.65 0.92 1.32
0.14 0.16 0.19 0.23 0.31 0.41 0.47 0.47 0.47 0.50 0.61 0.66 0.61 0.53 0.56 0.67 0.81 1.20 1.07 1.41 1.32 1.04 0.92 0.84 0.54 0.34 0.29 0.70 1.04 0.59 0.31 1.13 1.88 2.66 2.51 2.09 1.21 0.73 0.70 0.38 0.18 0.08 0.13 0.44 0.50 0.66 0.93
0.15 0.15 0.23 0.33 0.51 0.55 0.47 0.44 0.48 0.57 0.66 0.65 0.57 0.59 0.69 0.83 1.01 1.39 1.27 1.18 0.96 0.78 0.59 0.39 0.29 0.21 0.11 0.34 0.81 0.64 0.72 1.84 2.36 2.61 1.74 1.22 0.59 0.24 0.62 0.53 0.26 0.10 0.16 0.35 0.77 0.54 0.68
0.19 0.25 0.44 0.63 0.74 0.64 0.55 0.48 0.53 0.67 0.72 0.68 0.67 0.70 0.77 0.78 0.96 1.25 0.94 0.83 0.61 0.65 0.67 0.51 0.60 0.35 0.35 0.54 0.60 0.99 1.26 2.33 2.04 1.87 1.11 0.72 0.44 0.28 0.59 0.66 0.26 0.06 0.06 0.22 0.42 0.46 0.47
0.22 0.32 0.51 0.95 0.83 0.69 0.56 0.58 0.76 0.90 0.85 0.90 0.78 0.79 0.82 1.06 1.54 0.94 0.62 0.48 0.96 0.96 0.82 0.89 0.99 0.82 0.57 0.77 1.02 1.04 1.28 1.84 2.00 1.91 1.25 0.97 0.47 0.32 0.53 0.44 0.24 0.11 0.04 0.18 0.18 0.66 0.58
0.35 0.52 0.86 1.03 0.69 0.63 0.56 0.68 0.86 0.94 0.91 0.83 0.89 0.87 0.98 1.41 1.51 0.84 0.58 0.49 1.27 1.31 1.28 1.23 1.20 0.68 0.72 0.83 0.68 0.89 1.27 1.45 1.25 1.37 1.21 1.08 0.58 0.38 0.54 0.36 0.30 0.13 0.04 0.16 0.13 0.67 0.82
0.55 0.75 1.09 0.87 0.78 0.63 0.60 0.67 0.75 0.77 0.80 0.95 1.10 1.14 1.46 1.19 1.00 0.74 0.74 0.94 1.49 1.57 1.51 1.28 1.09 0.96 0.77 0.43 0.24 0.64 1.19 1.10 0.94 1.16 1.18 0.67 0.52 0.83 0.75 0.40 0.18 0.09 0.13 0.17 0.24 0.50 0.95
0.74 0.95 0.92 0.76 0.57 0.57 0.77 0.82 0.78 0.82 0.99 1.09 1.18 1.47 1.56 1.23 0.87 0.90 1.33 1.54 1.55 1.17 0.91 0.78 0.77 0.35 0.19 0.22 0.25 0.74 1.04 0.97 1.20 1.95 1.91 1.45 1.13 1.01 0.69 0.54 0.27 0.13 0.37 0.82 0.73 0.87 0.51
0.82 0.86 0.78 0.66 0.63 0.82 0.92 0.91 0.95 1.05 1.09 1.03 1.53 1.43 1.33 0.95 0.81 1.30 1.87 1.48 0.96 0.81 0.62 0.41 0.13 0.10 0.10 0.11 0.24 0.48 0.80 0.81 0.64 0.74 0.93 1.23 1.09 0.79 0.52 0.36 0.43 0.26 0.26 0.49 0.36 0.24 0.20
0.80 0.77 0.75 0.67 0.85 0.92 0.95 0.96 0.89 0.96 1.15 1.53 1.87 1.79 1.64 1.21 1.06 1.37 1.74 1.17 1.18 0.71 0.44 0.19 0.13 0.17 0.14 0.07 0.14 0.38 0.65 0.37 0.12 0.14 0.36 0.39 0.42 0.35 0.36 0.13 0.36 0.40 0.27 0.15 0.44 0.17 0.28
0.70 0.77 0.73 0.68 0.78 0.97 1.00 1.03 1.11 1.43 1.74 1.96 2.28 2.58 1.75 1.02 1.18 1.64 1.46 1.01 0.65 0.18 0.04 0.04 0.16 0.10 0.05 0.04 0.09 0.11 0.25 0.05 0.03 0.01 0.02 0.05 0.30 0.25 0.29 0.32 0.33 0.34 0.13 0.39 1.01 0.65 0.18
0.62 0.74 0.68 0.75 0.87 1.06 1.24 1.41 1.75 2.15 2.31 2.81 2.19 2.91 2.01 1.18 1.77 1.97 1.31 0.96 0.39 0.07 0.03 0.06 0.05 0.05 0.01 0.01 0.02 0.02 0.03 0.03 0.00 0.00 0.01 0.01 0.12 0.22 0.46 0.40 0.24 0.34 0.44 0.30 0.50 0.45 0.32
0.68 0.71 0.76 0.88 1.02 1.18 1.47 1.52 1.61 2.09 2.52 3.24 3.02 2.48 2.30 1.82 2.25 1.44 0.73 0.64 0.34 0.12 0.05 0.10 0.10 0.04 0.01 0.01 0.01 0.01 0.01 0.02 0.00 0.00 0.01 0.01 0.18 0.26 0.20 0.08 0.08 0.16 0.22 0.18 0.51 0.46 0.32
0.59 0.64 0.77 0.90 1.08 1.15 1.30 1.21 1.20 1.77 2.40 2.74 2.59 2.41 2.79 1.54 0.97 0.60 0.59 0.29 0.22 0.16 0.10 0.13 0.09 0.04 0.01 0.01 0.01 0.01 0.00 0.00 0.00 0.00 0.00 0.05 0.30 0.41 0.37 0.35 0.35 0.32 0.25 0.36 0.39 0.79 0.69
0.68 0.72 0.88 0.98 1.18 1.28 1.29 1.09 1.04 1.54 1.95 2.61 2.20 2.60 3.24 2.26 0.55 0.23 0.31 0.26 0.21 0.09 0.07 0.12 0.14 0.08 0.04 0.02 0.00 0.00 0.00 0.00 0.00 0.00 0.02 0.20 0.40 0.59 0.60 0.52 0.71 0.51 0.28 0.50 0.96 1.19 0.38
0.64 0.79 0.96 1.11 1.18 1.34 1.41 1.45 1.69 1.98 2.11 2.49 1.72 1.19 0.90 1.03 0.46 0.18 0.24 0.22 0.14 0.14 0.11 0.15 0.13 0.09 0.06 0.04 0.01 0.00 0.00 0.01 0.01 0.02 0.13 0.45 0.81 0.91 0.42 0.32 0.62 0.60 0.30 0.42 0.97 0.54 0.45
0.67 0.73 0.88 0.94 0.99 1.04 1.10 1.17 1.56 2.32 2.55 2.08 1.35 0.69 0.31 0.19 0.16 0.14 0.15 0.14 0.10 0.13 0.16 0.15 0.09 0.04 0.05 0.05 0.02 0.01 0.00 0.00 0.01 0.02 0.12 0.33 0.74 0.74 0.46 0.33 0.34 0.33 0.13 0.24 0.54 0.38 0.25
0.67 0.72 0.84 0.93 0.94 1.00 1.02 1.08 1.36 2.12 2.76 2.15 1.32 0.77 0.36 0.31 0.17 0.15 0.08 0.03 0.02 0.11 0.09 0.05 0.06 0.09 0.06 0.04 0.03 0.02 0.01 0.02 0.01 0.02 0.11 0.34 0.50 0.79 0.67 0.40 0.38 0.32 0.08 0.17 0.38 0.32 0.16
0.93 1.10 1.36 1.56 1.62 1.69 1.93 1.83 1.58 1.82 2.36 2.04 1.21 0.77 0.33 0.19 0.08 0.04 0.01 0.01 0.01 0.07 0.10 0.06 0.03 0.08 0.05 0.04 0.05 0.06 0.02 0.02 0.02 0.01 0.03 0.18 0.39 0.74 0.95 0.76 0.75 0.44 0.13 0.16 0.17 0.16 0.10
0.96 1.05 1.15 1.22 1.27 1.35 1.52 1.72 1.82 1.72 1.50 1.27 0.86 0.55 0.27 0.13 0.04 0.04 0.03 0.02 0.03 0.06 0.09 0.13 0.08 0.02 0.05 0.09 0.18 0.22 0.22 0.07 0.00 0.01 0.01 0.05 0.21 0.41 0.44 0.35 0.17 0.11 0.13 0.11 0.08 0.10 0.03
0.70 0.74 0.69 0.68 0.76 0.84 0.82 0.81 1.04 1.15 1.12 0.91 0.78 0.66 0.21 0.08 0.04 0.02 0.03 0.02 0.08 0.16 0.14 0.11 0.11 0.09 0.13 0.25 0.40 0.27 0.13 0.05 0.02 0.01 0.00 0.01 0.06 0.25 0.19 0.19 0.08 0.03 0.02 0.02 0.03 0.03 0.00
0.62 0.57 0.50 0.55 0.68 0.77 0.66 0.62 0.80 0.86 0.71 0.63 0.67 0.50 0.19 0.07 0.01 0.01 0.02 0.02 0.04 0.16 0.20 0.20 0.17 0.23 0.23 0.38 0.39 0.18 0.04 0.00 0.00 0.01 0.03 0.07 0.11 0.16 0.16 0.15 0.01 0.00 0.00 0.01 0.08 0.07 0.00
1.14 0.95 0.95 0.93 1.05 1.03 0.86 0.74 0.87 0.68 0.58 0.50 0.43 0.41 0.24 0.06 0.01 0.01 0.00 0.01 0.06 0.12 0.22 0.25 0.36 0.36 0.44 0.44 0.34 0.15 0.03 0.01 0.00 0.00 0.00 0.03 0.06 0.09 0.09 0.12 0.01 0.00 0.00 0.03 0.02 0.00 0.01
1.13 1.17 1.36 1.44 1.40 1.41 1.13 0.83 0.93 0.68 0.47 0.41 0.31 0.31 0.22 0.08 0.02 0.00 0.00 0.00 0.03 0.09 0.22 0.24 0.37 0.30 0.32 0.43 0.21 0.12 0.04 0.01 0.00 0.01 0.00 0.00 0.00 0.01 0.00 0.00 0.00 0.00 0.00 0.00 0.00 0.00 0.00

GFSGBSN_prec_precacc_099.txt.gz
Total_Precipitation_Accumulation
0.23 0.24 0.22 0.24 0.25 0.24 0.30 0.39 0.36 0.31 0.31 0.42 0.52 0.56 0.55 0.51 0.59 0.61 0.47 0.42 0.44 0.51 0.58 0.52 0.42 0.50 0.67 0.59 0.19 0.18 0.15 0.35 0.74 1.04 0.55 0.46 0.52 0.42 0.36 0.15 0.65 0.80 0.55 0.46 0.62 0.53 0.29
0.24 0.25 0.22 0.23 0.25 0.28 0.36 0.43 0.36 0.30 0.40 0.53 0.60 0.58 0.55 0.52 0.58 0.44 0.31 0.33 0.35 0.41 0.48 0.59 0.55 0.70 0.49 0.31 0.04 0.11 0.18 0.36 0.61 0.93 0.67 0.48 0.65 0.47 0.41 0.25 0.46 0.65 0.67 0.65 1.06 0.71 0.55
0.21 0.23 0.25 0.24 0.27 0.32 0.38 0.38 0.37 0.39 0.52 0.58 0.64 0.53 0.40 0.47 0.59 0.41 0.29 0.30 0.31 0.35 0.40 0.52 0.70 0.71 0.37 0.10 0.06 0.27 0.25 0.50 0.67 0.82 0.83 0.62 0.63 0.80 0.72 0.35 0.28 0.64 0.97 1.18 1.34 1.21 0.74
0.22 0.27 0.26 0.26 0.30 0.31 0.31 0.34 0.39 0.44 0.55 0.62 0.69 0.50 0.44 0.58 0.46 0.38 0.26 0.28 0.30 0.38 0.46 0.52 0.83 0.77 0.30 0.03 0.04 0.27 0.24 0.51 0.77 1.09 1.09 0.95 0.53 0.56 0.89 0.55 0.52 0.67 1.41 1.25 1.53 1.64 1.03
0.31 0.29 0.29 0.25 0.27 0.32 0.37 0.42 0.43 0.44 0.55 0.69 0.65 0.50 0.53 0.46 0.44 0.43 0.33 0.45 0.45 0.45 0.58 0.73 0.80 0.59 0.22 0.16 0.14 0.47 0.25 0.53 1.01 1.41 1.77 1.49 0.90 0.76 0.90 0.93 0.63 0.65 0.97 0.85 0.99 1.30 1.40
0.29 0.26 0.22 0.30 0.45 0.55 0.64 0.61 0.52 0.50 0.61 0.65 0.61 0.53 0.48 0.45 0.54 0.75 0.84 0.86 0.85 0.54 0.85 1.10 0.84 0.70 0.17 0.49 0.51 0.62 0.20 0.68 1.37 1.88 2.59 2.59 1.45 1.00 0.89 0.75 0.45 0.40 0.54 0.55 0.66 0.92 1.32
0.20 0.25 0.31 0.41 0.63 0.95 0.93 0.75 0.59 0.52 0.62 0.67 0.61 0.53 0.56 0.68 0.82 1.20 1.07 1.47 1.64 1.13 1.00 0.91 0.58 0.34 0.29 0.70 1.04 0.59 0.31 1.13 1.88 2.66 2.51 2.09 1.21 0.73 0.70 0.38 0.18 0.08 0.13 0.45 0.50 0.66 0.95
0.23 0.27 0.40 0.63 0.95 1.10 0.84 0.71 0.56 0.62 0.68 0.66 0.57 0.59 0.69 0.84 1.01 1.39 1.29 1.28 1.31 1.08 0.68 0.50 0.36 0.21 0.11 0.34 0.81 0.64 0.72 1.84 2.36 2.61 1.74 1.23 0.60 0.24 0.62 0.53 0.28 0.12 0.18 0.35 0.77 0.54 0.68
0.24 0.33 0.62 0.87 1.20 0.90 0.81 0.60 0.62 0.72 0.74 0.69 0.68 0.71 0.78 0.79 0.96 1.26 0.96 0.98 0.92 0.95 0.79 0.56 0.67 0.36 0.35 0.54 0.60 0.99 1.26 2.34 2.04 1.87 1.11 0.72 0.44 0.28 0.59 0.67 0.27 0.07 0.07 0.22 0.43 0.47 0.48
0.28 0.42 0.67 1.06 0.93 0.83 0.66 0.63 0.82 0.94 0.88 0.93 0.79 0.80 0.84 1.06 1.54 0.94 0.64 0.50 1.06 1.16 0.91 0.91 1.04 0.83 0.57 0.77 1.02 1.04 1.28 1.84 2.00 1.91 1.25 0.97 0.47 0.33 0.54 0.45 0.25 0.11 0.05 0.19 0.20 0.76 0.65
0.41 0.58 0.91 1.06 0.73 0.66 0.59 0.73 0.90 0.97 0.92 0.84 0.90 0.88 1.02 1.42 1.51 0.84 0.58 0.49 1.39 1.42 1.37 1.28 1.21 0.68 0.72 0.83 0.68 0.90 1.27 1.45 1.26 1.37 1.22 1.09 0.59 0.39 0.55 0.36 0.31 0.14 0.05 0.17 0.15 0.85 0.97
0.59 0.77 1.10 0.88 0.79 0.65 0.62 0.70 0.78 0.80 0.84 0.99 1.13 1.17 1.48 1.19 1.00 0.74 0.74 0.94 1.56 1.66 1.63 1.34 1.09 0.97 0.77 0.43 0.26 0.65 1.19 1.11 0.94 1.17 1.18 0.67 0.52 0.83 0.75 0.40 0.18 0.09 0.15 0.19 0.25 0.56 1.08
0.77 0.96 0.92 0.76 0.58 0.59 0.80 0.86 0.83 0.87 1.03 1.12 1.20 1.50 1.57 1.23 0.87 0.90 1.33 1.55 1.56 1.26 1.01 0.81 0.78 0.35 0.19 0.22 0.26 0.74 1.05 0.97 1.20 1.97 1.93 1.47 1.16 1.01 0.69 0.54 0.27 0.14 0.43 0.96 0.80 0.96 0.59
0.83 0.86 0.78 0.66 0.63 0.84 0.94 0.94 0.98 1.11 1.14 1.07 1.56 1.45 1.33 0.95 0.81 1.30 1.87 1.50 1.07 0.93 0.67 0.42 0.13 0.10 0.12 0.11 0.25 0.48 0.82 0.83 0.65 0.75 0.95 1.37 1.14 0.80 0.53 0.38 0.44 0.27 0.31 0.67 0.53 0.36 0.27
0.80 0.77 0.75 0.67 0.85 0.93 0.96 0.98 0.92 1.03 1.22 1.56 1.89 1.80 1.64 1.22 1.06 1.37 1.74 1.24 1.38 0.79 0.47 0.19 0.13 0.18 0.15 0.08 0.15 0.38 0.68 0.43 0.14 0.14 0.36 0.47 0.44 0.35 0.36 0.13 0.37 0.41 0.30 0.19 0.51 0.26 0.35
0.70 0.77 0.73 0.68 0.78 0.97 1.01 1.04 1.13 1.48 1.77 1.97 2.28 2.58 1.75 1.02 1.18 1.64 1.47 1.14 0.77 0.24 0.05 0.04 0.16 0.10 0.06 0.04 0.11 0.18 0.30 0.09 0.06 0.01 0.02 0.08 0.32 0.25 0.29 0.32 0.33 0.34 0.13 0.39 1.03 0.73 0.32
0.62 0.74 0.68 0.75 0.87 1.06 1.24 1.42 1.75 2.16 2.32 2.81 2.19 2.91 2.01 1.18 1.77 1.97 1.33 1.01 0.41 0.07 0.03 0.06 0.05 0.05 0.01 0.02 0.03 0.03 0.04 0.03 0.00 0.00 0.01 0.07 0.15 0.23 0.46 0.40 0.24 0.34 0.44 0.30 0.50 0.45 0.36
0.68 0.71 0.76 0.88 1.02 1.18 1.48 1.53 1.62 2.09 2.52 3.24 3.02 2.48 2.30 1.82 2.25 1.44 0.73 0.65 0.34 0.12 0.05 0.10 0.10 0.04 0.01 0.01 0.01 0.01 0.01 0.02 0.00 0.00 0.01 0.01 0.18 0.27 0.20 0.08 0.08 0.16 0.22 0.18 0.51 0.46 0.32
0.59 0.64 0.77 0.90 1.08 1.15 1.30 1.21 1.20 1.77 2.40 2.74 2.59 2.41 2.79 1.54 0.97 0.60 0.60 0.29 0.22 0.16 0.10 0.13 0.09 0.04 0.01 0.01 0.01 0.01 0.00 0.00 0.00 0.00 0.00 0.05 0.30 0.41 0.37 0.35 0.35 0.32 0.25 0.36 0.39 0.79 0.69
0.68 0.72 0.88 0.98 1.18 1.28 1.29 1.09 1.04 1.54 1.95 2.61 2.20 2.60 3.24 2.26 0.55 0.23 0.31 0.26 0.21 0.09 0.07 0.12 0.14 0.08 0.04 0.02 0.00 0.00 0.00 0.00 0.00 0.00 0.02 0.20 0.40 0.59 0.60 0.52 0.71 0.51 0.28 0.50 0.96 1.19 0.38
0.64 0.79 0.96 1.11 1.18 1.34 1.41 1.45 1.69 1.98 2.11 2.49 1.72 1.19 0.90 1.03 0.46 0.18 0.24 0.22 0.14 0.14 0.11 0.15 0.13 0.09 0.06 0.04 0.01 0.00 0.00 0.01 0.01 0.02 0.13 0.45 0.81 0.91 0.42 0.32 0.62 0.60 0.30 0.42 0.97 0.54 0.45
0.67 0.73 0.88 0.94 0.99 1.04 1.10 1.18 1.56 2.32 2.55 2.08 1.35 0.69 0.31 0.19 0.16 0.14 0.15 0.14 0.10 0.13 0.16 0.15 0.09 0.04 0.05 0.05 0.02 0.01 0.00 0.00 0.01 0.02 0.12 0.33 0.74 0.74 0.46 0.33 0.34 0.33 0.13 0.24 0.54 0.38 0.25
0.67 0.72 0.84 0.93 0.94 1.00 1.02 1.08 1.36 2.12 2.76 2.15 1.32 0.77 0.36 0.31 0.17 0.15 0.08 0.03 0.02 0.11 0.09 0.05 0.06 0.09 0.06 0.04 0.03 0.02 0.01 0.02 0.01 0.02 0.11 0.34 0.50 0.79 0.67 0.40 0.38 0.32 0.08 0.17 0.38 0.32 0.16
0.93 1.10 1.36 1.56 1.62 1.69 1.93 1.83 1.59 1.82 2.36 2.04 1.21 0.77 0.33 0.19 0.08 0.04 0.01 0.01 0.01 0.07 0.10 0.06 0.03 0.08 0.05 0.04 0.05 0.06 0.02 0.02 0.02 0.01 0.03 0.18 0.39 0.74 0.95 0.76 0.75 0.44 0.13 0.16 0.17 0.16 0.10
0.96 1.05 1.15 1.22 1.27 1.35 1.52 1.73 1.82 1.72 1.50 1.27 0.86 0.55 0.27 0.13 0.04 0.04 0.03 0.02 0.03 0.06 0.09 0.13 0.08 0.02 0.05 0.09 0.18 0.22 0.22 0.07 0.00 0.01 0.01 0.05 0.21 0.41 0.44 0.35 0.17 0.11 0.13 0.11 0.08 0.10 0.03
0.70 0.74 0.69 0.68 0.76 0.84 0.83 0.81 1.04 1.15 1.12 0.91 0.78 0.66 0.21 0.08 0.04 0.02 0.03 0.02 0.08 0.16 0.14 0.11 0.11 0.09 0.13 0.25 0.40 0.27 0.13 0.05 0.02 0.01 0.00 0.01 0.06 0.25 0.19 0.19 0.08 0.03 0.02 0.02 0.03 0.03 0.00
0.62 0.57 0.50 0.55 0.68 0.77 0.67 0.62 0.80 0.86 0.71 0.63 0.67 0.50 0.19 0.07 0.01 0.01 0.02 0.02 0.04 0.16 0.20 0.20 0.17 0.23 0.23 0.38 0.39 0.18 0.04 0.00 0.00 0.01 0.03 0.07 0.11 0.16 0.16 0.15 0.01 0.00 0.00 0.01 0.08 0.07 0.00
1.14 0.95 0.95 0.93 1.05 1.03 0.86 0.74 0.87 0.68 0.58 0.50 0.43 0.41 0.24 0.06 0.01 0.01 0.00 0.01 0.06 0.12 0.22 0.25 0.36 0.36 0.44 0.44 0.34 0.15 0.03 0.01 0.00 0.00 0.00 0.03 0.06 0.09 0.09 0.12 0.01 0.00 0.00 0.03 0.02 0.00 0.01
1.13 1.17 1.36 1.44 1.40 1.42 1.13 0.83 0.93 0.68 0.47 0.41 0.31 0.31 0.22 0.08 0.02 0.00 0.00 0.00 0.03 0.09 0.22 0.24 0.37 0.30 0.32 0.43 0.21 0.12 0.04 0.01 0.00 0.01 0.00 0.00 0.00 0.01 0.00 0.00 0.00 0.00 0.00 0.00 0.00 0.00 0.00

GFSGBSN_prec_precacc_102.txt.gz
Total_Precipitation_Accumulation
0.24 0.25 0.23 0.24 0.25 0.25 0.31 0.39 0.36 0.31 0.31 0.43 0.53 0.56 0.56 0.51 0.59 0.62 0.47 0.42 0.44 0.51 0.58 0.78 0.91 0.79 0.72 0.60 0.19 0.18 0.15 0.35 0.74 1.04 0.55 0.46 0.52 0.42 0.36 0.15 0.65 0.80 0.55 0.46 0.62 0.53 0.29
0.27 0.27 0.25 0.28 0.30 0.33 0.42 0.45 0.38 0.31 0.41 0.54 0.60 0.59 0.56 0.52 0.59 0.45 0.31 0.33 0.35 0.41 0.48 0.66 0.80 0.95 0.59 0.32 0.04 0.11 0.18 0.36 0.61 0.93 0.67 0.48 0.65 0.47 0.41 0.25 0.46 0.65 0.67 0.65 1.06 0.71 0.55
0.25 0.27 0.31 0.33 0.37 0.46 0.54 0.56 0.46 0.48 0.59 0.62 0.65 0.53 0.40 0.47 0.60 0.41 0.29 0.30 0.31 0.35 0.40 0.58 0.80 0.86 0.53 0.17 0.06 0.27 0.25 0.50 0.67 0.82 0.83 0.62 0.63 0.80 0.72 0.35 0.28 0.64 0.97 1.18 1.34 1.21 0.74
0.26 0.33 0.35 0.38 0.43 0.48 0.51 0.63 0.81 0.75 0.74 0.68 0.72 0.51 0.45 0.59 0.46 0.38 0.26 0.28 0.30 0.38 0.47 0.59 0.89 0.88 0.43 0.08 0.04 0.27 0.24 0.51 0.77 1.09 1.09 0.95 0.53 0.56 0.90 0.55 0.52 0.67 1.41 1.25 1.53 1.64 1.03
0.35 0.35 0.36 0.33 0.39 0.51 0.70 1.08 1.04 0.74 0.74 0.77 0.69 0.50 0.54 0.47 0.44 0.43 0.33 0.45 0.46 0.48 0.67 0.80 0.84 0.64 0.35 0.21 0.15 0.47 0.25 0.53 1.01 1.41 1.77 1.49 0.90 0.77 0.90 0.93 0.63 0.65 0.97 0.85 0.99 1.30 1.40
0.33 0.30 0.26 0.34 0.48 0.67 0.98 1.04 0.92 0.76 0.71 0.69 0.63 0.54 0.49 0.46 0.54 0.75 0.85 0.86 0.99 0.71 0.95 1.21 0.92 0.81 0.24 0.53 0.51 0.62 0.20 0.68 1.37 1.88 2.59 2.60 1.46 1.01 0.90 0.75 0.46 0.40 0.55 0.55 0.66 0.92 1.32
0.24 0.27 0.33 0.43 0.65 0.99 0.99 0.93 0.83 0.63 0.68 0.68 0.63 0.55 0.57 0.70 0.83 1.20 1.07 1.50 1.89 1.43 1.13 1.07 0.69 0.39 0.31 0.70 1.04 0.59 0.31 1.13 1.88 2.67 2.51 2.09 1.21 0.74 0.70 0.38 0.18 0.08 0.13 0.45 0.50 0.66 0.95
0.24 0.27 0.41 0.64 0.96 1.11 0.87 0.79 0.65 0.69 0.73 0.68 0.59 0.60 0.70 0.86 1.02 1.39 1.29 1.31 1.56 1.36 0.80 0.61 0.56 0.24 0.11 0.34 0.81 0.64 0.72 1.84 2.36 2.61 1.74 1.23 0.60 0.24 0.62 0.53 0.28 0.12 0.20 0.36 0.77 0.54 0.69
0.25 0.33 0.63 0.88 1.20 0.91 0.83 0.63 0.65 0.75 0.76 0.70 0.68 0.72 0.81 0.80 0.96 1.26 0.96 1.03 1.01 1.10 0.88 0.67 0.85 0.38 0.35 0.54 0.60 0.99 1.26 2.34 2.04 1.87 1.12 0.73 0.44 0.28 0.59 0.67 0.28 0.08 0.09 0.22 0.43 0.47 0.48
0.29 0.42 0.67 1.06 0.94 0.84 0.69 0.66 0.85 0.95 0.89 0.94 0.79 0.81 0.85 1.06 1.54 0.94 0.65 0.51 1.12 1.27 1.04 1.21 1.37 0.91 0.57 0.77 1.02 1.04 1.28 1.85 2.01 1.91 1.26 0.97 0.47 0.33 0.54 0.45 0.26 0.13 0.05 0.20 0.22 0.79 0.68
0.42 0.58 0.91 1.07 0.74 0.68 0.62 0.77 0.94 0.99 0.94 0.84 0.90 0.88 1.02 1.42 1.51 0.84 0.59 0.50 1.48 1.48 1.47 1.43 1.32 0.73 0.73 0.83 0.69 0.90 1.27 1.46 1.26 1.37 1.23 1.09 0.60 0.40 0.56 0.36 0.31 0.15 0.06 0.17 0.15 0.88 1.01
0.60 0.77 1.10 0.88 0.79 0.66 0.65 0.75 0.83 0.85 0.89 1.00 1.13 1.17 1.48 1.19 1.00 0.74 0.74 0.95 1.59 1.70 1.72 1.38 1.10 0.97 0.78 0.44 0.27 0.66 1.19 1.11 0.95 1.17 1.18 0.67 0.53 0.83 0.75 0.40 0.18 0.09 0.15 0.19 0.25 0.58 1.17
0.77 0.96 0.92 0.76 0.58 0.59 0.82 0.90 0.88 0.92 1.06 1.13 1.20 1.50 1.57 1.23 0.87 0.90 1.33 1.55 1.57 1.29 1.05 0.83 0.80 0.36 0.19 0.23 0.28 0.74 1.05 0.98 1.21 1.98 1.94 1.48 1.16 1.01 0.69 0.54 0.27 0.14 0.44 0.99 0.87 1.08 0.67
0.83 0.86 0.78 0.67 0.64 0.84 0.96 0.98 1.03 1.13 1.14 1.07 1.56 1.45 1.33 0.95 0.81 1.30 1.87 1.50 1.14 1.00 0.69 0.43 0.14 0.10 0.12 0.11 0.25 0.48 0.84 0.84 0.66 0.76 0.98 1.39 1.16 0.81 0.53 0.38 0.44 0.27 0.37 0.80 0.61 0.50 0.37
0.80 0.77 0.75 0.67 0.85 0.94 0.98 1.01 0.96 1.05 1.22 1.56 1.89 1.80 1.64 1.22 1.06 1.37 1.74 1.26 1.44 0.82 0.48 0.19 0.15 0.20 0.16 0.08 0.15 0.39 0.71 0.50 0.15 0.14 0.38 0.53 0.46 0.35 0.36 0.14 0.37 0.43 0.36 0.25 0.59 0.41 0.42
0.70 0.77 0.73 0.68 0.78 0.97 1.01 1.05 1.14 1.50 1.78 1.97 2.28 2.58 1.75 1.02 1.18 1.64 1.47 1.15 0.78 0.24 0.05 0.04 0.16 0.10 0.06 0.05 0.14 0.21 0.33 0.12 0.06 0.01 0.05 0.11 0.33 0.25 0.29 0.32 0.33 0.35 0.15 0.44 1.06 0.77 0.42
0.62 0.74 0.68 0.75 0.87 1.06 1.24 1.42 1.75 2.16 2.32 2.81 2.19 2.91 2.01 1.18 1.77 1.97 1.33 1.01 0.41 0.07 0.03 0.06 0.05 0.05 0.01 0.02 0.03 0.03 0.04 0.03 0.00 0.00 0.02 0.08 0.15 0.23 0.46 0.40 0.24 0.34 0.46 0.32 0.50 0.46 0.38
0.68 0.71 0.76 0.88 1.02 1.18 1.48 1.53 1.62 2.09 2.52 3.24 3.02 2.48 2.30 1.82 2.25 1.44 0.73 0.65 0.34 0.12 0.05 0.10 0.10 0.04 0.01 0.01 0.01 0.01 0.01 0.02 0.00 0.00 0.01 0.01 0.18 0.27 0.20 0.08 0.08 0.16 0.22 0.19 0.52 0.46 0.32
0.59 0.64 0.77 0.90 1.08 1.15 1.30 1.21 1.20 1.77 2.40 2.74 2.59 2.41 2.79 1.54 0.97 0.60 0.60 0.29 0.22 0.16 0.10 0.13 0.09 0.04 0.01 0.01 0.01 0.01 0.00 0.00 0.00 0.00 0.00 0.05 0.30 0.41 0.37 0.35 0.35 0.32 0.25 0.36 0.39 0.79 0.69
0.68 0.72 0.88 0.98 1.18 1.28 1.29 1.09 1.04 1.54 1.95 2.61 2.20 2.60 3.24 2.26 0.55 0.23 0.31 0.26 0.21 0.09 0.07 0.12 0.14 0.08 0.04 0.02 0.00 0.00 0.00 0.00 0.00 0.00 0.02 0.20 0.40 0.59 0.60 0.52 0.71 0.51 0.28 0.50 0.96 1.19 0.38
0.64 0.79 0.96 1.11 1.18 1.34 1.41 1.46 1.69 1.98 2.11 2.49 1.72 1.19 0.90 1.03 0.46 0.18 0.24 0.22 0.14 0.14 0.11 0.15 0.13 0.09 0.06 0.04 0.01 0.00 0.00 0.01 0.01 0.02 0.13 0.45 0.81 0.91 0.42 0.32 0.62 0.60 0.30 0.42 0.97 0.54 0.45
0.67 0.73 0.88 0.94 0.99 1.04 1.10 1.18 1.56 2.32 2.55 2.08 1.35 0.69 0.31 0.19 0.16 0.14 0.15 0.14 0.10 0.13 0.16 0.15 0.09 0.04 0.05 0.05 0.02 0.01 0.00 0.00 0.01 0.02 0.12 0.33 0.74 0.74 0.46 0.33 0.34 0.33 0.13 0.24 0.54 0.38 0.25
0.67 0.72 0.84 0.93 0.94 1.00 1.02 1.08 1.36 2.12 2.76 2.15 1.32 0.77 0.36 0.31 0.17 0.15 0.08 0.03 0.02 0.11 0.09 0.05 0.06 0.09 0.06 0.04 0.03 0.02 0.01 0.02 0.01 0.02 0.11 0.34 0.50 0.79 0.67 0.40 0.38 0.32 0.08 0.17 0.38 0.32 0.16
0.93 1.10 1.36 1.56 1.62 1.69 1.93 1.84 1.59 1.82 2.36 2.04 1.21 0.77 0.33 0.19 0.08 0.04 0.01 0.01 0.01 0.07 0.10 0.06 0.03 0.08 0.05 0.04 0.05 0.06 0.02 0.02 0.02 0.01 0.03 0.18 0.39 0.74 0.95 0.76 0.75 0.44 0.13 0.16 0.17 0.16 0.10
0.96 1.05 1.15 1.22 1.27 1.35 1.52 1.73 1.83 1.72 1.50 1.27 0.86 0.55 0.27 0.13 0.04 0.04 0.03 0.02 0.03 0.06 0.09 0.13 0.08 0.02 0.05 0.09 0.18 0.22 0.22 0.07 0.00 0.01 0.01 0.05 0.21 0.41 0.44 0.35 0.17 0.11 0.13 0.11 0.08 0.10 0.03
0.70 0.74 0.69 0.68 0.76 0.84 0.83 0.81 1.04 1.15 1.12 0.91 0.78 0.66 0.21 0.08 0.04 0.02 0.03 0.02 0.08 0.16 0.14 0.11 0.11 0.09 0.13 0.25 0.40 0.27 0.13 0.05 0.02 0.01 0.00 0.01 0.06 0.25 0.19 0.19 0.08 0.03 0.02 0.02 0.03 0.03 0.00
0.62 0.57 0.50 0.55 0.68 0.77 0.67 0.62 0.80 0.86 0.71 0.63 0.67 0.50 0.19 0.07 0.01 0.01 0.02 0.02 0.04 0.16 0.20 0.20 0.17 0.23 0.23 0.38 0.39 0.18 0.04 0.00 0.00 0.01 0.03 0.07 0.11 0.16 0.16 0.15 0.01 0.00 0.00 0.01 0.08 0.07 0.00
1.14 0.95 0.95 0.93 1.05 1.03 0.86 0.74 0.87 0.68 0.58 0.50 0.43 0.41 0.24 0.06 0.01 0.01 0.00 0.01 0.06 0.12 0.22 0.25 0.36 0.36 0.44 0.44 0.34 0.15 0.03 0.01 0.00 0.00 0.00 0.03 0.06 0.09 0.09 0.12 0.01 0.00 0.00 0.03 0.02 0.00 0.01
1.13 1.17 1.36 1.44 1.40 1.42 1.13 0.83 0.93 0.68 0.47 0.41 0.31 0.31 0.22 0.08 0.02 0.00 0.00 0.00 0.03 0.09 0.22 0.24 0.37 0.30 0.32 0.43 0.21 0.12 0.04 0.01 0.00 0.01 0.00 0.00 0.00 0.01 0.00 0.00 0.00 0.00 0.00 0.00 0.00 0.00 0.00

GFSGBSN_prec_precacc_105.txt.gz
Total_Precipitation_Accumulation
0.29 0.30 0.29 0.33 0.37 0.40 0.52 0.66 0.60 0.54 0.50 0.55 0.60 0.58 0.57 0.52 0.59 0.62 0.48 0.42 0.44 0.51 0.58 0.78 0.99 1.05 0.89 0.68 0.20 0.18 0.15 0.35 0.74 1.04 0.55 0.46 0.52 0.42 0.36 0.15 0.65 0.80 0.55 0.46 0.62 0.53 0.29
0.31 0.31 0.29 0.35 0.41 0.46 0.59 0.67 0.62 0.60 0.75 0.83 0.75 0.62 0.56 0.52 0.59 0.45 0.32 0.33 0.35 0.41 0.48 0.66 1.13 1.14 0.76 0.51 0.11 0.11 0.18 0.36 0.61 0.93 0.67 0.48 0.65 0.47 0.41 0.25 0.46 0.65 0.67 0.65 1.06 0.71 0.55
0.28 0.30 0.35 0.37 0.41 0.48 0.57 0.63 0.69 1.01 1.36 1.20 0.98 0.62 0.41 0.47 0.60 0.41 0.29 0.30 0.31 0.35 0.40 0.58 0.99 0.92 0.61 0.34 0.11 0.33 0.26 0.50 0.67 0.82 0.83 0.62 0.63 0.80 0.72 0.35 0.28 0.64 0.97 1.18 1.34 1.21 0.74
0.28 0.34 0.36 0.38 0.43 0.49 0.53 0.68 1.22 1.38 1.24 1.11 1.00 0.64 0.46 0.59 0.46 0.38 0.26 0.28 0.30 0.38 0.47 0.62 0.99 0.89 0.46 0.13 0.13 0.37 0.27 0.51 0.77 1.09 1.09 0.95 0.53 0.56 0.90 0.55 0.52 0.67 1.41 1.25 1.53 1.64 1.03
0.35 0.35 0.36 0.33 0.39 0.52 0.72 1.14 1.22 0.94 1.01 0.99 0.82 0.58 0.55 0.47 0.44 0.43 0.33 0.45 0.46 0.48 0.70 0.90 0.92 0.66 0.37 0.23 0.19 0.50 0.25 0.53 1.01 1.41 1.77 1.49 0.90 0.77 0.90 0.93 0.63 0.65 0.97 0.85 0.99 1.30 1.40
0.33 0.30 0.26 0.34 0.49 0.68 1.00 1.06 0.97 0.82 0.77 0.74 0.66 0.55 0.49 0.46 0.54 0.75 0.85 0.86 1.00 0.78 1.06 1.27 0.96 0.85 0.26 0.55 0.57 0.63 0.20 0.68 1.37 1.88 2.59 2.60 1.46 1.01 0.90 0.75 0.46 0.40 0.55 0.55 0.66 0.92 1.32
0.24 0.27 0.33 0.44 0.65 1.00 1.01 0.95 0.84 0.65 0.70 0.70 0.64 0.55 0.57 0.70 0.83 1.20 1.07 1.50 1.94 1.57 1.25 1.12 0.71 0.41 0.31 0.71 1.05 0.59 0.31 1.13 1.88 2.67 2.51 2.10 1.21 0.74 0.70 0.38 0.18 0.08 0.13 0.45 0.50 0.66 0.95
0.24 0.27 0.41 0.64 0.97 1.12 0.89 0.81 0.66 0.70 0.74 0.70 0.60 0.60 0.70 0.86 1.02 1.39 1.29 1.31 1.64 1.49 0.96 0.65 0.59 0.27 0.14 0.34 0.81 0.64 0.72 1.84 2.36 2.61 1.74 1.23 0.60 0.24 0.62 0.53 0.28 0.12 0.20 0.36 0.77 0.54 0.69
0.25 0.33 0.63 0.88 1.20 0.92 0.86 0.65 0.67 0.75 0.77 0.70 0.68 0.72 0.81 0.80 0.96 1.26 0.96 1.04 1.05 1.19 0.94 0.80 1.02 0.48 0.37 0.55 0.60 0.99 1.26 2.34 2.04 1.87 1.12 0.73 0.44 0.28 0.59 0.67 0.28 0.08 0.09 0.22 0.43 0.47 0.48
0.29 0.42 0.67 1.06 0.94 0.84 0.71 0.71 0.89 0.97 0.90 0.94 0.79 0.81 0.85 1.06 1.54 0.94 0.65 0.52 1.15 1.33 1.11 1.38 1.53 1.04 0.60 0.78 1.03 1.04 1.28 1.85 2.02 1.92 1.26 0.97 0.47 0.33 0.54 0.45 0.26 0.13 0.05 0.20 0.22 0.81 0.70
0.42 0.58 0.91 1.07 0.74 0.68 0.63 0.81 0.97 1.01 0.95 0.84 0.90 0.88 1.02 1.42 1.51 0.84 0.59 0.52 1.54 1.58 1.66 1.72 1.53 0.82 0.77 0.84 0.69 0.90 1.27 1.47 1.27 1.37 1.23 1.09 0.60 0.41 0.56 0.36 0.31 0.15 0.06 0.18 0.16 0.88 1.05
0.60 0.77 1.10 0.88 0.79 0.66 0.66 0.77 0.84 0.85 0.89 1.00 1.13 1.17 1.48 1.19 1.00 0.74 0.74 0.98 1.67 1.71 1.80 1.48 1.22 1.02 0.78 0.45 0.28 0.66 1.20 1.11 0.95 1.17 1.18 0.67 0.53 0.84 0.75 0.40 0.18 0.09 0.15 0.19 0.25 0.61 1.25
0.77 0.96 0.92 0.76 0.58 0.60 0.82 0.91 0.89 0.92 1.06 1.13 1.21 1.50 1.57 1.23 0.87 0.90 1.33 1.55 1.57 1.31 1.07 0.83 0.82 0.36 0.19 0.25 0.29 0.74 1.06 0.98 1.21 1.99 1.94 1.48 1.16 1.01 0.69 0.54 0.27 0.14 0.45 1.01 0.88 1.12 0.72
0.83 0.86 0.78 0.67 0.64 0.85 0.97 0.98 1.03 1.13 1.14 1.07 1.56 1.45 1.33 0.95 0.81 1.30 1.87 1.50 1.17 1.04 0.70 0.45 0.14 0.10 0.13 0.12 0.25 0.48 0.86 0.86 0.66 0.77 1.00 1.40 1.17 0.81 0.53 0.38 0.44 0.28 0.41 0.89 0.66 0.58 0.47
0.80 0.77 0.75 0.67 0.86 0.94 0.98 1.01 0.96 1.05 1.22 1.56 1.89 1.80 1.64 1.22 1.06 1.37 1.74 1.27 1.47 0.83 0.49 0.19 0.15 0.20 0.16 0.09 0.17 0.41 0.76 0.52 0.15 0.14 0.39 0.55 0.46 0.35 0.36 0.14 0.37 0.44 0.42 0.30 0.67 0.48 0.52
0.70 0.77 0.73 0.68 0.78 0.98 1.02 1.05 1.14 1.50 1.78 1.97 2.28 2.58 1.75 1.02 1.18 1.64 1.47 1.16 0.78 0.25 0.05 0.04 0.16 0.10 0.06 0.05 0.14 0.21 0.34 0.13 0.06 0.01 0.07 0.11 0.33 0.25 0.29 0.32 0.33 0.36 0.19 0.49 1.09 0.80 0.49
0.62 0.74 0.68 0.75 0.88 1.07 1.25 1.42 1.75 2.16 2.32 2.81 2.19 2.91 2.01 1.18 1.77 1.97 1.33 1.01 0.41 0.07 0.03 0.06 0.05 0.05 0.01 0.02 0.03 0.03 0.04 0.03 0.00 0.00 0.02 0.08 0.15 0.23 0.46 0.40 0.24 0.34 0.49 0.35 0.52 0.47 0.43
0.68 0.71 0.76 0.88 1.02 1.18 1.48 1.53 1.62 2.09 2.52 3.24 3.02 2.48 2.30 1.82 2.25 1.44 0.73 0.65 0.34 0.12 0.05 0.10 0.10 0.04 0.01 0.01 0.01 0.01 0.01 0.02 0.00 0.00 0.01 0.01 0.18 0.27 0.20 0.08 0.08 0.16 0.22 0.20 0.53 0.46 0.32
0.59 0.64 0.77 0.90 1.08 1.15 1.30 1.21 1.20 1.77 2.40 2.74 2.59 2.41 2.79 1.54 0.97 0.60 0.60 0.29 0.22 0.16 0.10 0.13 0.09 0.04 0.01 0.01 0.01 0.01 0.00 0.00 0.00 0.00 0.00 0.05 0.30 0.41 0.37 0.35 0.35 0.32 0.25 0.36 0.39 0.79 0.69
0.68 0.72 0.88 0.98 1.18 1.28 1.29 1.09 1.04 1.54 1.95 2.61 2.20 2.60 3.24 2.26 0.55 0.23 0.31 0.26 0.21 0.09 0.07 0.12 0.14 0.08 0.04 0.02 0.00 0.00 0.00 0.00 0.00 0.00 0.02 0.20 0.40 0.59 0.60 0.52 0.71 0.51 0.28 0.50 0.96 1.19 0.38
0.64 0.79 0.96 1.11 1.18 1.34 1.41 1.46 1.69 1.98 2.11 2.49 1.72 1.19 0.90 1.03 0.46 0.18 0.24 0.22 0.14 0.14 0.11 0.15 0.13 0.09 0.06 0.04 0.01 0.00 0.00 0.01 0.01 0.02 0.13 0.45 0.81 0.91 0.42 0.32 0.62 0.60 0.30 0.42 0.97 0.54 0.45
0.67 0.73 0.88 0.94 0.99 1.04 1.11 1.18 1.56 2.32 2.55 2.08 1.35 0.69 0.31 0.19 0.16 0.14 0.15 0.14 0.10 0.13 0.16 0.15 0.09 0.04 0.05 0.05 0.02 0.01 0.00 0.00 0.01 0.02 0.12 0.33 0.74 0.74 0.46 0.33 0.34 0.33 0.13 0.24 0.54 0.38 0.25
0.67 0.72 0.84 0.93 0.94 1.00 1.02 1.09 1.37 2.12 2.76 2.15 1.32 0.77 0.36 0.31 0.17 0.15 0.08 0.03 0.02 0.11 0.09 0.05 0.06 0.09 0.06 0.04 0.03 0.02 0.01 0.02 0.01 0.02 0.11 0.34 0.50 0.79 0.67 0.40 0.38 0.32 0.08 0.17 0.38 0.32 0.16
0.93 1.10 1.36 1.56 1.62 1.69 1.94 1.84 1.59 1.82 2.36 2.04 1.21 0.77 0.33 0.19 0.08 0.04 0.01 0.01 0.01 0.07 0.10 0.06 0.03 0.08 0.05 0.04 0.05 0.06 0.02 0.02 0.02 0.01 0.03 0.18 0.39 0.74 0.95 0.76 0.75 0.44 0.13 0.16 0.17 0.16 0.10
0.96 1.05 1.15 1.22 1.27 1.36 1.52 1.73 1.83 1.72 1.50 1.27 0.86 0.55 0.27 0.13 0.04 0.04 0.03 0.02 0.03 0.06 0.09 0.13 0.08 0.02 0.05 0.09 0.18 0.22 0.22 0.07 0.00 0.01 0.01 0.05 0.21 0.41 0.44 0.35 0.17 0.11 0.13 0.11 0.08 0.10 0.03
0.70 0.74 0.69 0.68 0.76 0.85 0.83 0.81 1.04 1.15 1.12 0.91 0.78 0.66 0.21 0.08 0.04 0.02 0.03 0.02 0.08 0.16 0.14 0.11 0.11 0.09 0.13 0.25 0.40 0.27 0.13 0.05 0.02 0.01 0.00 0.01 0.06 0.25 0.19 0.19 0.08 0.03 0.02 0.02 0.03 0.03 0.00
0.62 0.57 0.50 0.55 0.68 0.77 0.67 0.62 0.80 0.86 0.71 0.63 0.67 0.50 0.19 0.07 0.01 0.01 0.02 0.02 0.04 0.16 0.20 0.20 0.17 0.23 0.23 0.38 0.39 0.18 0.04 0.00 0.00 0.01 0.03 0.07 0.11 0.16 0.16 0.15 0.01 0.00 0.00 0.01 0.08 0.07 0.00
1.14 0.95 0.95 0.93 1.05 1.03 0.86 0.74 0.87 0.68 0.58 0.50 0.43 0.41 0.24 0.06 0.01 0.01 0.00 0.01 0.06 0.12 0.22 0.25 0.36 0.36 0.44 0.44 0.34 0.15 0.03 0.01 0.00 0.00 0.00 0.03 0.06 0.09 0.09 0.12 0.01 0.00 0.00 0.03 0.02 0.00 0.01
1.14 1.17 1.36 1.44 1.40 1.42 1.13 0.83 0.93 0.68 0.47 0.41 0.31 0.31 0.22 0.08 0.02 0.00 0.00 0.00 0.03 0.09 0.22 0.24 0.37 0.30 0.32 0.43 0.21 0.12 0.04 0.01 0.00 0.01 0.00 0.00 0.00 0.01 0.00 0.00 0.00 0.00 0.00 0.00 0.00 0.00 0.00

GFSGBSN_prec_precacc_108.txt.gz
Total_Precipitation_Accumulation
0.31 0.31 0.29 0.34 0.37 0.41 0.53 0.68 0.62 0.58 0.62 0.80 1.01 1.09 0.73 0.53 0.60 0.62 0.48 0.42 0.44 0.51 0.58 0.78 1.00 1.12 0.97 0.93 0.41 0.19 0.15 0.38 0.74 1.04 0.55 0.46 0.52 0.42 0.36 0.15 0.65 0.80 0.55 0.46 0.62 0.53 0.29
0.31 0.31 0.30 0.35 0.41 0.46 0.60 0.68 0.65 0.69 1.08 1.72 1.53 1.13 0.67 0.52 0.59 0.45 0.32 0.33 0.35 0.41 0.48 0.66 1.15 1.19 0.81 0.68 0.26 0.23 0.23 0.38 0.61 0.93 0.67 0.48 0.65 0.47 0.41 0.25 0.46 0.65 0.67 0.65 1.06 0.71 0.55
0.28 0.30 0.35 0.38 0.41 0.49 0.58 0.64 0.72 1.17 1.84 1.80 1.45 1.00 0.45 0.48 0.60 0.41 0.29 0.30 0.31 0.35 0.40 0.58 1.13 0.98 0.64 0.40 0.19 0.54 0.37 0.51 0.67 0.82 0.83 0.62 0.63 0.80 0.72 0.35 0.28 0.64 0.97 1.18 1.34 1.21 0.74
0.28 0.34 0.36 0.39 0.44 0.49 0.54 0.70 1.23 1.43 1.36 1.28 1.18 0.76 0.47 0.59 0.46 0.38 0.26 0.28 0.30 0.38 0.47 0.63 1.05 0.99 0.65 0.23 0.18 0.49 0.35 0.51 0.77 1.09 1.09 0.95 0.53 0.56 0.90 0.55 0.52 0.67 1.41 1.25 1.53 1.64 1.03
0.35 0.36 0.36 0.34 0.40 0.52 0.72 1.15 1.23 0.96 1.03 1.02 0.84 0.59 0.55 0.47 0.44 0.43 0.33 0.45 0.47 0.50 0.72 0.93 0.96 0.68 0.43 0.27 0.21 0.55 0.29 0.53 1.01 1.41 1.77 1.49 0.90 0.77 0.90 0.93 0.63 0.65 0.97 0.85 0.99 1.30 1.40
0.33 0.30 0.26 0.34 0.49 0.68 1.01 1.06 0.98 0.83 0.77 0.74 0.67 0.55 0.49 0.46 0.54 0.75 0.85 0.86 1.00 0.80 1.08 1.29 0.98 0.88 0.27 0.57 0.60 0.65 0.20 0.68 1.37 1.88 2.59 2.60 1.46 1.01 0.90 0.75 0.46 0.40 0.55 0.55 0.66 0.92 1.32
0.24 0.27 0.33 0.44 0.66 1.01 1.01 0.95 0.85 0.66 0.70 0.70 0.64 0.56 0.57 0.70 0.83 1.20 1.07 1.50 1.95 1.59 1.28 1.14 0.73 0.43 0.31 0.71 1.06 0.60 0.31 1.13 1.88 2.67 2.51 2.10 1.21 0.74 0.70 0.38 0.18 0.08 0.13 0.45 0.50 0.66 0.95
0.24 0.28 0.41 0.64 0.97 1.13 0.90 0.82 0.66 0.71 0.75 0.70 0.60 0.61 0.71 0.86 1.02 1.39 1.29 1.31 1.65 1.52 1.05 0.66 0.59 0.28 0.14 0.34 0.81 0.64 0.72 1.84 2.36 2.61 1.74 1.23 0.60 0.24 0.62 0.53 0.28 0.12 0.20 0.36 0.77 0.54 0.69
0.25 0.33 0.64 0.88 1.21 0.93 0.87 0.66 0.67 0.76 0.78 0.71 0.69 0.73 0.81 0.80 0.96 1.26 0.96 1.04 1.06 1.22 0.98 0.83 1.04 0.50 0.38 0.56 0.60 0.99 1.26 2.34 2.04 1.87 1.12 0.73 0.44 0.28 0.59 0.67 0.28 0.08 0.09 0.22 0.43 0.47 0.48
0.29 0.42 0.68 1.07 0.95 0.86 0.72 0.71 0.89 0.97 0.91 0.94 0.79 0.81 0.85 1.06 1.54 0.94 0.65 0.53 1.15 1.33 1.12 1.50 1.62 1.12 0.61 0.78 1.03 1.04 1.28 1.86 2.02 1.92 1.26 0.97 0.47 0.33 0.54 0.45 0.26 0.13 0.05 0.20 0.22 0.81 0.70
0.42 0.58 0.92 1.07 0.75 0.70 0.63 0.81 0.97 1.02 0.95 0.84 0.90 0.88 1.02 1.42 1.51 0.84 0.59 0.53 1.54 1.58 1.69 1.82 1.61 0.86 0.79 0.87 0.71 0.91 1.27 1.48 1.28 1.38 1.23 1.09 0.60 0.41 0.57 0.37 0.31 0.15 0.06 0.18 0.16 0.89 1.07
0.60 0.77 1.10 0.88 0.81 0.68 0.67 0.77 0.84 0.85 0.89 1.00 1.13 1.17 1.48 1.19 1.00 0.74 0.75 1.02 1.69 1.71 1.86 1.56 1.29 1.09 0.85 0.47 0.29 0.67 1.20 1.11 0.95 1.17 1.19 0.67 0.53 0.84 0.76 0.40 0.18 0.09 0.15 0.19 0.25 0.62 1.27
0.77 0.96 0.92 0.76 0.59 0.61 0.84 0.92 0.89 0.92 1.06 1.13 1.21 1.50 1.57 1.23 0.87 0.90 1.33 1.56 1.57 1.32 1.11 0.89 0.90 0.39 0.20 0.26 0.29 0.75 1.06 0.98 1.21 2.00 1.94 1.48 1.16 1.01 0.69 0.54 0.27 0.14 0.46 1.02 0.88 1.13 0.73
0.83 0.86 0.78 0.67 0.64 0.86 0.98 0.99 1.04 1.13 1.14 1.07 1.56 1.45 1.33 0.95 0.81 1.30 1.87 1.50 1.18 1.07 0.72 0.46 0.14 0.11 0.14 0.12 0.26 0.48 0.87 0.87 0.67 0.78 1.01 1.41 1.17 0.81 0.53 0.38 0.44 0.29 0.44 0.94 0.69 0.59 0.49
0.80 0.77 0.75 0.67 0.86 0.94 0.99 1.02 0.97 1.06 1.22 1.56 1.89 1.80 1.64 1.22 1.06 1.37 1.74 1.27 1.48 0.84 0.49 0.19 0.15 0.20 0.16 0.12 0.20 0.43 0.80 0.54 0.16 0.15 0.40 0.57 0.46 0.35 0.36 0.14 0.38 0.45 0.44 0.33 0.73 0.51 0.59
0.70 0.77 0.73 0.68 0.78 0.98 1.02 1.06 1.14 1.50 1.78 1.97 2.28 2.58 1.75 1.02 1.18 1.64 1.47 1.16 0.78 0.25 0.05 0.04 0.16 0.10 0.06 0.05 0.15 0.22 0.36 0.13 0.07 0.02 0.07 0.12 0.33 0.25 0.29 0.32 0.33 0.37 0.22 0.54 1.15 0.84 0.53
0.62 0.74 0.68 0.75 0.88 1.07 1.25 1.42 1.75 2.16 2.32 2.81 2.19 2.91 2.01 1.18 1.77 1.97 1.33 1.01 0.41 0.07 0.03 0.06 0.05 0.05 0.01 0.02 0.03 0.04 0.04 0.03 0.00 0.00 0.02 0.08 0.16 0.23 0.46 0.40 0.24 0.34 0.51 0.40 0.61 0.56 0.50
0.68 0.71 0.76 0.88 1.03 1.18 1.48 1.53 1.62 2.09 2.52 3.24 3.02 2.48 2.30 1.82 2.25 1.44 0.73 0.65 0.34 0.12 0.05 0.10 0.10 0.04 0.01 0.01 0.01 0.01 0.01 0.02 0.00 0.00 0.01 0.01 0.18 0.27 0.20 0.08 0.08 0.16 0.22 0.21 0.59 0.53 0.36
0.59 0.64 0.77 0.90 1.08 1.16 1.30 1.21 1.20 1.77 2.40 2.74 2.59 2.41 2.79 1.54 0.97 0.60 0.60 0.29 0.22 0.16 0.10 0.13 0.09 0.04 0.01 0.01 0.01 0.01 0.00 0.00 0.00 0.00 0.00 0.05 0.30 0.41 0.37 0.35 0.35 0.32 0.25 0.36 0.39 0.80 0.69
0.68 0.72 0.88 0.98 1.18 1.28 1.30 1.10 1.04 1.54 1.95 2.61 2.20 2.60 3.24 2.26 0.55 0.23 0.31 0.26 0.21 0.09 0.07 0.12 0.14 0.08 0.04 0.02 0.00 0.00 0.00 0.00 0.00 0.00 0.02 0.20 0.40 0.59 0.60 0.52 0.71 0.51 0.28 0.50 0.96 1.19 0.39
0.64 0.79 0.96 1.11 1.18 1.34 1.41 1.46 1.69 1.98 2.11 2.49 1.72 1.19 0.90 1.03 0.46 0.18 0.24 0.22 0.14 0.14 0.11 0.15 0.13 0.09 0.06 0.04 0.01 0.00 0.00 0.01 0.01 0.02 0.13 0.45 0.81 0.91 0.42 0.32 0.62 0.60 0.30 0.42 0.97 0.54 0.45
0.67 0.73 0.88 0.94 0.99 1.04 1.11 1.18 1.57 2.32 2.55 2.08 1.35 0.69 0.31 0.19 0.16 0.14 0.15 0.14 0.10 0.13 0.16 0.15 0.09 0.04 0.05 0.05 0.02 0.01 0.00 0.00 0.01 0.02 0.12 0.33 0.74 0.74 0.46 0.33 0.34 0.33 0.13 0.24 0.54 0.38 0.25
0.68 0.72 0.84 0.93 0.94 1.00 1.03 1.09 1.37 2.12 2.76 2.15 1.32 0.77 0.36 0.31 0.17 0.15 0.08 0.03 0.02 0.11 0.09 0.05 0.06 0.09 0.06 0.04 0.03 0.02 0.01 0.02 0.01 0.02 0.11 0.34 0.50 0.79 0.67 0.40 0.38 0.32 0.08 0.17 0.38 0.32 0.16
0.94 1.10 1.36 1.56 1.62 1.69 1.94 1.84 1.59 1.82 2.36 2.04 1.21 0.77 0.33 0.19 0.08 0.04 0.01 0.01 0.01 0.07 0.10 0.06 0.03 0.08 0.05 0.04 0.05 0.06 0.02 0.02 0.02 0.01 0.03 0.18 0.39 0.74 0.95 0.76 0.75 0.44 0.13 0.16 0.17 0.16 0.10
0.97 1.05 1.15 1.22 1.27 1.36 1.52 1.73 1.83 1.72 1.50 1.27 0.86 0.55 0.27 0.13 0.04 0.04 0.03 0.02 0.03 0.06 0.09 0.13 0.08 0.02 0.05 0.09 0.18 0.22 0.22 0.07 0.00 0.01 0.01 0.05 0.21 0.41 0.44 0.35 0.17 0.11 0.13 0.11 0.08 0.10 0.03
0.71 0.74 0.69 0.68 0.76 0.85 0.83 0.81 1.04 1.15 1.12 0.91 0.78 0.66 0.21 0.08 0.04 0.02 0.03 0.02 0.08 0.16 0.14 0.11 0.11 0.09 0.13 0.25 0.40 0.27 0.13 0.05 0.02 0.01 0.00 0.01 0.06 0.25 0.19 0.19 0.08 0.03 0.02 0.02 0.03 0.03 0.00
0.63 0.57 0.50 0.55 0.68 0.77 0.67 0.62 0.80 0.86 0.71 0.63 0.67 0.50 0.19 0.07 0.01 0.01 0.02 0.02 0.04 0.16 0.20 0.20 0.17 0.23 0.23 0.38 0.39 0.18 0.04 0.00 0.00 0.01 0.03 0.07 0.11 0.16 0.16 0.15 0.01 0.00 0.00 0.01 0.08 0.07 0.00
1.15 0.95 0.95 0.93 1.05 1.03 0.86 0.74 0.87 0.68 0.58 0.50 0.43 0.41 0.24 0.06 0.01 0.01 0.00 0.01 0.06 0.12 0.22 0.25 0.36 0.36 0.44 0.44 0.34 0.15 0.03 0.01 0.00 0.00 0.00 0.03 0.06 0.09 0.09 0.12 0.01 0.00 0.00 0.03 0.02 0.00 0.01
1.14 1.17 1.36 1.44 1.40 1.42 1.13 0.83 0.93 0.68 0.47 0.41 0.31 0.31 0.22 0.08 0.02 0.00 0.00 0.00 0.03 0.09 0.22 0.24 0.37 0.30 0.32 0.43 0.21 0.12 0.04 0.01 0.00 0.01 0.00 0.00 0.00 0.01 0.00 0.00 0.00 0.00 0.00 0.00 0.00 0.00 0.00

GFSGBSN_prec_precacc_111.txt.gz
Total_Precipitation_Accumulation
0.31 0.31 0.30 0.34 0.38 0.41 0.53 0.68 0.63 0.64 0.78 1.21 1.57 1.94 1.41 0.77 0.62 0.62 0.48 0.42 0.44 0.51 0.58 0.78 1.00 1.13 0.99 0.97 0.53 0.23 0.16 0.41 0.76 1.04 0.55 0.46 0.52 0.42 0.36 0.15 0.65 0.80 0.55 0.46 0.62 0.53 0.29
0.31 0.32 0.30 0.36 0.42 0.47 0.60 0.68 0.65 0.72 1.18 2.12 1.96 1.48 0.86 0.54 0.59 0.46 0.32 0.33 0.35 0.41 0.48 0.66 1.16 1.21 0.86 0.80 0.43 0.33 0.31 0.45 0.61 0.93 0.67 0.48 0.65 0.47 0.41 0.25 0.46 0.65 0.67 0.65 1.06 0.71 0.55
0.28 0.31 0.36 0.39 0.43 0.50 0.59 0.65 0.72 1.18 1.85 1.83 1.52 1.06 0.48 0.48 0.60 0.41 0.29 0.30 0.31 0.35 0.40 0.58 1.18 1.00 0.80 0.55 0.34 0.68 0.53 0.65 0.67 0.82 0.83 0.62 0.63 0.80 0.72 0.35 0.28 0.64 0.97 1.18 1.34 1.21 0.74
0.28 0.35 0.37 0.40 0.45 0.50 0.55 0.70 1.24 1.43 1.36 1.28 1.19 0.77 0.47 0.59 0.46 0.38 0.26 0.28 0.30 0.39 0.47 0.65 1.10 1.02 0.90 0.38 0.36 0.62 0.42 0.53 0.77 1.09 1.09 0.95 0.53 0.56 0.90 0.55 0.52 0.67 1.41 1.25 1.53 1.64 1.03
0.35 0.36 0.37 0.35 0.41 0.54 0.73 1.16 1.23 0.96 1.04 1.02 0.84 0.59 0.56 0.47 0.44 0.43 0.33 0.45 0.48 0.51 0.73 0.96 1.02 0.83 0.83 0.58 0.45 0.57 0.31 0.55 1.01 1.41 1.77 1.49 0.90 0.77 0.90 0.93 0.63 0.65 0.97 0.85 0.99 1.30 1.40
0.33 0.31 0.27 0.36 0.51 0.71 1.02 1.07 0.99 0.83 0.77 0.74 0.67 0.55 0.49 0.46 0.54 0.75 0.85 0.86 1.01 0.81 1.09 1.31 1.00 0.93 0.38 0.66 0.65 0.65 0.21 0.68 1.37 1.88 2.59 2.60 1.46 1.01 0.90 0.75 0.46 0.40 0.55 0.55 0.66 0.92 1.32
0.24 0.27 0.34 0.45 0.68 1.03 1.03 0.96 0.85 0.66 0.70 0.70 0.64 0.56 0.57 0.70 0.83 1.20 1.07 1.50 1.95 1.60 1.30 1.16 0.77 0.44 0.31 0.72 1.06 0.60 0.31 1.13 1.88 2.67 2.51 2.10 1.21 0.74 0.70 0.38 0.18 0.08 0.13 0.45 0.50 0.66 0.95
0.24 0.28 0.42 0.65 1.00 1.16 0.91 0.83 0.67 0.72 0.75 0.70 0.60 0.61 0.71 0.86 1.02 1.39 1.29 1.31 1.65 1.54 1.06 0.66 0.59 0.28 0.14 0.34 0.82 0.64 0.72 1.84 2.36 2.61 1.74 1.23 0.60 0.24 0.62 0.53 0.28 0.12 0.20 0.36 0.77 0.54 0.69
0.25 0.33 0.64 0.89 1.24 0.95 0.88 0.66 0.67 0.76 0.78 0.71 0.69 0.73 0.81 0.80 0.96 1.26 0.96 1.04 1.06 1.22 0.99 0.84 1.06 0.53 0.38 0.57 0.61 0.99 1.26 2.34 2.04 1.87 1.12 0.73 0.44 0.28 0.59 0.67 0.28 0.08 0.09 0.22 0.43 0.47 0.48
0.29 0.42 0.68 1.07 0.97 0.89 0.73 0.71 0.89 0.98 0.91 0.94 0.79 0.81 0.85 1.06 1.54 0.94 0.65 0.53 1.15 1.33 1.12 1.52 1.63 1.15 0.62 0.80 1.03 1.04 1.28 1.86 2.02 1.92 1.26 0.97 0.47 0.33 0.54 0.45 0.26 0.14 0.05 0.20 0.22 0.81 0.70
0.42 0.58 0.92 1.07 0.76 0.71 0.65 0.82 0.97 1.02 0.95 0.84 0.90 0.88 1.02 1.42 1.51 0.84 0.59 0.53 1.54 1.58 1.70 1.94 1.67 0.87 0.80 0.87 0.72 0.91 1.27 1.48 1.29 1.39 1.23 1.09 0.60 0.41 0.57 0.37 0.31 0.15 0.06 0.18 0.16 0.90 1.09
0.60 0.77 1.10 0.89 0.81 0.69 0.68 0.78 0.85 0.86 0.89 1.00 1.13 1.17 1.48 1.19 1.00 0.74 0.75 1.02 1.69 1.71 1.87 1.58 1.31 1.13 0.89 0.48 0.29 0.67 1.20 1.11 0.95 1.18 1.19 0.67 0.53 0.84 0.76 0.40 0.18 0.09 0.15 0.19 0.25 0.62 1.29
0.77 0.96 0.92 0.77 0.59 0.61 0.84 0.93 0.90 0.93 1.06 1.13 1.21 1.50 1.57 1.23 0.87 0.90 1.33 1.56 1.57 1.33 1.12 0.91 0.91 0.40 0.21 0.27 0.29 0.75 1.06 0.98 1.21 2.00 1.94 1.48 1.16 1.01 0.69 0.54 0.27 0.14 0.48 1.04 0.88 1.14 0.73
0.83 0.86 0.78 0.67 0.65 0.86 0.98 0.99 1.05 1.14 1.15 1.07 1.56 1.45 1.33 0.95 0.81 1.30 1.87 1.50 1.19 1.09 0.73 0.46 0.14 0.11 0.14 0.13 0.26 0.49 0.87 0.87 0.67 0.78 1.02 1.41 1.17 0.81 0.53 0.38 0.44 0.31 0.47 0.98 0.70 0.59 0.49
0.80 0.77 0.75 0.67 0.86 0.95 0.99 1.02 0.97 1.06 1.23 1.56 1.89 1.80 1.64 1.22 1.06 1.37 1.74 1.27 1.49 0.84 0.49 0.19 0.15 0.20 0.16 0.14 0.20 0.43 0.80 0.54 0.16 0.15 0.41 0.58 0.46 0.35 0.36 0.14 0.38 0.47 0.47 0.36 0.78 0.52 0.61
0.70 0.77 0.73 0.68 0.78 0.98 1.02 1.06 1.14 1.50 1.78 1.97 2.28 2.58 1.75 1.02 1.18 1.64 1.47 1.16 0.78 0.25 0.05 0.04 0.16 0.10 0.06 0.05 0.15 0.23 0.37 0.13 0.08 0.03 0.08 0.12 0.33 0.25 0.29 0.32 0.33 0.37 0.23 0.58 1.20 0.87 0.57
0.62 0.74 0.68 0.75 0.88 1.07 1.25 1.43 1.76 2.16 2.32 2.81 2.19 2.91 2.01 1.18 1.77 1.97 1.33 1.01 0.41 0.07 0.03 0.06 0.05 0.05 0.01 0.02 0.03 0.04 0.04 0.03 0.00 0.00 0.02 0.09 0.16 0.23 0.46 0.40 0.25 0.36 0.55 0.44 0.66 0.59 0.55
0.68 0.71 0.76 0.88 1.03 1.18 1.48 1.53 1.62 2.09 2.52 3.24 3.02 2.48 2.30 1.82 2.25 1.44 0.73 0.65 0.34 0.12 0.05 0.10 0.10 0.04 0.01 0.01 0.01 0.01 0.01 0.02 0.00 0.00 0.01 0.01 0.18 0.27 0.20 0.08 0.08 0.16 0.22 0.24 0.64 0.56 0.37
0.59 0.64 0.77 0.90 1.08 1.16 1.30 1.21 1.20 1.77 2.40 2.74 2.59 2.41 2.79 1.54 0.97 0.60 0.60 0.29 0.22 0.16 0.10 0.13 0.09 0.04 0.01 0.01 0.01 0.01 0.00 0.00 0.00 0.00 0.00 0.05 0.30 0.41 0.37 0.35 0.35 0.32 0.26 0.37 0.41 0.81 0.69
0.68 0.72 0.88 0.98 1.18 1.28 1.30 1.10 1.05 1.54 1.95 2.61 2.20 2.60 3.24 2.26 0.55 0.23 0.31 0.26 0.21 0.09 0.07 0.12 0.14 0.08 0.04 0.02 0.00 0.00 0.00 0.00 0.00 0.00 0.02 0.20 0.40 0.59 0.60 0.52 0.71 0.51 0.28 0.50 0.96 1.19 0.39
0.64 0.79 0.96 1.11 1.18 1.34 1.41 1.47 1.69 1.98 2.11 2.49 1.72 1.19 0.90 1.03 0.46 0.18 0.24 0.22 0.14 0.14 0.11 0.15 0.13 0.09 0.06 0.04 0.01 0.00 0.00 0.01 0.01 0.02 0.13 0.45 0.81 0.91 0.42 0.32 0.62 0.60 0.30 0.42 0.97 0.54 0.45
0.68 0.73 0.88 0.94 0.99 1.04 1.11 1.19 1.57 2.32 2.55 2.08 1.35 0.69 0.31 0.19 0.16 0.14 0.15 0.14 0.10 0.13 0.16 0.15 0.09 0.04 0.05 0.05 0.02 0.01 0.00 0.00 0.01 0.02 0.12 0.33 0.74 0.74 0.46 0.33 0.34 0.33 0.13 0.24 0.54 0.38 0.25
0.68 0.72 0.84 0.93 0.94 1.00 1.03 1.09 1.37 2.12 2.76 2.15 1.32 0.77 0.36 0.31 0.17 0.15 0.08 0.03 0.02 0.11 0.09 0.05 0.06 0.09 0.06 0.04 0.03 0.02 0.01 0.02 0.01 0.02 0.11 0.34 0.50 0.79 0.67 0.40 0.38 0.32 0.08 0.17 0.38 0.32 0.16
0.94 1.11 1.36 1.56 1.62 1.69 1.94 1.84 1.59 1.82 2.36 2.04 1.21 0.77 0.33 0.19 0.08 0.04 0.01 0.01 0.01 0.07 0.10 0.06 0.03 0.08 0.05 0.04 0.05 0.06 0.02 0.02 0.02 0.01 0.03 0.18 0.39 0.74 0.95 0.76 0.75 0.44 0.13 0.16 0.17 0.16 0.10
0.97 1.06 1.15 1.22 1.27 1.36 1.52 1.73 1.83 1.72 1.50 1.27 0.86 0.55 0.27 0.13 0.04 0.04 0.03 0.02 0.03 0.06 0.09 0.13 0.08 0.02 0.05 0.09 0.18 0.22 0.22 0.07 0.00 0.01 0.01 0.05 0.21 0.41 0.44 0.35 0.17 0.11 0.13 0.11 0.08 0.10 0.03
0.71 0.74 0.69 0.68 0.76 0.85 0.83 0.81 1.04 1.15 1.12 0.91 0.78 0.66 0.21 0.08 0.04 0.02 0.03 0.02 0.08 0.16 0.14 0.11 0.11 0.09 0.13 0.25 0.40 0.27 0.13 0.05 0.02 0.01 0.00 0.01 0.06 0.25 0.19 0.19 0.08 0.03 0.02 0.02 0.03 0.03 0.00
0.63 0.58 0.50 0.55 0.68 0.77 0.67 0.62 0.80 0.86 0.71 0.63 0.67 0.50 0.19 0.07 0.01 0.01 0.02 0.02 0.04 0.16 0.20 0.20 0.17 0.23 0.23 0.38 0.39 0.18 0.04 0.00 0.00 0.01 0.03 0.07 0.11 0.16 0.16 0.15 0.01 0.00 0.00 0.01 0.08 0.07 0.00
1.15 0.95 0.95 0.93 1.05 1.03 0.86 0.74 0.87 0.68 0.58 0.50 0.43 0.41 0.24 0.06 0.01 0.01 0.00 0.01 0.06 0.12 0.22 0.25 0.36 0.36 0.44 0.44 0.34 0.15 0.03 0.01 0.00 0.00 0.00 0.03 0.06 0.09 0.09 0.12 0.01 0.00 0.00 0.03 0.02 0.00 0.01
1.14 1.18 1.36 1.44 1.40 1.42 1.13 0.83 0.93 0.68 0.47 0.41 0.31 0.31 0.22 0.08 0.02 0.00 0.00 0.00 0.03 0.09 0.22 0.24 0.37 0.30 0.32 0.43 0.21 0.12 0.04 0.01 0.00 0.01 0.00 0.00 0.00 0.01 0.00 0.00 0.00 0.00 0.00 0.00 0.00 0.00 0.00

GFSGBSN_prec_precacc_114.txt.gz
Total_Precipitation_Accumulation
0.31 0.31 0.31 0.36 0.40 0.44 0.56 0.69 0.63 0.64 0.79 1.25 1.61 2.03 1.51 0.84 0.64 0.63 0.48 0.42 0.44 0.51 0.58 0.78 1.00 1.15 1.11 1.03 0.57 0.24 0.20 0.48 0.78 1.04 0.55 0.46 0.52 0.42 0.36 0.15 0.65 0.80 0.55 0.46 0.62 0.53 0.29
0.31 0.32 0.31 0.37 0.44 0.49 0.63 0.70 0.66 0.73 1.18 2.13 1.98 1.50 0.88 0.55 0.59 0.46 0.32 0.33 0.35 0.41 0.48 0.66 1.16 1.22 0.90 0.84 0.46 0.34 0.33 0.48 0.62 0.93 0.67 0.48 0.65 0.47 0.41 0.25 0.46 0.65 0.67 0.65 1.06 0.71 0.55
0.28 0.31 0.36 0.40 0.44 0.52 0.62 0.67 0.74 1.18 1.86 1.84 1.52 1.07 0.49 0.48 0.60 0.41 0.29 0.30 0.31 0.35 0.40 0.58 1.19 1.01 0.81 0.61 0.39 0.69 0.60 0.74 0.68 0.82 0.83 0.62 0.63 0.80 0.72 0.35 0.28 0.64 0.97 1.18 1.34 1.21 0.74
0.28 0.35 0.38 0.42 0.47 0.52 0.57 0.72 1.26 1.44 1.36 1.29 1.19 0.77 0.47 0.59 0.46 0.38 0.26 0.29 0.31 0.39 0.47 0.68 1.19 1.05 1.00 0.50 0.43 0.68 0.45 0.54 0.77 1.09 1.09 0.95 0.53 0.56 0.90 0.55 0.52 0.67 1.41 1.25 1.53 1.64 1.03
0.35 0.36 0.38 0.37 0.43 0.56 0.75 1.17 1.25 0.99 1.04 1.02 0.85 0.59 0.56 0.47 0.44 0.43 0.35 0.49 0.50 0.55 0.92 1.09 1.11 0.91 1.21 0.94 0.62 0.62 0.33 0.56 1.01 1.41 1.77 1.49 0.90 0.77 0.90 0.93 0.63 0.65 0.97 0.85 0.99 1.30 1.40
0.33 0.31 0.28 0.36 0.53 0.72 1.03 1.08 1.00 0.86 0.78 0.75 0.67 0.55 0.49 0.46 0.54 0.75 0.85 0.88 1.02 0.86 1.25 1.49 1.18 1.13 0.68 1.00 0.74 0.66 0.21 0.68 1.37 1.88 2.59 2.60 1.46 1.01 0.90 0.75 0.46 0.40 0.55 0.55 0.66 0.92 1.32
0.24 0.28 0.34 0.46 0.70 1.04 1.03 0.96 0.87 0.67 0.71 0.71 0.64 0.56 0.57 0.70 0.83 1.20 1.08 1.50 1.95 1.61 1.32 1.19 0.81 0.48 0.40 0.77 1.08 0.61 0.31 1.13 1.88 2.67 2.51 2.10 1.21 0.74 0.70 0.38 0.18 0.08 0.13 0.45 0.50 0.66 0.95
0.24 0.28 0.42 0.66 1.02 1.17 0.91 0.83 0.68 0.72 0.76 0.71 0.60 0.61 0.71 0.86 1.02 1.39 1.29 1.31 1.65 1.56 1.07 0.67 0.59 0.29 0.15 0.35 0.82 0.64 0.72 1.84 2.36 2.61 1.74 1.23 0.60 0.24 0.62 0.53 0.28 0.12 0.20 0.36 0.77 0.54 0.69
0.25 0.33 0.64 0.89 1.24 0.96 0.89 0.67 0.67 0.77 0.78 0.71 0.69 0.73 0.81 0.80 0.96 1.26 0.96 1.04 1.06 1.22 0.99 0.85 1.07 0.54 0.39 0.57 0.61 0.99 1.26 2.34 2.04 1.87 1.12 0.73 0.44 0.28 0.59 0.67 0.28 0.08 0.09 0.22 0.43 0.47 0.48
0.29 0.43 0.68 1.08 0.97 0.89 0.74 0.72 0.89 0.98 0.91 0.94 0.79 0.81 0.85 1.06 1.54 0.94 0.65 0.53 1.15 1.33 1.12 1.53 1.63 1.16 0.63 0.80 1.04 1.04 1.28 1.86 2.02 1.92 1.26 0.97 0.47 0.33 0.54 0.45 0.26 0.14 0.05 0.20 0.22 0.82 0.70
0.42 0.58 0.92 1.08 0.77 0.72 0.66 0.83 0.98 1.02 0.95 0.84 0.90 0.88 1.02 1.42 1.51 0.84 0.59 0.53 1.54 1.58 1.70 1.94 1.68 0.88 0.80 0.88 0.72 0.91 1.27 1.48 1.29 1.39 1.23 1.09 0.60 0.41 0.57 0.37 0.31 0.15 0.06 0.18 0.16 0.90 1.10
0.60 0.77 1.10 0.89 0.82 0.70 0.69 0.79 0.86 0.86 0.89 1.00 1.13 1.17 1.48 1.19 1.00 0.74 0.75 1.02 1.69 1.71 1.88 1.58 1.32 1.14 0.89 0.48 0.30 0.67 1.20 1.11 0.95 1.18 1.19 0.67 0.53 0.84 0.76 0.40 0.18 0.09 0.15 0.19 0.25 0.63 1.29
0.77 0.96 0.92 0.77 0.60 0.62 0.85 0.93 0.91 0.93 1.06 1.13 1.21 1.50 1.57 1.23 0.87 0.90 1.33 1.56 1.57 1.33 1.12 0.92 0.92 0.41 0.21 0.27 0.29 0.75 1.06 0.98 1.21 2.00 1.94 1.48 1.16 1.01 0.69 0.54 0.27 0.14 0.48 1.04 0.88 1.15 0.73
0.84 0.86 0.78 0.67 0.65 0.86 0.99 1.01 1.06 1.15 1.15 1.07 1.56 1.45 1.33 0.95 0.81 1.30 1.87 1.50 1.20 1.10 0.73 0.46 0.14 0.11 0.14 0.13 0.26 0.49 0.87 0.87 0.67 0.78 1.02 1.41 1.17 0.81 0.53 0.38 0.44 0.31 0.48 1.00 0.71 0.59 0.49
0.80 0.77 0.75 0.67 0.86 0.95 1.00 1.04 0.98 1.07 1.23 1.56 1.89 1.80 1.64 1.22 1.06 1.37 1.74 1.27 1.49 0.84 0.49 0.19 0.15 0.20 0.16 0.14 0.20 0.43 0.80 0.54 0.16 0.15 0.41 0.58 0.46 0.35 0.36 0.14 0.38 0.48 0.49 0.37 0.81 0.54 0.63
0.70 0.77 0.73 0.68 0.78 0.98 1.03 1.08 1.16 1.51 1.78 1.97 2.28 2.58 1.75 1.02 1.18 1.64 1.47 1.16 0.78 0.25 0.05 0.04 0.16 0.10 0.06 0.05 0.15 0.23 0.37 0.13 0.08 0.03 0.08 0.12 0.34 0.25 0.29 0.32 0.33 0.39 0.26 0.63 1.25 0.88 0.58
0.63 0.75 0.68 0.75 0.88 1.07 1.25 1.43 1.77 2.16 2.32 2.81 2.19 2.91 2.01 1.18 1.77 1.97 1.33 1.01 0.41 0.07 0.03 0.06 0.05 0.05 0.01 0.02 0.03 0.04 0.04 0.03 0.00 0.00 0.02 0.09 0.16 0.23 0.46 0.40 0.26 0.36 0.57 0.47 0.67 0.61 0.56
0.68 0.72 0.76 0.88 1.03 1.18 1.48 1.54 1.63 2.09 2.52 3.24 3.02 2.48 2.30 1.82 2.25 1.44 0.73 0.65 0.34 0.12 0.05 0.10 0.10 0.04 0.01 0.01 0.01 0.01 0.01 0.02 0.00 0.00 0.01 0.01 0.18 0.27 0.20 0.08 0.08 0.16 0.23 0.28 0.65 0.56 0.38
0.60 0.65 0.77 0.90 1.08 1.16 1.30 1.22 1.21 1.77 2.40 2.74 2.59 2.41 2.79 1.54 0.97 0.60 0.60 0.29 0.22 0.16 0.10 0.13 0.09 0.04 0.01 0.01 0.01 0.01 0.00 0.00 0.00 0.00 0.00 0.05 0.30 0.41 0.37 0.35 0.35 0.32 0.26 0.38 0.41 0.81 0.69
0.68 0.72 0.88 0.98 1.18 1.28 1.30 1.10 1.05 1.54 1.95 2.61 2.20 2.60 3.24 2.26 0.55 0.23 0.31 0.26 0.21 0.09 0.07 0.12 0.14 0.08 0.04 0.02 0.00 0.00 0.00 0.00 0.00 0.00 0.02 0.20 0.40 0.59 0.60 0.53 0.71 0.51 0.28 0.50 0.96 1.19 0.39
0.64 0.79 0.96 1.11 1.18 1.34 1.41 1.47 1.69 1.98 2.11 2.49 1.72 1.19 0.90 1.03 0.46 0.18 0.24 0.22 0.14 0.14 0.11 0.15 0.13 0.09 0.06 0.04 0.01 0.00 0.00 0.01 0.01 0.02 0.13 0.45 0.81 0.91 0.42 0.32 0.62 0.60 0.30 0.42 0.97 0.54 0.45
0.68 0.73 0.88 0.94 0.99 1.04 1.11 1.19 1.57 2.32 2.55 2.08 1.35 0.69 0.31 0.19 0.16 0.14 0.15 0.14 0.10 0.13 0.16 0.15 0.09 0.04 0.05 0.05 0.02 0.01 0.00 0.00 0.01 0.02 0.12 0.33 0.74 0.74 0.46 0.33 0.34 0.33 0.13 0.24 0.54 0.38 0.25
0.68 0.73 0.84 0.93 0.94 1.00 1.03 1.09 1.37 2.12 2.76 2.15 1.32 0.77 0.36 0.31 0.17 0.15 0.08 0.03 0.02 0.11 0.09 0.05 0.06 0.09 0.06 0.04 0.03 0.02 0.01 0.02 0.01 0.02 0.11 0.34 0.50 0.79 0.67 0.40 0.38 0.32 0.08 0.17 0.38 0.32 0.16
0.94 1.11 1.36 1.56 1.62 1.69 1.94 1.84 1.59 1.82 2.36 2.04 1.21 0.77 0.33 0.19 0.08 0.04 0.01 0.01 0.01 0.07 0.10 0.06 0.03 0.08 0.05 0.04 0.05 0.06 0.02 0.02 0.02 0.01 0.03 0.18 0.39 0.74 0.95 0.76 0.75 0.44 0.13 0.16 0.17 0.16 0.10
0.97 1.06 1.15 1.22 1.27 1.36 1.52 1.73 1.83 1.72 1.50 1.27 0.86 0.55 0.27 0.13 0.04 0.04 0.03 0.02 0.03 0.06 0.09 0.13 0.08 0.02 0.05 0.09 0.18 0.22 0.22 0.07 0.00 0.01 0.01 0.05 0.21 0.41 0.44 0.35 0.17 0.11 0.13 0.11 0.08 0.10 0.03
0.71 0.74 0.69 0.68 0.76 0.85 0.83 0.81 1.04 1.15 1.12 0.91 0.78 0.66 0.21 0.08 0.04 0.02 0.03 0.02 0.08 0.16 0.14 0.11 0.11 0.09 0.13 0.25 0.40 0.27 0.13 0.05 0.02 0.01 0.00 0.01 0.06 0.25 0.19 0.19 0.08 0.03 0.02 0.02 0.03 0.03 0.00
0.63 0.58 0.50 0.55 0.68 0.77 0.67 0.62 0.80 0.86 0.71 0.63 0.67 0.50 0.19 0.07 0.01 0.01 0.02 0.02 0.04 0.16 0.20 0.20 0.17 0.23 0.23 0.38 0.39 0.18 0.04 0.00 0.00 0.01 0.03 0.07 0.11 0.16 0.16 0.15 0.01 0.00 0.00 0.01 0.08 0.07 0.00
1.15 0.95 0.95 0.93 1.05 1.03 0.86 0.74 0.87 0.68 0.58 0.50 0.43 0.41 0.24 0.06 0.01 0.01 0.00 0.01 0.06 0.12 0.22 0.25 0.36 0.36 0.44 0.44 0.34 0.15 0.03 0.01 0.00 0.00 0.00 0.03 0.06 0.09 0.09 0.12 0.01 0.00 0.00 0.03 0.02 0.00 0.01
1.14 1.18 1.37 1.44 1.40 1.42 1.13 0.83 0.93 0.68 0.47 0.41 0.31 0.31 0.22 0.08 0.02 0.00 0.00 0.00 0.03 0.09 0.22 0.24 0.37 0.30 0.32 0.43 0.21 0.12 0.04 0.01 0.00 0.01 0.00 0.00 0.00 0.01 0.00 0.00 0.00 0.00 0.00 0.00 0.00 0.00 0.00

GFSGBSN_prec_precacc_117.txt.gz
Total_Precipitation_Accumulation
0.31 0.31 0.31 0.37 0.42 0.46 0.58 0.70 0.65 0.64 0.80 1.26 1.64 2.06 1.52 0.85 0.64 0.63 0.48 0.42 0.44 0.51 0.58 0.78 1.00 1.23 1.32 1.27 0.71 0.26 0.24 0.61 0.78 1.04 0.55 0.46 0.52 0.42 0.36 0.15 0.65 0.80 0.55 0.46 0.62 0.53 0.29
0.31 0.32 0.32 0.39 0.46 0.50 0.64 0.71 0.68 0.73 1.18 2.15 2.00 1.51 0.88 0.55 0.60 0.46 0.32 0.33 0.35 0.41 0.48 0.66 1.17 1.27 1.08 1.07 0.57 0.36 0.39 0.60 0.62 0.93 0.67 0.48 0.65 0.47 0.41 0.25 0.46 0.65 0.67 0.65 1.06 0.71 0.55
0.28 0.31 0.37 0.42 0.45 0.53 0.62 0.68 0.76 1.19 1.87 1.85 1.55 1.07 0.49 0.48 0.60 0.41 0.29 0.30 0.31 0.35 0.40 0.59 1.22 1.11 1.03 0.84 0.43 0.71 0.65 0.78 0.68 0.82 0.83 0.62 0.63 0.80 0.72 0.35 0.28 0.64 0.97 1.18 1.34 1.21 0.74
0.29 0.36 0.38 0.43 0.48 0.52 0.57 0.72 1.28 1.45 1.37 1.31 1.21 0.77 0.47 0.59 0.47 0.39 0.27 0.29 0.31 0.39 0.48 0.74 1.27 1.13 1.26 0.69 0.48 0.69 0.46 0.54 0.77 1.09 1.09 0.95 0.53 0.56 0.90 0.55 0.52 0.67 1.41 1.25 1.53 1.64 1.03
0.36 0.37 0.38 0.38 0.45 0.56 0.75 1.18 1.26 0.99 1.04 1.03 0.86 0.59 0.56 0.47 0.47 0.47 0.38 0.52 0.66 0.86 1.07 1.20 1.13 0.94 1.42 1.11 0.72 0.66 0.34 0.56 1.01 1.41 1.77 1.49 0.90 0.77 0.90 0.93 0.63 0.65 0.97 0.85 0.99 1.30 1.40
0.33 0.31 0.28 0.37 0.55 0.73 1.04 1.08 1.01 0.86 0.78 0.76 0.67 0.55 0.49 0.46 0.55 0.77 0.91 0.91 1.08 0.95 1.40 1.58 1.24 1.26 0.89 1.18 0.82 0.67 0.21 0.68 1.37 1.88 2.59 2.60 1.46 1.01 0.90 0.75 0.46 0.40 0.55 0.55 0.66 0.92 1.32
0.24 0.28 0.35 0.46 0.71 1.05 1.04 0.97 0.87 0.67 0.72 0.72 0.64 0.56 0.57 0.70 0.83 1.20 1.08 1.50 1.96 1.64 1.43 1.36 0.99 0.62 0.59 0.84 1.12 0.62 0.31 1.13 1.88 2.67 2.51 2.10 1.21 0.74 0.70 0.38 0.18 0.08 0.13 0.45 0.50 0.66 0.95
0.24 0.28 0.43 0.66 1.02 1.18 0.92 0.83 0.68 0.72 0.76 0.71 0.60 0.61 0.71 0.86 1.02 1.39 1.29 1.31 1.65 1.56 1.09 0.69 0.62 0.31 0.17 0.36 0.84 0.64 0.72 1.84 2.36 2.61 1.74 1.23 0.60 0.24 0.62 0.53 0.28 0.12 0.20 0.36 0.77 0.54 0.69
0.25 0.33 0.65 0.90 1.25 0.97 0.89 0.67 0.68 0.77 0.78 0.71 0.69 0.73 0.81 0.80 0.96 1.26 0.96 1.04 1.06 1.22 0.99 0.85 1.07 0.54 0.39 0.57 0.61 0.99 1.26 2.34 2.04 1.87 1.12 0.73 0.44 0.28 0.59 0.67 0.28 0.08 0.09 0.22 0.43 0.47 0.48
0.29 0.43 0.69 1.08 0.98 0.90 0.74 0.72 0.90 0.98 0.91 0.94 0.79 0.81 0.85 1.06 1.54 0.94 0.65 0.53 1.15 1.33 1.12 1.53 1.63 1.16 0.63 0.80 1.04 1.04 1.28 1.86 2.02 1.92 1.26 0.97 0.47 0.33 0.54 0.45 0.26 0.14 0.05 0.20 0.22 0.82 0.70
0.43 0.58 0.92 1.08 0.77 0.72 0.66 0.83 0.98 1.02 0.95 0.84 0.90 0.88 1.02 1.42 1.51 0.84 0.59 0.53 1.54 1.58 1.71 1.95 1.68 0.88 0.80 0.88 0.72 0.91 1.27 1.48 1.29 1.39 1.23 1.09 0.60 0.41 0.57 0.37 0.31 0.15 0.06 0.18 0.16 0.90 1.11
0.61 0.78 1.10 0.89 0.82 0.70 0.69 0.79 0.86 0.86 0.89 1.00 1.13 1.17 1.48 1.19 1.00 0.74 0.75 1.02 1.69 1.72 1.89 1.58 1.32 1.14 0.89 0.49 0.30 0.67 1.20 1.11 0.95 1.18 1.19 0.67 0.53 0.84 0.76 0.40 0.18 0.09 0.15 0.19 0.25 0.63 1.30
0.78 0.96 0.93 0.77 0.60 0.62 0.86 0.94 0.91 0.93 1.06 1.13 1.21 1.50 1.57 1.23 0.87 0.90 1.33 1.56 1.57 1.34 1.13 0.92 0.92 0.41 0.22 0.27 0.29 0.75 1.06 0.98 1.21 2.00 1.94 1.48 1.16 1.01 0.69 0.54 0.27 0.14 0.48 1.04 0.89 1.15 0.73
0.84 0.86 0.78 0.67 0.65 0.86 0.99 1.01 1.06 1.15 1.15 1.07 1.56 1.45 1.33 0.95 0.81 1.30 1.87 1.50 1.20 1.10 0.74 0.46 0.14 0.11 0.14 0.13 0.26 0.49 0.87 0.87 0.67 0.78 1.02 1.41 1.17 0.81 0.53 0.38 0.45 0.32 0.48 1.01 0.72 0.59 0.49
0.81 0.78 0.75 0.68 0.86 0.95 1.00 1.04 0.99 1.07 1.23 1.56 1.89 1.80 1.64 1.22 1.06 1.37 1.74 1.27 1.49 0.84 0.49 0.19 0.15 0.20 0.16 0.14 0.20 0.43 0.80 0.54 0.16 0.15 0.41 0.58 0.46 0.35 0.36 0.14 0.38 0.49 0.50 0.38 0.82 0.54 0.64
0.71 0.77 0.74 0.68 0.78 0.98 1.03 1.08 1.16 1.51 1.78 1.97 2.28 2.58 1.75 1.02 1.18 1.64 1.47 1.16 0.78 0.25 0.05 0.04 0.17 0.10 0.06 0.05 0.15 0.23 0.37 0.13 0.08 0.03 0.08 0.12 0.34 0.25 0.29 0.32 0.33 0.39 0.27 0.65 1.26 0.90 0.59
0.63 0.75 0.68 0.75 0.88 1.07 1.25 1.44 1.77 2.16 2.32 2.81 2.19 2.91 2.01 1.18 1.77 1.97 1.33 1.01 0.41 0.07 0.03 0.06 0.05 0.05 0.02 0.02 0.03 0.04 0.04 0.03 0.00 0.00 0.02 0.09 0.16 0.23 0.46 0.40 0.26 0.37 0.58 0.49 0.68 0.61 0.57
0.68 0.72 0.76 0.88 1.03 1.18 1.48 1.54 1.63 2.09 2.52 3.24 3.02 2.48 2.30 1.82 2.25 1.44 0.73 0.65 0.34 0.12 0.05 0.10 0.10 0.04 0.01 0.01 0.01 0.01 0.01 0.02 0.00 0.00 0.01 0.01 0.18 0.27 0.20 0.08 0.08 0.16 0.24 0.29 0.66 0.57 0.38
0.60 0.65 0.77 0.90 1.08 1.16 1.30 1.22 1.21 1.77 2.40 2.74 2.59 2.41 2.79 1.54 0.97 0.60 0.60 0.29 0.22 0.16 0.10 0.13 0.09 0.04 0.01 0.01 0.01 0.01 0.00 0.00 0.00 0.00 0.00 0.05 0.30 0.41 0.37 0.35 0.35 0.32 0.26 0.38 0.42 0.81 0.70
0.68 0.72 0.88 0.98 1.18 1.28 1.30 1.10 1.05 1.54 1.95 2.61 2.20 2.60 3.24 2.26 0.55 0.23 0.31 0.26 0.21 0.09 0.07 0.12 0.14 0.08 0.04 0.02 0.00 0.00 0.00 0.00 0.00 0.00 0.02 0.20 0.40 0.59 0.60 0.53 0.71 0.51 0.28 0.50 0.96 1.20 0.39
0.64 0.79 0.96 1.11 1.18 1.34 1.41 1.47 1.69 1.98 2.11 2.49 1.72 1.19 0.90 1.03 0.46 0.18 0.24 0.22 0.14 0.14 0.11 0.15 0.13 0.09 0.06 0.04 0.01 0.00 0.00 0.01 0.01 0.02 0.13 0.45 0.81 0.91 0.42 0.32 0.62 0.60 0.30 0.42 0.97 0.54 0.45
0.68 0.73 0.88 0.94 0.99 1.04 1.11 1.19 1.57 2.32 2.55 2.08 1.35 0.69 0.31 0.19 0.16 0.14 0.15 0.14 0.10 0.13 0.16 0.15 0.09 0.04 0.05 0.05 0.02 0.01 0.00 0.00 0.01 0.02 0.12 0.33 0.74 0.74 0.46 0.33 0.34 0.33 0.13 0.24 0.54 0.38 0.25
0.68 0.73 0.84 0.93 0.94 1.00 1.03 1.09 1.37 2.12 2.76 2.15 1.32 0.77 0.36 0.31 0.17 0.15 0.08 0.03 0.02 0.11 0.09 0.05 0.06 0.09 0.06 0.04 0.03 0.02 0.01 0.02 0.01 0.02 0.11 0.34 0.50 0.79 0.67 0.40 0.38 0.32 0.08 0.17 0.38 0.32 0.16
0.94 1.11 1.36 1.56 1.62 1.69 1.94 1.84 1.59 1.82 2.36 2.04 1.21 0.77 0.33 0.19 0.08 0.04 0.01 0.01 0.01 0.07 0.10 0.06 0.03 0.08 0.05 0.04 0.05 0.06 0.02 0.02 0.02 0.01 0.03 0.18 0.39 0.74 0.95 0.76 0.75 0.44 0.13 0.16 0.17 0.16 0.10
0.98 1.06 1.15 1.22 1.27 1.36 1.52 1.73 1.83 1.72 1.50 1.27 0.86 0.55 0.27 0.13 0.04 0.04 0.03 0.02 0.03 0.06 0.09 0.13 0.08 0.02 0.05 0.09 0.18 0.22 0.22 0.07 0.00 0.01 0.01 0.05 0.21 0.41 0.44 0.35 0.17 0.11 0.13 0.11 0.08 0.10 0.03
0.71 0.74 0.69 0.68 0.76 0.85 0.83 0.81 1.04 1.15 1.12 0.91 0.78 0.66 0.21 0.08 0.04 0.02 0.03 0.02 0.08 0.16 0.14 0.11 0.11 0.09 0.13 0.25 0.40 0.27 0.13 0.05 0.02 0.01 0.00 0.01 0.06 0.25 0.19 0.19 0.08 0.03 0.02 0.02 0.03 0.03 0.00
0.63 0.58 0.51 0.55 0.68 0.77 0.67 0.62 0.80 0.86 0.71 0.63 0.67 0.50 0.19 0.07 0.01 0.01 0.02 0.02 0.04 0.16 0.20 0.20 0.17 0.23 0.23 0.38 0.39 0.18 0.04 0.00 0.00 0.01 0.03 0.07 0.11 0.16 0.16 0.15 0.01 0.00 0.00 0.01 0.08 0.07 0.00
1.15 0.95 0.95 0.93 1.05 1.03 0.86 0.74 0.87 0.68 0.58 0.50 0.43 0.41 0.24 0.06 0.01 0.01 0.00 0.01 0.06 0.12 0.22 0.25 0.36 0.36 0.44 0.44 0.34 0.15 0.03 0.01 0.00 0.00 0.00 0.03 0.06 0.09 0.09 0.12 0.01 0.00 0.00 0.03 0.02 0.00 0.01
1.14 1.18 1.37 1.44 1.40 1.42 1.13 0.83 0.93 0.68 0.47 0.41 0.31 0.31 0.22 0.08 0.02 0.00 0.00 0.00 0.03 0.09 0.22 0.24 0.37 0.30 0.32 0.43 0.21 0.12 0.04 0.01 0.00 0.01 0.00 0.00 0.00 0.01 0.00 0.00 0.00 0.00 0.00 0.00 0.00 0.00 0.00

GFSGBSN_prec_precacc_120.txt.gz
Total_Precipitation_Accumulation
0.32 0.32 0.32 0.39 0.43 0.46 0.58 0.71 0.69 0.65 0.81 1.27 1.64 2.07 1.52 0.85 0.64 0.63 0.48 0.42 0.44 0.51 0.58 0.78 1.02 1.40 1.38 1.36 0.78 0.31 0.27 0.63 0.78 1.04 0.55 0.46 0.52 0.42 0.36 0.15 0.65 0.80 0.55 0.46 0.62 0.53 0.29
0.32 0.33 0.33 0.41 0.47 0.51 0.65 0.72 0.71 0.75 1.20 2.16 2.00 1.51 0.88 0.55 0.60 0.46 0.32 0.33 0.35 0.41 0.48 0.67 1.24 1.61 1.17 1.21 0.69 0.39 0.47 0.62 0.62 0.93 0.67 0.48 0.65 0.47 0.41 0.25 0.46 0.65 0.67 0.65 1.06 0.71 0.55
0.29 0.32 0.38 0.44 0.47 0.54 0.63 0.68 0.78 1.20 1.88 1.85 1.55 1.07 0.49 0.48 0.60 0.41 0.29 0.30 0.31 0.35 0.40 0.60 1.32 1.28 1.16 1.05 0.59 0.80 0.79 0.86 0.69 0.82 0.83 0.62 0.63 0.80 0.72 0.35 0.28 0.64 0.97 1.18 1.34 1.21 0.74
0.29 0.36 0.39 0.44 0.49 0.54 0.58 0.73 1.28 1.45 1.37 1.31 1.21 0.77 0.47 0.60 0.47 0.40 0.28 0.32 0.31 0.40 0.50 0.80 1.41 1.25 1.47 0.90 0.59 0.80 0.58 0.61 0.77 1.09 1.09 0.95 0.53 0.56 0.90 0.55 0.52 0.67 1.41 1.25 1.53 1.64 1.03
0.36 0.37 0.39 0.38 0.46 0.58 0.76 1.18 1.26 1.00 1.04 1.03 0.86 0.59 0.56 0.48 0.49 0.51 0.43 0.71 0.87 0.94 1.14 1.27 1.26 1.01 1.64 1.31 0.83 0.70 0.36 0.57 1.01 1.41 1.77 1.49 0.90 0.77 0.90 0.93 0.63 0.65 0.97 0.85 0.99 1.30 1.40
0.33 0.31 0.29 0.38 0.55 0.74 1.05 1.09 1.01 0.86 0.78 0.76 0.67 0.55 0.49 0.46 0.55 0.78 0.94 1.00 1.17 1.03 1.46 1.60 1.26 1.28 0.95 1.26 0.87 0.68 0.21 0.68 1.37 1.88 2.59 2.60 1.46 1.01 0.90 0.75 0.46 0.40 0.55 0.55 0.66 0.92 1.32
0.24 0.28 0.35 0.47 0.71 1.06 1.05 0.98 0.88 0.68 0.72 0.72 0.64 0.56 0.57 0.70 0.83 1.20 1.08 1.51 1.98 1.74 1.54 1.48 1.10 0.68 0.66 0.87 1.12 0.62 0.31 1.13 1.88 2.67 2.51 2.10 1.21 0.74 0.70 0.38 0.18 0.08 0.13 0.45 0.50 0.66 0.95
0.25 0.28 0.43 0.66 1.02 1.18 0.92 0.84 0.69 0.73 0.76 0.71 0.60 0.61 0.71 0.86 1.02 1.39 1.29 1.31 1.65 1.59 1.13 0.72 0.65 0.32 0.18 0.37 0.85 0.64 0.72 1.84 2.36 2.61 1.74 1.23 0.60 0.24 0.62 0.53 0.28 0.12 0.20 0.36 0.77 0.54 0.69
0.25 0.33 0.65 0.90 1.25 0.97 0.89 0.68 0.68 0.78 0.78 0.71 0.69 0.73 0.81 0.80 0.96 1.26 0.96 1.04 1.06 1.22 0.99 0.85 1.07 0.54 0.40 0.58 0.61 0.99 1.26 2.34 2.04 1.87 1.12 0.73 0.44 0.28 0.59 0.67 0.28 0.08 0.09 0.22 0.43 0.47 0.48
0.30 0.43 0.69 1.08 0.98 0.90 0.75 0.73 0.90 0.98 0.91 0.94 0.79 0.81 0.85 1.06 1.54 0.94 0.65 0.53 1.15 1.33 1.13 1.53 1.63 1.16 0.63 0.80 1.04 1.04 1.28 1.86 2.02 1.92 1.26 0.97 0.47 0.33 0.54 0.45 0.26 0.14 0.05 0.20 0.22 0.82 0.70
0.43 0.59 0.92 1.08 0.77 0.72 0.66 0.84 0.98 1.02 0.95 0.84 0.90 0.88 1.02 1.42 1.51 0.84 0.59 0.53 1.54 1.58 1.71 1.95 1.68 0.88 0.80 0.88 0.72 0.91 1.27 1.48 1.29 1.39 1.23 1.09 0.60 0.41 0.57 0.37 0.31 0.15 0.06 0.18 0.16 0.90 1.11
0.61 0.78 1.11 0.89 0.82 0.70 0.70 0.79 0.86 0.87 0.89 1.00 1.13 1.17 1.48 1.19 1.00 0.74 0.75 1.02 1.69 1.72 1.89 1.59 1.32 1.14 0.90 0.49 0.30 0.67 1.20 1.11 0.95 1.18 1.19 0.67 0.53 0.84 0.76 0.40 0.18 0.09 0.15 0.19 0.25 0.63 1.30
0.78 0.97 0.93 0.77 0.60 0.62 0.86 0.94 0.91 0.94 1.06 1.13 1.21 1.50 1.57 1.23 0.87 0.90 1.33 1.56 1.57 1.34 1.13 0.92 0.92 0.41 0.22 0.27 0.29 0.75 1.06 0.98 1.21 2.00 1.94 1.48 1.16 1.01 0.69 0.54 0.27 0.14 0.48 1.04 0.89 1.16 0.74
0.84 0.87 0.79 0.67 0.65 0.87 1.00 1.01 1.06 1.15 1.15 1.07 1.56 1.45 1.33 0.95 0.81 1.30 1.87 1.50 1.20 1.11 0.74 0.46 0.14 0.11 0.14 0.13 0.26 0.49 0.87 0.87 0.67 0.78 1.02 1.41 1.17 0.81 0.53 0.38 0.45 0.32 0.48 1.01 0.72 0.60 0.50
0.81 0.78 0.76 0.68 0.86 0.95 1.01 1.04 0.99 1.07 1.23 1.56 1.89 1.80 1.64 1.22 1.06 1.37 1.74 1.27 1.49 0.85 0.49 0.19 0.15 0.20 0.17 0.15 0.20 0.43 0.80 0.54 0.16 0.15 0.41 0.58 0.46 0.35 0.36 0.14 0.38 0.50 0.51 0.38 0.83 0.54 0.64
0.71 0.78 0.74 0.69 0.78 0.98 1.03 1.08 1.16 1.51 1.78 1.97 2.28 2.58 1.75 1.02 1.18 1.64 1.47 1.16 0.78 0.25 0.05 0.04 0.17 0.11 0.06 0.05 0.15 0.23 0.37 0.13 0.08 0.03 0.08 0.12 0.34 0.25 0.29 0.32 0.33 0.40 0.27 0.66 1.28 0.91 0.60
0.63 0.75 0.68 0.75 0.88 1.07 1.25 1.44 1.77 2.16 2.32 2.81 2.19 2.91 2.01 1.18 1.77 1.97 1.33 1.01 0.41 0.07 0.03 0.06 0.05 0.05 0.02 0.02 0.03 0.04 0.04 0.03 0.00 0.00 0.02 0.09 0.16 0.23 0.46 0.40 0.26 0.37 0.58 0.49 0.69 0.61 0.57
0.68 0.72 0.76 0.88 1.03 1.18 1.49 1.54 1.63 2.09 2.52 3.24 3.02 2.48 2.30 1.82 2.25 1.44 0.73 0.65 0.34 0.12 0.05 0.10 0.10 0.04 0.01 0.01 0.01 0.01 0.01 0.02 0.00 0.00 0.01 0.01 0.18 0.27 0.20 0.08 0.08 0.16 0.24 0.29 0.67 0.58 0.38
0.60 0.65 0.77 0.90 1.08 1.16 1.30 1.22 1.21 1.77 2.40 2.74 2.59 2.41 2.79 1.54 0.97 0.60 0.60 0.29 0.22 0.16 0.10 0.13 0.09 0.04 0.01 0.01 0.01 0.01 0.00 0.00 0.00 0.00 0.00 0.05 0.30 0.41 0.37 0.35 0.35 0.32 0.26 0.38 0.42 0.81 0.70
0.68 0.72 0.88 0.98 1.18 1.28 1.30 1.10 1.05 1.54 1.95 2.61 2.20 2.60 3.24 2.26 0.55 0.23 0.31 0.26 0.21 0.09 0.07 0.12 0.14 0.08 0.04 0.02 0.00 0.00 0.00 0.00 0.00 0.00 0.02 0.20 0.40 0.59 0.60 0.53 0.71 0.51 0.28 0.50 0.96 1.20 0.39
0.64 0.79 0.96 1.11 1.18 1.34 1.41 1.47 1.69 1.98 2.11 2.49 1.72 1.19 0.90 1.03 0.46 0.18 0.24 0.22 0.14 0.14 0.11 0.15 0.13 0.09 0.06 0.04 0.01 0.00 0.00 0.01 0.01 0.02 0.13 0.45 0.81 0.91 0.42 0.32 0.62 0.60 0.30 0.42 0.97 0.54 0.45
0.68 0.73 0.88 0.94 0.99 1.04 1.11 1.19 1.57 2.32 2.55 2.08 1.35 0.69 0.31 0.19 0.16 0.14 0.15 0.14 0.10 0.13 0.16 0.15 0.09 0.04 0.05 0.05 0.02 0.01 0.00 0.00 0.01 0.02 0.12 0.33 0.74 0.74 0.46 0.33 0.34 0.33 0.13 0.24 0.54 0.38 0.25
0.68 0.73 0.84 0.93 0.94 1.00 1.03 1.09 1.37 2.12 2.76 2.15 1.32 0.77 0.36 0.31 0.17 0.15 0.08 0.03 0.02 0.11 0.09 0.05 0.06 0.09 0.06 0.04 0.03 0.02 0.01 0.02 0.01 0.02 0.11 0.34 0.50 0.79 0.67 0.40 0.38 0.32 0.08 0.17 0.38 0.32 0.16
0.95 1.11 1.36 1.56 1.62 1.69 1.94 1.84 1.59 1.82 2.36 2.04 1.21 0.77 0.33 0.19 0.08 0.04 0.01 0.01 0.01 0.07 0.10 0.06 0.03 0.08 0.05 0.04 0.05 0.06 0.02 0.02 0.02 0.01 0.03 0.18 0.39 0.74 0.95 0.76 0.75 0.44 0.13 0.16 0.17 0.16 0.10
0.98 1.06 1.15 1.22 1.27 1.36 1.52 1.73 1.83 1.72 1.50 1.27 0.86 0.55 0.27 0.13 0.04 0.04 0.03 0.02 0.03 0.06 0.09 0.13 0.08 0.02 0.05 0.09 0.18 0.22 0.22 0.07 0.00 0.01 0.01 0.05 0.21 0.41 0.44 0.35 0.17 0.11 0.13 0.11 0.08 0.10 0.03
0.71 0.74 0.69 0.68 0.76 0.85 0.83 0.81 1.04 1.15 1.12 0.91 0.78 0.66 0.21 0.08 0.04 0.02 0.03 0.02 0.08 0.16 0.14 0.11 0.11 0.09 0.13 0.25 0.40 0.27 0.13 0.05 0.02 0.01 0.00 0.01 0.06 0.25 0.19 0.19 0.08 0.03 0.02 0.02 0.03 0.03 0.00
0.63 0.58 0.51 0.56 0.68 0.77 0.67 0.62 0.80 0.86 0.71 0.63 0.67 0.50 0.19 0.07 0.01 0.01 0.02 0.02 0.04 0.16 0.20 0.20 0.17 0.23 0.23 0.38 0.39 0.18 0.04 0.00 0.00 0.01 0.03 0.07 0.11 0.16 0.16 0.15 0.01 0.00 0.00 0.01 0.08 0.07 0.00
1.15 0.95 0.95 0.93 1.05 1.03 0.86 0.74 0.87 0.68 0.58 0.50 0.43 0.41 0.24 0.06 0.01 0.01 0.00 0.01 0.06 0.12 0.22 0.25 0.36 0.36 0.44 0.44 0.34 0.15 0.03 0.01 0.00 0.00 0.00 0.03 0.06 0.09 0.09 0.12 0.01 0.00 0.00 0.03 0.02 0.00 0.01
1.14 1.18 1.37 1.44 1.40 1.42 1.13 0.83 0.93 0.68 0.47 0.41 0.31 0.31 0.22 0.08 0.02 0.00 0.00 0.00 0.03 0.09 0.22 0.24 0.37 0.30 0.32 0.43 0.21 0.12 0.04 0.01 0.00 0.01 0.00 0.00 0.00 0.01 0.00 0.00 0.00 0.00 0.00 0.00 0.00 0.00 0.00

GFSGBSN_prec_precacc_123.txt.gz
Total_Precipitation_Accumulation
0.32 0.32 0.33 0.40 0.43 0.46 0.59 0.72 0.69 0.65 0.82 1.28 1.64 2.07 1.52 0.85 0.64 0.63 0.48 0.42 0.44 0.51 0.58 0.79 1.12 1.78 1.73 1.61 0.96 0.44 0.30 0.64 0.78 1.04 0.55 0.46 0.52 0.42 0.36 0.15 0.65 0.80 0.55 0.46 0.62 0.53 0.29
0.33 0.33 0.33 0.42 0.47 0.51 0.65 0.72 0.71 0.75 1.20 2.16 2.00 1.52 0.89 0.55 0.60 0.46 0.32 0.33 0.35 0.41 0.50 0.70 1.39 1.76 1.29 1.34 0.84 0.53 0.53 0.62 0.62 0.93 0.67 0.48 0.65 0.47 0.41 0.25 0.46 0.65 0.67 0.65 1.06 0.71 0.55
0.29 0.33 0.39 0.45 0.47 0.55 0.63 0.69 0.78 1.20 1.88 1.85 1.55 1.08 0.50 0.49 0.61 0.42 0.29 0.30 0.31 0.35 0.43 0.62 1.36 1.34 1.19 1.24 0.71 0.97 0.83 0.87 0.69 0.82 0.83 0.62 0.63 0.80 0.72 0.35 0.28 0.64 0.97 1.18 1.34 1.21 0.74
0.29 0.37 0.40 0.45 0.50 0.55 0.58 0.73 1.28 1.45 1.37 1.31 1.21 0.77 0.48 0.64 0.48 0.41 0.29 0.33 0.32 0.43 0.55 0.85 1.45 1.26 1.56 1.03 0.64 0.86 0.63 0.62 0.77 1.09 1.09 0.95 0.53 0.56 0.90 0.55 0.52 0.67 1.41 1.25 1.53 1.64 1.03
0.36 0.38 0.39 0.39 0.46 0.58 0.77 1.18 1.26 1.00 1.04 1.03 0.86 0.59 0.56 0.49 0.52 0.53 0.44 0.72 0.88 0.96 1.20 1.30 1.27 1.02 1.70 1.37 0.87 0.74 0.39 0.59 1.01 1.41 1.77 1.49 0.90 0.77 0.90 0.93 0.63 0.65 0.97 0.85 0.99 1.30 1.40
0.33 0.31 0.29 0.38 0.56 0.74 1.05 1.09 1.01 0.86 0.78 0.76 0.67 0.55 0.49 0.46 0.55 0.79 0.96 1.00 1.17 1.03 1.47 1.61 1.26 1.29 1.00 1.31 0.90 0.69 0.22 0.68 1.37 1.88 2.59 2.60 1.46 1.01 0.90 0.75 0.46 0.40 0.55 0.55 0.66 0.92 1.32
0.24 0.28 0.35 0.47 0.72 1.07 1.05 0.98 0.88 0.68 0.72 0.72 0.64 0.56 0.57 0.70 0.83 1.20 1.08 1.51 1.98 1.77 1.56 1.49 1.12 0.69 0.67 0.87 1.12 0.62 0.31 1.13 1.88 2.67 2.51 2.10 1.21 0.74 0.70 0.38 0.18 0.08 0.13 0.45 0.50 0.66 0.95
0.25 0.28 0.43 0.66 1.03 1.19 0.93 0.85 0.69 0.73 0.76 0.71 0.60 0.61 0.71 0.86 1.02 1.39 1.29 1.31 1.65 1.60 1.14 0.72 0.65 0.32 0.18 0.37 0.85 0.64 0.72 1.84 2.36 2.61 1.74 1.23 0.60 0.24 0.62 0.53 0.28 0.12 0.20 0.36 0.77 0.54 0.69
0.26 0.33 0.65 0.90 1.25 0.98 0.90 0.68 0.69 0.78 0.78 0.71 0.69 0.73 0.81 0.80 0.96 1.26 0.96 1.04 1.06 1.22 0.99 0.85 1.07 0.54 0.40 0.58 0.61 0.99 1.26 2.34 2.04 1.87 1.12 0.73 0.44 0.28 0.59 0.67 0.28 0.08 0.09 0.22 0.43 0.47 0.48
0.30 0.44 0.69 1.08 0.98 0.90 0.75 0.73 0.90 0.98 0.91 0.94 0.79 0.81 0.85 1.06 1.54 0.94 0.65 0.53 1.15 1.33 1.13 1.53 1.63 1.16 0.63 0.80 1.04 1.04 1.28 1.86 2.02 1.92 1.26 0.97 0.47 0.33 0.54 0.45 0.26 0.14 0.05 0.20 0.22 0.82 0.70
0.44 0.59 0.92 1.08 0.77 0.73 0.67 0.85 0.99 1.02 0.95 0.84 0.90 0.88 1.02 1.42 1.51 0.84 0.59 0.53 1.54 1.58 1.71 1.95 1.68 0.88 0.80 0.88 0.72 0.91 1.27 1.48 1.29 1.39 1.23 1.09 0.60 0.41 0.57 0.37 0.31 0.15 0.06 0.18 0.16 0.90 1.11
0.62 0.78 1.11 0.89 0.82 0.70 0.70 0.80 0.87 0.87 0.89 1.00 1.13 1.17 1.48 1.19 1.00 0.74 0.75 1.02 1.69 1.72 1.89 1.59 1.32 1.14 0.90 0.49 0.30 0.67 1.20 1.11 0.95 1.18 1.19 0.67 0.53 0.84 0.76 0.40 0.18 0.09 0.15 0.19 0.25 0.63 1.30
0.78 0.97 0.94 0.77 0.60 0.62 0.86 0.94 0.92 0.94 1.06 1.13 1.21 1.50 1.57 1.23 0.87 0.90 1.33 1.56 1.57 1.35 1.13 0.92 0.92 0.41 0.22 0.27 0.29 0.75 1.06 0.98 1.21 2.00 1.94 1.48 1.16 1.01 0.69 0.54 0.27 0.14 0.48 1.04 0.89 1.16 0.74
0.84 0.87 0.79 0.67 0.65 0.87 1.00 1.02 1.06 1.15 1.15 1.07 1.56 1.45 1.33 0.95 0.81 1.30 1.87 1.50 1.20 1.11 0.74 0.46 0.14 0.11 0.14 0.13 0.26 0.49 0.87 0.87 0.67 0.78 1.02 1.41 1.17 0.81 0.53 0.38 0.45 0.32 0.48 1.01 0.72 0.60 0.50
0.81 0.78 0.76 0.68 0.86 0.95 1.01 1.04 0.99 1.07 1.23 1.56 1.89 1.80 1.64 1.22 1.06 1.37 1.74 1.27 1.49 0.85 0.49 0.19 0.15 0.20 0.17 0.15 0.20 0.43 0.80 0.54 0.16 0.15 0.41 0.58 0.46 0.35 0.36 0.14 0.38 0.50 0.51 0.38 0.83 0.54 0.64
0.71 0.78 0.74 0.69 0.78 0.98 1.03 1.08 1.16 1.51 1.78 1.97 2.28 2.58 1.75 1.02 1.18 1.64 1.47 1.16 0.78 0.25 0.05 0.04 0.17 0.11 0.06 0.05 0.15 0.23 0.37 0.13 0.08 0.03 0.08 0.12 0.34 0.25 0.29 0.32 0.33 0.40 0.27 0.66 1.28 0.91 0.60
0.63 0.75 0.68 0.75 0.88 1.07 1.25 1.44 1.77 2.16 2.32 2.81 2.19 2.91 2.01 1.18 1.77 1.97 1.33 1.01 0.41 0.07 0.03 0.06 0.05 0.05 0.02 0.02 0.03 0.04 0.04 0.03 0.00 0.00 0.02 0.09 0.16 0.23 0.46 0.40 0.26 0.37 0.58 0.49 0.69 0.61 0.57
0.68 0.72 0.76 0.88 1.03 1.18 1.49 1.54 1.63 2.09 2.52 3.24 3.02 2.48 2.30 1.82 2.25 1.44 0.73 0.65 0.34 0.12 0.05 0.10 0.10 0.04 0.01 0.01 0.01 0.01 0.01 0.02 0.00 0.00 0.01 0.01 0.18 0.27 0.20 0.08 0.08 0.16 0.24 0.29 0.67 0.58 0.38
0.60 0.65 0.77 0.90 1.08 1.16 1.30 1.22 1.21 1.77 2.40 2.74 2.59 2.41 2.79 1.54 0.97 0.60 0.60 0.29 0.22 0.16 0.10 0.13 0.09 0.04 0.01 0.01 0.01 0.01 0.00 0.00 0.00 0.00 0.00 0.05 0.30 0.41 0.37 0.35 0.35 0.32 0.26 0.38 0.42 0.81 0.70
0.68 0.72 0.88 0.98 1.18 1.28 1.30 1.10 1.05 1.54 1.95 2.61 2.20 2.60 3.24 2.26 0.55 0.23 0.31 0.26 0.21 0.09 0.07 0.12 0.14 0.08 0.04 0.02 0.00 0.00 0.00 0.00 0.00 0.00 0.02 0.20 0.40 0.59 0.60 0.53 0.71 0.51 0.28 0.50 0.96 1.20 0.39
0.64 0.79 0.96 1.11 1.18 1.34 1.41 1.47 1.69 1.98 2.11 2.49 1.72 1.19 0.90 1.03 0.46 0.18 0.24 0.22 0.14 0.14 0.11 0.15 0.13 0.09 0.06 0.04 0.01 0.00 0.00 0.01 0.01 0.02 0.13 0.45 0.81 0.91 0.42 0.32 0.62 0.60 0.30 0.42 0.97 0.54 0.45
0.68 0.73 0.88 0.94 0.99 1.04 1.11 1.19 1.57 2.32 2.55 2.08 1.35 0.69 0.31 0.19 0.16 0.14 0.15 0.14 0.10 0.13 0.16 0.15 0.09 0.04 0.05 0.05 0.02 0.01 0.00 0.00 0.01 0.02 0.12 0.33 0.74 0.74 0.46 0.33 0.34 0.33 0.13 0.24 0.54 0.38 0.25
0.68 0.73 0.84 0.93 0.94 1.00 1.03 1.09 1.37 2.12 2.76 2.15 1.32 0.77 0.36 0.31 0.17 0.15 0.08 0.03 0.02 0.11 0.09 0.05 0.06 0.09 0.06 0.04 0.03 0.02 0.01 0.02 0.01 0.02 0.11 0.34 0.50 0.79 0.67 0.40 0.38 0.32 0.08 0.17 0.38 0.32 0.16
0.95 1.11 1.36 1.56 1.62 1.69 1.94 1.84 1.59 1.82 2.36 2.04 1.21 0.77 0.33 0.19 0.08 0.04 0.01 0.01 0.01 0.07 0.10 0.06 0.03 0.08 0.05 0.04 0.05 0.06 0.02 0.02 0.02 0.01 0.03 0.18 0.39 0.74 0.95 0.76 0.75 0.44 0.13 0.16 0.17 0.16 0.10
0.98 1.06 1.15 1.22 1.27 1.36 1.52 1.73 1.83 1.72 1.50 1.27 0.86 0.55 0.27 0.13 0.04 0.04 0.03 0.02 0.03 0.06 0.09 0.13 0.08 0.02 0.05 0.09 0.18 0.22 0.22 0.07 0.00 0.01 0.01 0.05 0.21 0.41 0.44 0.35 0.17 0.11 0.13 0.11 0.08 0.10 0.03
0.72 0.75 0.69 0.68 0.76 0.85 0.83 0.81 1.04 1.15 1.12 0.91 0.78 0.66 0.21 0.08 0.04 0.02 0.03 0.02 0.08 0.16 0.14 0.11 0.11 0.09 0.13 0.25 0.40 0.27 0.13 0.05 0.02 0.01 0.00 0.01 0.06 0.25 0.19 0.19 0.08 0.03 0.02 0.02 0.03 0.03 0.00
0.63 0.58 0.51 0.56 0.68 0.77 0.67 0.62 0.80 0.86 0.71 0.63 0.67 0.50 0.19 0.07 0.01 0.01 0.02 0.02 0.04 0.16 0.20 0.20 0.17 0.23 0.23 0.38 0.39 0.18 0.04 0.00 0.00 0.01 0.03 0.07 0.11 0.16 0.16 0.15 0.01 0.00 0.00 0.01 0.08 0.07 0.00
1.15 0.95 0.95 0.93 1.05 1.03 0.86 0.74 0.87 0.68 0.58 0.50 0.43 0.41 0.24 0.06 0.01 0.01 0.00 0.01 0.06 0.12 0.22 0.25 0.36 0.36 0.44 0.44 0.34 0.15 0.03 0.01 0.00 0.00 0.00 0.03 0.06 0.09 0.09 0.12 0.01 0.00 0.00 0.03 0.02 0.00 0.01
1.14 1.18 1.37 1.44 1.40 1.42 1.14 0.83 0.93 0.68 0.47 0.41 0.31 0.31 0.22 0.08 0.02 0.00 0.00 0.00 0.03 0.09 0.22 0.24 0.37 0.30 0.32 0.43 0.21 0.12 0.04 0.01 0.00 0.01 0.00 0.00 0.00 0.01 0.00 0.00 0.00 0.00 0.00 0.00 0.00 0.00 0.00

GFSGBSN_prec_precacc_126.txt.gz
Total_Precipitation_Accumulation
0.33 0.33 0.33 0.41 0.45 0.47 0.59 0.72 0.69 0.65 0.82 1.29 1.68 2.10 1.53 0.86 0.65 0.63 0.48 0.42 0.45 0.54 0.65 1.01 1.36 2.12 2.14 1.88 1.28 0.61 0.31 0.64 0.78 1.04 0.55 0.46 0.52 0.42 0.36 0.15 0.65 0.80 0.55 0.46 0.62 0.53 0.29
0.33 0.34 0.34 0.42 0.48 0.52 0.66 0.72 0.71 0.75 1.20 2.16 2.03 1.55 0.91 0.58 0.61 0.46 0.32 0.33 0.37 0.43 0.53 0.78 1.48 1.88 1.44 1.58 1.13 0.65 0.54 0.62 0.62 0.93 0.67 0.48 0.65 0.47 0.41 0.25 0.46 0.65 0.67 0.65 1.06 0.71 0.55
0.30 0.33 0.39 0.45 0.48 0.55 0.64 0.69 0.78 1.20 1.88 1.85 1.55 1.09 0.53 0.54 0.65 0.44 0.31 0.33 0.35 0.38 0.44 0.63 1.38 1.36 1.25 1.48 0.92 1.04 0.83 0.87 0.69 0.82 0.83 0.62 0.63 0.80 0.72 0.35 0.28 0.64 0.97 1.18 1.34 1.21 0.74
0.30 0.37 0.40 0.45 0.50 0.55 0.59 0.73 1.29 1.45 1.37 1.31 1.21 0.77 0.49 0.66 0.52 0.42 0.30 0.35 0.34 0.44 0.55 0.85 1.45 1.27 1.65 1.19 0.75 0.88 0.63 0.62 0.77 1.09 1.09 0.95 0.53 0.56 0.90 0.55 0.52 0.67 1.41 1.25 1.53 1.64 1.03
0.36 0.38 0.40 0.40 0.47 0.59 0.78 1.19 1.27 1.00 1.04 1.03 0.86 0.59 0.56 0.49 0.53 0.54 0.45 0.73 0.88 0.96 1.20 1.30 1.27 1.03 1.78 1.42 0.93 0.74 0.39 0.59 1.01 1.41 1.77 1.49 0.90 0.77 0.90 0.93 0.63 0.65 0.97 0.85 0.99 1.30 1.40
0.34 0.31 0.29 0.39 0.56 0.75 1.06 1.09 1.01 0.86 0.78 0.76 0.67 0.55 0.49 0.46 0.55 0.79 0.96 1.00 1.17 1.03 1.47 1.61 1.26 1.30 1.06 1.34 0.92 0.70 0.22 0.68 1.37 1.88 2.59 2.60 1.46 1.01 0.90 0.75 0.46 0.40 0.55 0.55 0.66 0.92 1.32
0.25 0.28 0.35 0.47 0.72 1.07 1.06 0.99 0.88 0.68 0.72 0.72 0.64 0.56 0.57 0.70 0.83 1.20 1.08 1.51 1.98 1.77 1.56 1.49 1.12 0.69 0.67 0.87 1.13 0.62 0.31 1.13 1.88 2.67 2.51 2.10 1.21 0.74 0.70 0.38 0.18 0.08 0.13 0.45 0.50 0.66 0.95
0.26 0.29 0.43 0.67 1.03 1.19 0.93 0.85 0.70 0.73 0.76 0.71 0.60 0.61 0.71 0.86 1.02 1.39 1.29 1.31 1.65 1.60 1.14 0.73 0.65 0.32 0.18 0.37 0.85 0.64 0.72 1.84 2.36 2.61 1.74 1.23 0.60 0.24 0.62 0.53 0.28 0.12 0.20 0.36 0.77 0.54 0.69
0.27 0.34 0.65 0.90 1.26 0.98 0.90 0.68 0.69 0.78 0.78 0.71 0.69 0.73 0.81 0.80 0.96 1.26 0.96 1.04 1.06 1.22 0.99 0.85 1.07 0.54 0.40 0.58 0.61 0.99 1.26 2.34 2.04 1.87 1.12 0.73 0.44 0.28 0.59 0.67 0.28 0.08 0.09 0.22 0.43 0.47 0.48
0.31 0.45 0.69 1.09 0.98 0.91 0.76 0.73 0.90 0.98 0.91 0.94 0.79 0.81 0.85 1.06 1.54 0.94 0.65 0.53 1.15 1.33 1.13 1.53 1.63 1.16 0.63 0.80 1.04 1.04 1.28 1.86 2.02 1.92 1.26 0.97 0.47 0.33 0.54 0.45 0.26 0.14 0.05 0.20 0.22 0.82 0.70
0.45 0.60 0.93 1.08 0.78 0.74 0.68 0.85 0.99 1.02 0.95 0.84 0.90 0.88 1.02 1.42 1.51 0.84 0.59 0.53 1.54 1.58 1.72 1.95 1.68 0.88 0.80 0.88 0.72 0.91 1.27 1.48 1.29 1.39 1.23 1.09 0.60 0.41 0.57 0.37 0.31 0.15 0.06 0.18 0.16 0.90 1.11
0.62 0.79 1.11 0.89 0.82 0.71 0.71 0.80 0.87 0.87 0.89 1.00 1.13 1.17 1.48 1.19 1.00 0.74 0.75 1.02 1.69 1.72 1.90 1.59 1.32 1.14 0.90 0.49 0.30 0.67 1.20 1.11 0.95 1.18 1.19 0.67 0.53 0.84 0.76 0.40 0.18 0.09 0.15 0.19 0.25 0.63 1.30
0.79 0.97 0.94 0.77 0.60 0.63 0.86 0.94 0.92 0.94 1.06 1.13 1.21 1.50 1.57 1.23 0.87 0.90 1.33 1.56 1.57 1.35 1.13 0.92 0.92 0.41 0.22 0.27 0.29 0.75 1.06 0.98 1.21 2.00 1.94 1.48 1.16 1.01 0.69 0.54 0.27 0.14 0.48 1.04 0.89 1.16 0.74
0.85 0.87 0.79 0.68 0.65 0.87 1.00 1.02 1.06 1.15 1.15 1.07 1.56 1.45 1.33 0.95 0.81 1.30 1.87 1.50 1.20 1.11 0.74 0.46 0.14 0.11 0.14 0.13 0.26 0.49 0.87 0.87 0.67 0.78 1.02 1.41 1.17 0.81 0.53 0.38 0.45 0.32 0.48 1.01 0.72 0.60 0.50
0.81 0.78 0.76 0.68 0.86 0.95 1.01 1.04 0.99 1.07 1.23 1.56 1.89 1.80 1.64 1.22 1.06 1.37 1.74 1.27 1.49 0.85 0.49 0.19 0.15 0.20 0.17 0.15 0.20 0.43 0.80 0.54 0.16 0.15 0.41 0.58 0.46 0.35 0.36 0.14 0.38 0.50 0.51 0.38 0.83 0.54 0.64
0.71 0.78 0.74 0.69 0.78 0.98 1.03 1.08 1.16 1.51 1.78 1.97 2.28 2.58 1.75 1.02 1.18 1.64 1.47 1.16 0.78 0.25 0.05 0.04 0.17 0.11 0.06 0.05 0.15 0.23 0.37 0.13 0.08 0.03 0.08 0.12 0.34 0.25 0.29 0.32 0.33 0.40 0.28 0.66 1.28 0.91 0.60
0.63 0.75 0.68 0.75 0.88 1.07 1.25 1.44 1.77 2.16 2.32 2.81 2.19 2.91 2.01 1.18 1.77 1.97 1.33 1.01 0.41 0.07 0.03 0.06 0.05 0.05 0.02 0.02 0.03 0.04 0.04 0.03 0.00 0.00 0.02 0.09 0.16 0.23 0.46 0.40 0.26 0.37 0.58 0.49 0.69 0.61 0.57
0.68 0.72 0.76 0.88 1.03 1.18 1.49 1.54 1.63 2.09 2.52 3.24 3.02 2.48 2.30 1.82 2.25 1.44 0.73 0.65 0.34 0.12 0.05 0.10 0.10 0.04 0.01 0.01 0.01 0.01 0.01 0.02 0.00 0.00 0.01 0.01 0.18 0.27 0.20 0.08 0.08 0.16 0.24 0.29 0.67 0.58 0.38
0.60 0.65 0.77 0.90 1.08 1.16 1.30 1.22 1.21 1.77 2.40 2.74 2.59 2.41 2.79 1.54 0.97 0.60 0.60 0.29 0.22 0.16 0.10 0.13 0.09 0.04 0.01 0.01 0.01 0.01 0.00 0.00 0.00 0.00 0.00 0.05 0.30 0.41 0.37 0.35 0.35 0.32 0.26 0.38 0.42 0.81 0.70
0.68 0.72 0.88 0.98 1.18 1.28 1.30 1.10 1.05 1.54 1.95 2.61 2.20 2.60 3.24 2.26 0.55 0.23 0.31 0.26 0.21 0.09 0.07 0.12 0.14 0.08 0.04 0.02 0.00 0.00 0.00 0.00 0.00 0.00 0.02 0.20 0.40 0.59 0.60 0.53 0.71 0.51 0.28 0.50 0.96 1.20 0.39
0.64 0.79 0.96 1.11 1.18 1.34 1.41 1.47 1.69 1.98 2.11 2.49 1.72 1.19 0.90 1.03 0.46 0.18 0.24 0.22 0.14 0.14 0.11 0.15 0.13 0.09 0.06 0.04 0.01 0.00 0.00 0.01 0.01 0.02 0.13 0.45 0.81 0.91 0.42 0.32 0.62 0.60 0.30 0.42 0.97 0.54 0.45
0.68 0.73 0.88 0.94 0.99 1.04 1.11 1.19 1.57 2.32 2.55 2.08 1.35 0.69 0.31 0.19 0.16 0.14 0.15 0.14 0.10 0.13 0.16 0.15 0.09 0.04 0.05 0.05 0.02 0.01 0.00 0.00 0.01 0.02 0.12 0.33 0.74 0.74 0.46 0.33 0.34 0.33 0.13 0.24 0.54 0.38 0.25
0.69 0.73 0.84 0.93 0.94 1.00 1.03 1.09 1.37 2.12 2.76 2.15 1.32 0.77 0.36 0.31 0.17 0.15 0.08 0.03 0.02 0.11 0.09 0.05 0.06 0.09 0.06 0.04 0.03 0.02 0.01 0.02 0.01 0.02 0.11 0.34 0.50 0.79 0.67 0.40 0.38 0.32 0.08 0.17 0.38 0.32 0.16
0.95 1.11 1.36 1.56 1.62 1.69 1.94 1.84 1.59 1.82 2.36 2.04 1.21 0.77 0.33 0.19 0.08 0.04 0.01 0.01 0.01 0.07 0.10 0.06 0.03 0.08 0.05 0.04 0.05 0.06 0.02 0.02 0.02 0.01 0.03 0.18 0.39 0.74 0.95 0.76 0.75 0.44 0.13 0.16 0.17 0.16 0.10
0.98 1.06 1.16 1.22 1.27 1.36 1.52 1.73 1.83 1.72 1.50 1.27 0.86 0.55 0.27 0.13 0.04 0.04 0.03 0.02 0.03 0.06 0.09 0.13 0.08 0.02 0.05 0.09 0.18 0.22 0.22 0.07 0.00 0.01 0.01 0.05 0.21 0.41 0.44 0.35 0.17 0.11 0.13 0.11 0.08 0.10 0.03
0.72 0.75 0.69 0.69 0.77 0.85 0.83 0.81 1.04 1.15 1.12 0.91 0.78 0.66 0.21 0.08 0.04 0.02 0.03 0.02 0.08 0.16 0.14 0.11 0.11 0.09 0.13 0.25 0.40 0.27 0.13 0.05 0.02 0.01 0.00 0.01 0.06 0.25 0.19 0.19 0.08 0.03 0.02 0.02 0.03 0.03 0.00
0.63 0.58 0.51 0.56 0.68 0.77 0.67 0.62 0.80 0.86 0.71 0.63 0.67 0.50 0.19 0.07 0.01 0.01 0.02 0.02 0.04 0.16 0.20 0.20 0.17 0.23 0.23 0.38 0.39 0.18 0.04 0.00 0.00 0.01 0.03 0.07 0.11 0.16 0.16 0.15 0.01 0.00 0.00 0.01 0.08 0.07 0.00
1.15 0.95 0.95 0.94 1.05 1.03 0.86 0.74 0.87 0.68 0.58 0.50 0.43 0.41 0.24 0.06 0.01 0.01 0.00 0.01 0.06 0.12 0.22 0.25 0.36 0.36 0.44 0.44 0.34 0.15 0.03 0.01 0.00 0.00 0.00 0.03 0.06 0.09 0.09 0.12 0.01 0.00 0.00 0.03 0.02 0.00 0.01
1.15 1.18 1.37 1.44 1.40 1.42 1.14 0.83 0.93 0.68 0.47 0.41 0.31 0.31 0.22 0.08 0.02 0.00 0.00 0.00 0.03 0.09 0.22 0.24 0.37 0.30 0.32 0.43 0.21 0.12 0.04 0.01 0.00 0.01 0.00 0.00 0.00 0.01 0.00 0.00 0.00 0.00 0.00 0.00 0.00 0.00 0.00

GFSGBSN_prec_precacc_129.txt.gz
Total_Precipitation_Accumulation
0.34 0.33 0.34 0.42 0.46 0.48 0.59 0.72 0.69 0.65 0.82 1.30 1.71 2.13 1.58 0.88 0.65 0.63 0.50 0.50 0.66 0.77 0.77 1.11 1.52 2.46 2.49 2.39 1.63 0.64 0.31 0.64 0.78 1.04 0.55 0.46 0.52 0.42 0.36 0.15 0.65 0.80 0.55 0.46 0.62 0.53 0.29
0.34 0.35 0.34 0.43 0.49 0.53 0.66 0.72 0.71 0.75 1.20 2.16 2.04 1.57 0.93 0.62 0.63 0.50 0.37 0.42 0.51 0.54 0.62 0.94 1.62 2.23 1.62 1.89 1.26 0.66 0.54 0.62 0.62 0.93 0.67 0.48 0.65 0.47 0.41 0.25 0.46 0.65 0.67 0.65 1.06 0.71 0.55
0.30 0.34 0.39 0.46 0.48 0.56 0.64 0.69 0.78 1.20 1.88 1.85 1.55 1.09 0.53 0.55 0.70 0.51 0.37 0.39 0.46 0.46 0.50 0.76 1.53 1.56 1.40 1.71 0.97 1.04 0.83 0.87 0.69 0.82 0.83 0.62 0.63 0.80 0.72 0.35 0.28 0.64 0.97 1.18 1.34 1.21 0.74
0.30 0.37 0.41 0.46 0.51 0.56 0.60 0.74 1.29 1.45 1.37 1.31 1.21 0.77 0.49 0.66 0.52 0.46 0.35 0.37 0.35 0.45 0.58 0.92 1.56 1.38 1.79 1.24 0.76 0.88 0.63 0.62 0.77 1.09 1.09 0.95 0.53 0.56 0.90 0.55 0.52 0.67 1.41 1.25 1.53 1.64 1.03
0.36 0.38 0.40 0.40 0.47 0.59 0.78 1.19 1.27 1.00 1.04 1.03 0.86 0.59 0.56 0.49 0.53 0.54 0.46 0.73 0.88 0.96 1.20 1.31 1.29 1.05 1.83 1.44 0.94 0.74 0.39 0.59 1.01 1.41 1.77 1.49 0.90 0.77 0.90 0.93 0.63 0.65 0.97 0.85 0.99 1.30 1.40
0.34 0.32 0.29 0.39 0.57 0.75 1.06 1.10 1.01 0.86 0.78 0.76 0.67 0.55 0.49 0.46 0.55 0.79 0.96 1.00 1.17 1.03 1.47 1.61 1.26 1.31 1.09 1.36 0.92 0.70 0.22 0.68 1.37 1.88 2.59 2.60 1.46 1.01 0.90 0.75 0.46 0.40 0.55 0.55 0.66 0.92 1.32
0.26 0.29 0.35 0.47 0.73 1.07 1.06 0.99 0.88 0.68 0.72 0.72 0.64 0.56 0.57 0.70 0.83 1.20 1.08 1.51 1.98 1.77 1.56 1.49 1.12 0.69 0.68 0.87 1.13 0.62 0.31 1.13 1.88 2.67 2.51 2.10 1.21 0.74 0.70 0.38 0.18 0.08 0.13 0.45 0.50 0.66 0.95
0.27 0.29 0.43 0.67 1.04 1.20 0.94 0.85 0.70 0.73 0.76 0.71 0.60 0.61 0.71 0.86 1.02 1.39 1.29 1.31 1.65 1.60 1.14 0.73 0.65 0.32 0.18 0.37 0.85 0.64 0.72 1.84 2.36 2.61 1.74 1.23 0.60 0.24 0.62 0.53 0.28 0.12 0.20 0.36 0.77 0.54 0.69
0.27 0.35 0.66 0.90 1.26 0.98 0.91 0.69 0.69 0.78 0.78 0.71 0.69 0.73 0.81 0.80 0.96 1.26 0.96 1.04 1.06 1.22 0.99 0.85 1.07 0.54 0.40 0.58 0.61 0.99 1.26 2.34 2.04 1.87 1.12 0.73 0.44 0.28 0.59 0.67 0.28 0.08 0.09 0.22 0.43 0.47 0.48
0.32 0.45 0.69 1.09 0.98 0.91 0.76 0.73 0.90 0.98 0.91 0.94 0.79 0.81 0.85 1.06 1.54 0.94 0.65 0.53 1.15 1.33 1.13 1.53 1.63 1.16 0.63 0.80 1.04 1.04 1.28 1.86 2.02 1.92 1.26 0.97 0.47 0.33 0.54 0.45 0.26 0.14 0.05 0.20 0.22 0.82 0.70
0.45 0.61 0.93 1.08 0.78 0.74 0.68 0.85 0.99 1.02 0.95 0.84 0.90 0.88 1.02 1.42 1.51 0.84 0.59 0.53 1.54 1.58 1.72 1.95 1.68 0.88 0.80 0.88 0.72 0.91 1.27 1.48 1.29 1.39 1.23 1.09 0.60 0.41 0.57 0.37 0.31 0.15 0.06 0.18 0.16 0.90 1.11
0.62 0.79 1.12 0.89 0.82 0.71 0.71 0.80 0.87 0.87 0.89 1.00 1.13 1.17 1.48 1.19 1.00 0.74 0.75 1.02 1.69 1.72 1.90 1.59 1.32 1.14 0.90 0.49 0.30 0.67 1.20 1.11 0.95 1.18 1.19 0.67 0.53 0.84 0.76 0.40 0.18 0.09 0.15 0.19 0.25 0.63 1.30
0.79 0.97 0.94 0.77 0.60 0.63 0.86 0.94 0.92 0.94 1.06 1.13 1.21 1.50 1.57 1.23 0.87 0.90 1.33 1.56 1.57 1.35 1.13 0.92 0.92 0.41 0.22 0.27 0.29 0.75 1.06 0.98 1.21 2.00 1.94 1.48 1.16 1.01 0.69 0.54 0.27 0.14 0.48 1.04 0.89 1.16 0.74
0.85 0.87 0.79 0.68 0.65 0.87 1.00 1.02 1.06 1.15 1.15 1.07 1.56 1.45 1.33 0.95 0.81 1.30 1.87 1.50 1.20 1.11 0.74 0.46 0.14 0.11 0.14 0.13 0.26 0.49 0.87 0.87 0.67 0.78 1.02 1.41 1.17 0.81 0.53 0.38 0.45 0.32 0.48 1.01 0.72 0.60 0.50
0.81 0.78 0.76 0.68 0.86 0.95 1.01 1.04 0.99 1.07 1.23 1.56 1.89 1.80 1.64 1.22 1.06 1.37 1.74 1.27 1.49 0.85 0.49 0.19 0.15 0.20 0.17 0.15 0.20 0.43 0.80 0.54 0.16 0.15 0.41 0.58 0.46 0.35 0.36 0.14 0.38 0.50 0.51 0.38 0.83 0.54 0.64
0.71 0.78 0.74 0.69 0.78 0.98 1.03 1.08 1.16 1.51 1.78 1.97 2.28 2.58 1.75 1.02 1.18 1.64 1.47 1.16 0.78 0.25 0.05 0.04 0.17 0.11 0.06 0.05 0.15 0.23 0.37 0.13 0.08 0.03 0.08 0.12 0.34 0.25 0.29 0.32 0.33 0.40 0.28 0.66 1.28 0.91 0.60
0.64 0.75 0.68 0.75 0.88 1.07 1.25 1.44 1.77 2.16 2.32 2.81 2.19 2.91 2.01 1.18 1.77 1.97 1.33 1.01 0.41 0.07 0.03 0.06 0.05 0.05 0.02 0.02 0.03 0.04 0.04 0.03 0.00 0.00 0.02 0.09 0.16 0.23 0.46 0.40 0.26 0.37 0.58 0.49 0.69 0.61 0.57
0.69 0.72 0.76 0.88 1.03 1.18 1.49 1.54 1.63 2.09 2.52 3.24 3.02 2.48 2.30 1.82 2.25 1.44 0.73 0.65 0.34 0.12 0.05 0.10 0.10 0.04 0.01 0.01 0.01 0.01 0.01 0.02 0.00 0.00 0.01 0.01 0.18 0.27 0.20 0.08 0.08 0.16 0.24 0.29 0.67 0.58 0.38
0.60 0.65 0.77 0.90 1.08 1.16 1.30 1.22 1.21 1.77 2.40 2.74 2.59 2.41 2.79 1.54 0.97 0.60 0.60 0.29 0.22 0.16 0.10 0.13 0.09 0.04 0.01 0.01 0.01 0.01 0.00 0.00 0.00 0.00 0.00 0.05 0.30 0.41 0.37 0.35 0.35 0.32 0.26 0.38 0.42 0.81 0.70
0.69 0.73 0.88 0.98 1.18 1.28 1.30 1.10 1.05 1.54 1.95 2.61 2.20 2.60 3.24 2.26 0.55 0.23 0.31 0.26 0.21 0.09 0.07 0.12 0.14 0.08 0.04 0.02 0.00 0.00 0.00 0.00 0.00 0.00 0.02 0.20 0.40 0.59 0.60 0.53 0.71 0.51 0.28 0.50 0.96 1.20 0.39
0.65 0.80 0.96 1.11 1.18 1.34 1.41 1.47 1.69 1.98 2.11 2.49 1.72 1.19 0.90 1.03 0.46 0.18 0.24 0.22 0.14 0.14 0.11 0.15 0.13 0.09 0.06 0.04 0.01 0.00 0.00 0.01 0.01 0.02 0.13 0.45 0.81 0.91 0.42 0.32 0.62 0.60 0.30 0.42 0.97 0.54 0.45
0.69 0.74 0.89 0.94 0.99 1.04 1.11 1.19 1.57 2.32 2.55 2.08 1.35 0.69 0.31 0.19 0.16 0.14 0.15 0.14 0.10 0.13 0.16 0.15 0.09 0.04 0.05 0.05 0.02 0.01 0.00 0.00 0.01 0.02 0.12 0.33 0.74 0.74 0.46 0.33 0.34 0.33 0.13 0.24 0.54 0.38 0.25
0.69 0.74 0.85 0.93 0.94 1.00 1.03 1.09 1.37 2.12 2.76 2.15 1.32 0.77 0.36 0.31 0.17 0.15 0.08 0.03 0.02 0.11 0.09 0.05 0.06 0.09 0.06 0.04 0.03 0.02 0.01 0.02 0.01 0.02 0.11 0.34 0.50 0.79 0.67 0.40 0.38 0.32 0.08 0.17 0.38 0.32 0.16
0.95 1.12 1.36 1.56 1.62 1.69 1.94 1.84 1.59 1.82 2.36 2.04 1.21 0.77 0.33 0.19 0.08 0.04 0.01 0.01 0.01 0.07 0.10 0.06 0.03 0.08 0.05 0.04 0.05 0.06 0.02 0.02 0.02 0.01 0.03 0.18 0.39 0.74 0.95 0.76 0.75 0.44 0.13 0.16 0.17 0.16 0.10
0.98 1.06 1.17 1.23 1.28 1.36 1.52 1.73 1.83 1.72 1.50 1.27 0.86 0.55 0.27 0.13 0.04 0.04 0.03 0.02 0.03 0.06 0.09 0.13 0.08 0.02 0.05 0.09 0.18 0.22 0.22 0.07 0.00 0.01 0.01 0.05 0.21 0.41 0.44 0.35 0.17 0.11 0.13 0.11 0.08 0.10 0.03
0.72 0.75 0.70 0.70 0.77 0.85 0.83 0.81 1.04 1.15 1.12 0.91 0.78 0.66 0.21 0.08 0.04 0.02 0.03 0.02 0.08 0.16 0.14 0.11 0.11 0.09 0.13 0.25 0.40 0.27 0.13 0.05 0.02 0.01 0.00 0.01 0.06 0.25 0.19 0.19 0.08 0.03 0.02 0.02 0.03 0.03 0.00
0.64 0.58 0.51 0.56 0.68 0.77 0.67 0.62 0.80 0.86 0.71 0.63 0.67 0.50 0.19 0.07 0.01 0.01 0.02 0.02 0.04 0.16 0.20 0.20 0.17 0.23 0.23 0.38 0.39 0.18 0.04 0.00 0.00 0.01 0.03 0.07 0.11 0.16 0.16 0.15 0.01 0.00 0.00 0.01 0.08 0.07 0.00
1.16 0.95 0.96 0.94 1.05 1.03 0.86 0.74 0.87 0.68 0.58 0.50 0.43 0.41 0.24 0.06 0.01 0.01 0.00 0.01 0.06 0.12 0.22 0.25 0.36 0.36 0.44 0.44 0.34 0.15 0.03 0.01 0.00 0.00 0.00 0.03 0.06 0.09 0.09 0.12 0.01 0.00 0.00 0.03 0.02 0.00 0.01
1.15 1.19 1.37 1.45 1.41 1.42 1.14 0.83 0.93 0.68 0.47 0.41 0.31 0.31 0.22 0.08 0.02 0.00 0.00 0.00 0.03 0.09 0.22 0.24 0.37 0.30 0.32 0.43 0.21 0.12 0.04 0.01 0.00 0.01 0.00 0.00 0.00 0.01 0.00 0.00 0.00 0.00 0.00 0.00 0.00 0.00 0.00

GFSGBSN_prec_precacc_135.txt.gz
Total_Precipitation_Accumulation
0.34 0.34 0.35 0.44 0.48 0.49 0.60 0.72 0.70 0.66 0.83 1.32 1.72 2.14 1.60 0.93 0.82 1.05 1.08 1.11 1.12 1.06 0.88 1.23 1.60 2.53 2.69 2.70 1.90 0.64 0.31 0.64 0.78 1.04 0.55 0.46 0.52 0.42 0.36 0.15 0.65 0.80 0.55 0.46 0.62 0.53 0.29
0.35 0.35 0.35 0.45 0.51 0.55 0.66 0.72 0.71 0.75 1.20 2.17 2.04 1.57 0.94 0.63 0.72 0.83 1.03 1.04 0.91 0.84 0.79 1.01 1.65 2.29 1.73 2.09 1.36 0.66 0.54 0.62 0.62 0.93 0.67 0.48 0.65 0.47 0.41 0.25 0.46 0.65 0.67 0.65 1.06 0.71 0.55
0.31 0.35 0.40 0.47 0.50 0.58 0.65 0.69 0.78 1.20 1.88 1.85 1.55 1.09 0.53 0.56 0.74 0.58 0.53 0.69 0.74 0.73 0.72 0.85 1.55 1.59 1.47 1.85 0.98 1.04 0.83 0.87 0.69 0.82 0.83 0.62 0.63 0.80 0.72 0.35 0.28 0.64 0.97 1.18 1.34 1.21 0.74
0.31 0.39 0.42 0.47 0.52 0.57 0.61 0.74 1.29 1.45 1.37 1.31 1.21 0.77 0.49 0.66 0.52 0.48 0.42 0.46 0.47 0.60 0.72 0.98 1.58 1.40 1.88 1.28 0.76 0.88 0.63 0.62 0.77 1.09 1.09 0.95 0.53 0.56 0.90 0.55 0.52 0.67 1.41 1.25 1.53 1.64 1.03
0.38 0.39 0.41 0.42 0.48 0.60 0.79 1.19 1.27 1.00 1.04 1.03 0.86 0.59 0.56 0.49 0.53 0.54 0.46 0.76 0.91 1.00 1.26 1.38 1.36 1.08 1.95 1.47 0.94 0.74 0.39 0.59 1.01 1.41 1.77 1.49 0.90 0.77 0.90 0.93 0.63 0.65 0.97 0.85 0.99 1.30 1.40
0.36 0.33 0.30 0.40 0.59 0.77 1.08 1.10 1.01 0.86 0.78 0.76 0.67 0.55 0.49 0.46 0.55 0.79 0.96 1.00 1.17 1.04 1.49 1.66 1.30 1.35 1.20 1.39 0.92 0.70 0.22 0.68 1.37 1.88 2.59 2.60 1.46 1.01 0.90 0.75 0.46 0.40 0.55 0.55 0.66 0.92 1.32
0.28 0.29 0.36 0.49 0.74 1.09 1.08 1.00 0.89 0.68 0.72 0.72 0.64 0.56 0.57 0.70 0.83 1.20 1.08 1.51 1.98 1.77 1.56 1.51 1.14 0.70 0.70 0.87 1.13 0.62 0.31 1.13 1.88 2.67 2.51 2.10 1.21 0.74 0.70 0.38 0.18 0.08 0.13 0.45 0.50 0.66 0.95
0.28 0.30 0.44 0.68 1.05 1.21 0.95 0.86 0.70 0.73 0.76 0.71 0.60 0.61 0.71 0.86 1.02 1.39 1.29 1.31 1.65 1.60 1.14 0.73 0.65 0.32 0.18 0.37 0.85 0.64 0.72 1.84 2.36 2.61 1.74 1.23 0.60 0.24 0.62 0.53 0.28 0.12 0.20 0.36 0.77 0.54 0.69
0.28 0.36 0.66 0.90 1.27 0.99 0.91 0.69 0.69 0.78 0.78 0.71 0.69 0.73 0.81 0.80 0.96 1.26 0.96 1.04 1.06 1.22 0.99 0.85 1.07 0.54 0.40 0.58 0.61 0.99 1.26 2.34 2.04 1.87 1.12 0.73 0.44 0.28 0.59 0.67 0.28 0.08 0.09 0.22 0.43 0.47 0.48
0.32 0.46 0.70 1.09 0.99 0.91 0.76 0.74 0.91 0.98 0.91 0.94 0.79 0.81 0.85 1.06 1.54 0.94 0.65 0.53 1.15 1.33 1.13 1.53 1.63 1.16 0.63 0.80 1.04 1.04 1.28 1.86 2.02 1.92 1.26 0.97 0.47 0.33 0.54 0.45 0.26 0.14 0.05 0.20 0.22 0.82 0.70
0.46 0.61 0.93 1.08 0.78 0.74 0.68 0.85 0.99 1.02 0.95 0.84 0.90 0.88 1.02 1.42 1.51 0.84 0.59 0.53 1.54 1.58 1.72 1.95 1.68 0.88 0.80 0.88 0.72 0.91 1.27 1.48 1.29 1.39 1.23 1.09 0.60 0.41 0.57 0.37 0.31 0.15 0.06 0.18 0.16 0.90 1.11
0.62 0.80 1.12 0.89 0.82 0.71 0.71 0.80 0.87 0.87 0.89 1.00 1.13 1.17 1.48 1.19 1.00 0.74 0.75 1.02 1.69 1.72 1.90 1.59 1.32 1.14 0.90 0.49 0.30 0.67 1.20 1.11 0.95 1.18 1.19 0.67 0.53 0.84 0.76 0.40 0.18 0.09 0.15 0.19 0.25 0.63 1.30
0.79 0.98 0.94 0.77 0.60 0.63 0.86 0.94 0.92 0.94 1.06 1.13 1.21 1.50 1.57 1.23 0.87 0.90 1.33 1.56 1.57 1.35 1.13 0.92 0.92 0.41 0.22 0.27 0.29 0.75 1.06 0.98 1.21 2.00 1.94 1.48 1.16 1.01 0.69 0.54 0.27 0.14 0.48 1.04 0.89 1.16 0.74
0.85 0.88 0.79 0.68 0.65 0.87 1.00 1.02 1.06 1.15 1.15 1.07 1.56 1.45 1.33 0.95 0.81 1.30 1.87 1.50 1.20 1.11 0.74 0.46 0.14 0.11 0.14 0.13 0.26 0.49 0.87 0.87 0.67 0.78 1.02 1.41 1.17 0.81 0.53 0.38 0.45 0.32 0.48 1.01 0.72 0.60 0.50
0.81 0.78 0.76 0.68 0.86 0.95 1.01 1.04 0.99 1.07 1.23 1.56 1.89 1.80 1.64 1.22 1.06 1.37 1.74 1.27 1.49 0.85 0.49 0.19 0.15 0.20 0.17 0.15 0.20 0.43 0.80 0.54 0.16 0.15 0.41 0.58 0.46 0.35 0.36 0.14 0.38 0.50 0.51 0.38 0.83 0.54 0.64
0.72 0.78 0.74 0.69 0.78 0.98 1.03 1.08 1.16 1.51 1.78 1.97 2.28 2.58 1.75 1.02 1.18 1.64 1.47 1.16 0.78 0.25 0.05 0.04 0.17 0.11 0.06 0.05 0.15 0.23 0.37 0.13 0.08 0.03 0.08 0.12 0.34 0.25 0.29 0.32 0.33 0.40 0.28 0.66 1.28 0.91 0.60
0.64 0.75 0.68 0.75 0.88 1.07 1.25 1.44 1.77 2.16 2.32 2.81 2.19 2.91 2.01 1.18 1.77 1.97 1.33 1.01 0.41 0.07 0.03 0.06 0.05 0.05 0.02 0.02 0.03 0.04 0.04 0.03 0.00 0.00 0.02 0.09 0.16 0.23 0.46 0.40 0.26 0.37 0.58 0.49 0.69 0.61 0.57
0.70 0.73 0.76 0.88 1.03 1.18 1.49 1.54 1.63 2.09 2.52 3.24 3.02 2.48 2.30 1.82 2.25 1.44 0.73 0.65 0.34 0.12 0.05 0.10 0.10 0.04 0.01 0.01 0.01 0.01 0.01 0.02 0.00 0.00 0.01 0.01 0.18 0.27 0.20 0.08 0.08 0.16 0.24 0.29 0.67 0.58 0.38
0.61 0.66 0.77 0.90 1.08 1.16 1.30 1.22 1.21 1.77 2.40 2.74 2.59 2.41 2.79 1.54 0.97 0.60 0.60 0.29 0.22 0.16 0.10 0.13 0.09 0.04 0.01 0.01 0.01 0.01 0.00 0.00 0.00 0.00 0.00 0.05 0.30 0.41 0.37 0.35 0.35 0.32 0.26 0.38 0.42 0.81 0.70
0.70 0.73 0.89 0.99 1.18 1.28 1.30 1.10 1.05 1.54 1.95 2.61 2.20 2.60 3.24 2.26 0.55 0.23 0.31 0.26 0.21 0.09 0.07 0.12 0.14 0.08 0.04 0.02 0.00 0.00 0.00 0.00 0.00 0.00 0.02 0.20 0.40 0.59 0.60 0.53 0.71 0.51 0.28 0.50 0.96 1.20 0.39
0.65 0.81 0.97 1.12 1.18 1.34 1.41 1.47 1.69 1.98 2.11 2.49 1.72 1.19 0.90 1.03 0.46 0.18 0.24 0.22 0.14 0.14 0.11 0.15 0.13 0.09 0.06 0.04 0.01 0.00 0.00 0.01 0.01 0.02 0.13 0.45 0.81 0.91 0.42 0.32 0.62 0.60 0.30 0.42 0.97 0.54 0.45
0.69 0.74 0.90 0.95 0.99 1.04 1.11 1.19 1.57 2.32 2.55 2.08 1.35 0.69 0.31 0.19 0.16 0.14 0.15 0.14 0.10 0.13 0.16 0.15 0.09 0.04 0.05 0.05 0.02 0.01 0.00 0.00 0.01 0.02 0.12 0.33 0.74 0.74 0.46 0.33 0.34 0.33 0.13 0.24 0.54 0.38 0.25
0.69 0.74 0.85 0.94 0.95 1.00 1.03 1.09 1.37 2.12 2.76 2.15 1.32 0.77 0.36 0.31 0.17 0.15 0.08 0.03 0.02 0.11 0.09 0.05 0.06 0.09 0.06 0.04 0.03 0.02 0.01 0.02 0.01 0.02 0.11 0.34 0.50 0.79 0.67 0.40 0.38 0.32 0.08 0.17 0.38 0.32 0.16
0.95 1.12 1.37 1.57 1.63 1.70 1.94 1.84 1.59 1.82 2.36 2.04 1.21 0.77 0.33 0.19 0.08 0.04 0.01 0.01 0.01 0.07 0.10 0.06 0.03 0.08 0.05 0.04 0.05 0.06 0.02 0.02 0.02 0.01 0.03 0.18 0.39 0.74 0.95 0.76 0.75 0.44 0.13 0.16 0.17 0.16 0.10
0.98 1.06 1.17 1.23 1.28 1.36 1.52 1.73 1.83 1.72 1.50 1.27 0.86 0.55 0.27 0.13 0.04 0.04 0.03 0.02 0.03 0.06 0.09 0.13 0.08 0.02 0.05 0.09 0.18 0.22 0.22 0.07 0.00 0.01 0.01 0.05 0.21 0.41 0.44 0.35 0.17 0.11 0.13 0.11 0.08 0.10 0.03
0.72 0.76 0.70 0.70 0.77 0.85 0.83 0.81 1.04 1.15 1.12 0.91 0.78 0.66 0.21 0.08 0.04 0.02 0.03 0.02 0.08 0.16 0.14 0.11 0.11 0.09 0.13 0.25 0.40 0.27 0.13 0.05 0.02 0.01 0.00 0.01 0.06 0.25 0.19 0.19 0.08 0.03 0.02 0.02 0.03 0.03 0.00
0.65 0.59 0.52 0.57 0.69 0.77 0.67 0.62 0.80 0.86 0.71 0.63 0.67 0.50 0.19 0.07 0.01 0.01 0.02 0.02 0.04 0.16 0.20 0.20 0.17 0.23 0.23 0.38 0.39 0.18 0.04 0.00 0.00 0.01 0.03 0.07 0.11 0.16 0.16 0.15 0.01 0.00 0.00 0.01 0.08 0.07 0.00
1.17 0.96 0.96 0.94 1.06 1.03 0.86 0.74 0.87 0.68 0.58 0.50 0.43 0.41 0.24 0.06 0.01 0.01 0.00 0.01 0.06 0.12 0.22 0.25 0.36 0.36 0.44 0.44 0.34 0.15 0.03 0.01 0.00 0.00 0.00 0.03 0.06 0.09 0.09 0.12 0.01 0.00 0.00 0.03 0.02 0.00 0.01
1.15 1.19 1.37 1.45 1.41 1.42 1.14 0.83 0.93 0.68 0.47 0.41 0.31 0.31 0.22 0.08 0.02 0.00 0.00 0.00 0.03 0.09 0.22 0.24 0.37 0.30 0.32 0.43 0.21 0.12 0.04 0.01 0.00 0.01 0.00 0.00 0.00 0.01 0.00 0.00 0.00 0.00 0.00 0.00 0.00 0.00 0.00

GFSGBSN_prec_precacc_138.txt.gz
Total_Precipitation_Accumulation
0.35 0.35 0.36 0.44 0.48 0.49 0.60 0.72 0.70 0.66 0.83 1.32 1.72 2.14 1.60 0.94 0.87 1.19 1.24 1.18 1.20 1.11 0.90 1.24 1.63 2.71 2.89 2.97 1.98 0.66 0.31 0.64 0.78 1.04 0.55 0.46 0.52 0.42 0.36 0.15 0.65 0.80 0.55 0.46 0.62 0.53 0.29
0.35 0.36 0.35 0.45 0.51 0.55 0.67 0.72 0.71 0.75 1.20 2.17 2.04 1.57 0.94 0.64 0.73 0.89 1.15 1.12 1.01 0.96 0.86 1.02 1.66 2.35 1.93 2.32 1.38 0.66 0.54 0.62 0.62 0.93 0.67 0.48 0.65 0.47 0.41 0.25 0.46 0.65 0.67 0.65 1.06 0.71 0.55
0.31 0.35 0.41 0.47 0.50 0.58 0.65 0.69 0.78 1.20 1.88 1.85 1.55 1.09 0.53 0.56 0.74 0.59 0.55 0.71 0.76 0.77 0.73 0.85 1.56 1.64 1.58 1.90 0.98 1.04 0.83 0.87 0.69 0.82 0.83 0.62 0.63 0.80 0.72 0.35 0.28 0.64 0.97 1.18 1.34 1.21 0.74
0.31 0.39 0.42 0.47 0.52 0.57 0.61 0.74 1.29 1.45 1.37 1.31 1.21 0.77 0.49 0.66 0.53 0.48 0.42 0.46 0.47 0.60 0.72 0.98 1.58 1.41 1.89 1.28 0.76 0.88 0.63 0.62 0.77 1.09 1.09 0.95 0.53 0.56 0.90 0.55 0.52 0.67 1.41 1.25 1.53 1.64 1.03
0.38 0.40 0.41 0.42 0.49 0.61 0.79 1.19 1.27 1.00 1.04 1.03 0.86 0.59 0.56 0.49 0.53 0.54 0.47 0.76 0.91 1.00 1.26 1.38 1.36 1.08 1.95 1.47 0.94 0.74 0.39 0.59 1.01 1.41 1.77 1.49 0.90 0.77 0.90 0.93 0.63 0.65 0.97 0.85 0.99 1.30 1.40
0.36 0.33 0.31 0.41 0.59 0.77 1.08 1.10 1.01 0.86 0.78 0.76 0.67 0.55 0.49 0.46 0.55 0.79 0.96 1.00 1.17 1.04 1.49 1.66 1.30 1.35 1.20 1.39 0.92 0.70 0.22 0.68 1.37 1.88 2.59 2.60 1.46 1.01 0.90 0.75 0.46 0.40 0.55 0.55 0.66 0.92 1.32
0.28 0.29 0.36 0.49 0.75 1.09 1.08 1.00 0.89 0.68 0.72 0.72 0.64 0.56 0.57 0.70 0.83 1.20 1.08 1.51 1.98 1.77 1.56 1.51 1.14 0.70 0.70 0.87 1.13 0.62 0.31 1.13 1.88 2.67 2.51 2.10 1.21 0.74 0.70 0.38 0.18 0.08 0.13 0.45 0.50 0.66 0.95
0.28 0.30 0.44 0.68 1.05 1.21 0.95 0.86 0.70 0.73 0.76 0.71 0.60 0.61 0.71 0.86 1.02 1.39 1.29 1.31 1.65 1.60 1.14 0.73 0.65 0.32 0.18 0.37 0.85 0.64 0.72 1.84 2.36 2.61 1.74 1.23 0.60 0.24 0.62 0.53 0.28 0.12 0.20 0.36 0.77 0.54 0.69
0.29 0.36 0.66 0.90 1.27 0.99 0.91 0.69 0.69 0.78 0.78 0.71 0.69 0.73 0.81 0.80 0.96 1.26 0.96 1.04 1.06 1.22 0.99 0.85 1.07 0.54 0.40 0.58 0.61 0.99 1.26 2.34 2.04 1.87 1.12 0.73 0.44 0.28 0.59 0.67 0.28 0.08 0.09 0.22 0.43 0.47 0.48
0.33 0.46 0.70 1.09 0.99 0.91 0.76 0.74 0.91 0.98 0.91 0.94 0.79 0.81 0.85 1.06 1.54 0.94 0.65 0.53 1.15 1.33 1.13 1.53 1.63 1.16 0.63 0.80 1.04 1.04 1.28 1.86 2.02 1.92 1.26 0.97 0.47 0.33 0.54 0.45 0.26 0.14 0.05 0.20 0.22 0.82 0.70
0.47 0.62 0.94 1.08 0.78 0.74 0.68 0.85 0.99 1.02 0.95 0.84 0.90 0.88 1.02 1.42 1.51 0.84 0.59 0.53 1.54 1.58 1.72 1.95 1.68 0.88 0.80 0.88 0.72 0.91 1.27 1.48 1.29 1.39 1.23 1.09 0.60 0.41 0.57 0.37 0.31 0.15 0.06 0.18 0.16 0.90 1.11
0.63 0.80 1.12 0.89 0.82 0.71 0.71 0.80 0.87 0.87 0.89 1.00 1.13 1.17 1.48 1.19 1.00 0.74 0.75 1.02 1.69 1.72 1.90 1.59 1.32 1.14 0.90 0.49 0.30 0.67 1.20 1.11 0.95 1.18 1.19 0.67 0.53 0.84 0.76 0.40 0.18 0.09 0.15 0.19 0.25 0.63 1.30
0.79 0.98 0.94 0.77 0.60 0.63 0.86 0.94 0.92 0.94 1.06 1.13 1.21 1.50 1.57 1.23 0.87 0.90 1.33 1.56 1.57 1.35 1.13 0.92 0.92 0.41 0.22 0.27 0.29 0.75 1.06 0.98 1.21 2.00 1.94 1.48 1.16 1.01 0.69 0.54 0.27 0.14 0.48 1.04 0.89 1.16 0.74
0.85 0.88 0.79 0.68 0.65 0.87 1.00 1.02 1.06 1.15 1.15 1.07 1.56 1.45 1.33 0.95 0.81 1.30 1.87 1.50 1.20 1.11 0.74 0.46 0.14 0.11 0.14 0.13 0.26 0.49 0.87 0.87 0.67 0.78 1.02 1.41 1.17 0.81 0.53 0.38 0.45 0.32 0.48 1.01 0.72 0.60 0.50
0.81 0.78 0.76 0.68 0.86 0.95 1.01 1.04 0.99 1.07 1.23 1.56 1.89 1.80 1.64 1.22 1.06 1.37 1.74 1.27 1.49 0.85 0.49 0.19 0.15 0.20 0.17 0.15 0.20 0.43 0.80 0.54 0.16 0.15 0.41 0.58 0.46 0.35 0.36 0.14 0.38 0.50 0.51 0.38 0.83 0.54 0.64
0.72 0.78 0.74 0.69 0.78 0.98 1.03 1.08 1.16 1.51 1.78 1.97 2.28 2.58 1.75 1.02 1.18 1.64 1.47 1.16 0.78 0.25 0.05 0.04 0.17 0.11 0.06 0.05 0.15 0.23 0.37 0.13 0.08 0.03 0.08 0.12 0.34 0.25 0.29 0.32 0.33 0.40 0.28 0.66 1.28 0.91 0.60
0.64 0.75 0.68 0.75 0.88 1.07 1.25 1.44 1.77 2.16 2.32 2.81 2.19 2.91 2.01 1.18 1.77 1.97 1.33 1.01 0.41 0.07 0.03 0.06 0.05 0.05 0.02 0.02 0.03 0.04 0.04 0.03 0.00 0.00 0.02 0.09 0.16 0.23 0.46 0.40 0.26 0.37 0.58 0.49 0.69 0.61 0.57
0.70 0.73 0.76 0.88 1.03 1.18 1.49 1.54 1.63 2.09 2.52 3.24 3.02 2.48 2.30 1.82 2.25 1.44 0.73 0.65 0.34 0.12 0.05 0.10 0.10 0.04 0.01 0.01 0.01 0.01 0.01 0.02 0.00 0.00 0.01 0.01 0.18 0.27 0.20 0.08 0.08 0.16 0.24 0.29 0.67 0.58 0.38
0.61 0.66 0.77 0.90 1.08 1.16 1.30 1.22 1.21 1.77 2.40 2.74 2.59 2.41 2.79 1.54 0.97 0.60 0.60 0.29 0.22 0.16 0.10 0.13 0.09 0.04 0.01 0.01 0.01 0.01 0.00 0.00 0.00 0.00 0.00 0.05 0.30 0.41 0.37 0.35 0.35 0.32 0.26 0.38 0.42 0.81 0.70
0.70 0.74 0.89 0.99 1.18 1.28 1.30 1.10 1.05 1.54 1.95 2.61 2.20 2.60 3.24 2.26 0.55 0.23 0.31 0.26 0.21 0.09 0.07 0.12 0.14 0.08 0.04 0.02 0.00 0.00 0.00 0.00 0.00 0.00 0.02 0.20 0.40 0.59 0.60 0.53 0.71 0.51 0.28 0.50 0.96 1.20 0.39
0.65 0.81 0.97 1.12 1.18 1.34 1.41 1.47 1.69 1.98 2.11 2.49 1.72 1.19 0.90 1.03 0.46 0.18 0.24 0.22 0.14 0.14 0.11 0.15 0.13 0.09 0.06 0.04 0.01 0.00 0.00 0.01 0.01 0.02 0.13 0.45 0.81 0.91 0.42 0.32 0.62 0.60 0.30 0.42 0.97 0.54 0.45
0.69 0.74 0.90 0.95 1.00 1.04 1.11 1.19 1.57 2.32 2.55 2.08 1.35 0.69 0.31 0.19 0.16 0.14 0.15 0.14 0.10 0.13 0.16 0.15 0.09 0.04 0.05 0.05 0.02 0.01 0.00 0.00 0.01 0.02 0.12 0.33 0.74 0.74 0.46 0.33 0.34 0.33 0.13 0.24 0.54 0.38 0.25
0.69 0.74 0.85 0.94 0.95 1.00 1.03 1.09 1.37 2.12 2.76 2.15 1.32 0.77 0.36 0.31 0.17 0.15 0.08 0.03 0.02 0.11 0.09 0.05 0.06 0.09 0.06 0.04 0.03 0.02 0.01 0.02 0.01 0.02 0.11 0.34 0.50 0.79 0.67 0.40 0.38 0.32 0.08 0.17 0.38 0.32 0.16
0.95 1.12 1.37 1.57 1.63 1.70 1.94 1.84 1.59 1.82 2.36 2.04 1.21 0.77 0.33 0.19 0.08 0.04 0.01 0.01 0.01 0.07 0.10 0.06 0.03 0.08 0.05 0.04 0.05 0.06 0.02 0.02 0.02 0.01 0.03 0.18 0.39 0.74 0.95 0.76 0.75 0.44 0.13 0.16 0.17 0.16 0.10
0.99 1.07 1.17 1.23 1.28 1.36 1.52 1.73 1.83 1.72 1.50 1.27 0.86 0.55 0.27 0.13 0.04 0.04 0.03 0.02 0.03 0.06 0.09 0.13 0.08 0.02 0.05 0.09 0.18 0.22 0.22 0.07 0.00 0.01 0.01 0.05 0.21 0.41 0.44 0.35 0.17 0.11 0.13 0.11 0.08 0.10 0.03
0.73 0.76 0.71 0.70 0.77 0.85 0.83 0.81 1.04 1.15 1.12 0.91 0.78 0.66 0.21 0.08 0.04 0.02 0.03 0.02 0.08 0.16 0.14 0.11 0.11 0.09 0.13 0.25 0.40 0.27 0.13 0.05 0.02 0.01 0.00 0.01 0.06 0.25 0.19 0.19 0.08 0.03 0.02 0.02 0.03 0.03 0.00
0.65 0.60 0.52 0.57 0.69 0.78 0.67 0.62 0.80 0.86 0.71 0.63 0.67 0.50 0.19 0.07 0.01 0.01 0.02 0.02 0.04 0.16 0.20 0.20 0.17 0.23 0.23 0.38 0.39 0.18 0.04 0.00 0.00 0.01 0.03 0.07 0.11 0.16 0.16 0.15 0.01 0.00 0.00 0.01 0.08 0.07 0.00
1.17 0.97 0.97 0.94 1.06 1.03 0.86 0.74 0.87 0.68 0.58 0.50 0.43 0.41 0.24 0.06 0.01 0.01 0.00 0.01 0.06 0.12 0.22 0.25 0.36 0.36 0.44 0.44 0.34 0.15 0.03 0.01 0.00 0.00 0.00 0.03 0.06 0.09 0.09 0.12 0.01 0.00 0.00 0.03 0.02 0.00 0.01
1.15 1.19 1.37 1.45 1.41 1.42 1.14 0.83 0.93 0.68 0.47 0.41 0.31 0.31 0.22 0.08 0.02 0.00 0.00 0.00 0.03 0.09 0.22 0.24 0.37 0.30 0.32 0.43 0.21 0.12 0.04 0.01 0.00 0.01 0.00 0.00 0.00 0.01 0.00 0.00 0.00 0.00 0.00 0.00 0.00 0.00 0.00

GFSGBSN_prec_precacc_144.txt.gz
Total_Precipitation_Accumulation
0.35 0.35 0.36 0.44 0.48 0.50 0.60 0.72 0.70 0.66 0.83 1.32 1.72 2.14 1.61 0.95 0.90 1.27 1.40 1.31 1.35 1.20 0.99 1.33 1.72 2.78 2.93 3.09 2.14 0.86 0.53 0.74 0.79 1.05 0.55 0.46 0.52 0.42 0.36 0.15 0.65 0.80 0.55 0.46 0.62 0.53 0.29
0.35 0.36 0.36 0.45 0.51 0.55 0.67 0.72 0.71 0.75 1.20 2.17 2.04 1.57 0.94 0.64 0.73 0.93 1.27 1.26 1.08 1.00 0.87 1.04 1.69 2.36 1.94 2.50 1.58 0.77 0.58 0.63 0.62 0.93 0.67 0.48 0.65 0.47 0.41 0.25 0.46 0.65 0.67 0.65 1.06 0.71 0.55
0.31 0.35 0.41 0.47 0.51 0.58 0.66 0.69 0.78 1.20 1.88 1.85 1.55 1.09 0.53 0.56 0.74 0.59 0.56 0.75 0.80 0.78 0.73 0.85 1.58 1.67 1.65 2.09 1.03 1.04 0.83 0.87 0.69 0.82 0.83 0.62 0.63 0.80 0.72 0.35 0.28 0.64 0.97 1.18 1.34 1.21 0.74
0.31 0.39 0.42 0.47 0.53 0.58 0.61 0.74 1.29 1.45 1.37 1.31 1.21 0.77 0.49 0.66 0.53 0.48 0.42 0.46 0.47 0.60 0.72 0.99 1.60 1.42 1.92 1.29 0.76 0.88 0.63 0.62 0.77 1.09 1.09 0.95 0.53 0.56 0.90 0.55 0.52 0.67 1.41 1.25 1.53 1.64 1.03
0.38 0.40 0.41 0.42 0.49 0.61 0.79 1.19 1.27 1.00 1.04 1.03 0.86 0.59 0.56 0.49 0.53 0.54 0.47 0.76 0.91 1.00 1.26 1.38 1.36 1.08 1.95 1.47 0.94 0.74 0.39 0.59 1.01 1.41 1.77 1.49 0.90 0.77 0.90 0.93 0.63 0.65 0.97 0.85 0.99 1.30 1.40
0.37 0.33 0.31 0.41 0.59 0.77 1.08 1.10 1.01 0.86 0.78 0.76 0.67 0.55 0.49 0.46 0.55 0.79 0.96 1.00 1.17 1.04 1.49 1.66 1.30 1.35 1.20 1.39 0.92 0.70 0.22 0.68 1.37 1.88 2.59 2.60 1.46 1.01 0.90 0.75 0.46 0.40 0.55 0.55 0.66 0.92 1.32
0.28 0.29 0.36 0.49 0.75 1.09 1.08 1.00 0.89 0.68 0.72 0.72 0.64 0.56 0.57 0.70 0.83 1.20 1.08 1.51 1.98 1.77 1.56 1.51 1.14 0.70 0.70 0.87 1.13 0.62 0.31 1.13 1.88 2.67 2.51 2.10 1.21 0.74 0.70 0.38 0.18 0.08 0.13 0.45 0.50 0.66 0.95
0.29 0.30 0.44 0.68 1.05 1.21 0.95 0.86 0.70 0.73 0.76 0.71 0.60 0.61 0.71 0.86 1.02 1.39 1.29 1.31 1.65 1.60 1.14 0.73 0.65 0.32 0.18 0.37 0.85 0.64 0.72 1.84 2.36 2.61 1.74 1.23 0.60 0.24 0.62 0.53 0.28 0.12 0.20 0.36 0.77 0.54 0.69
0.30 0.37 0.66 0.90 1.27 0.99 0.91 0.69 0.69 0.78 0.78 0.71 0.69 0.73 0.81 0.80 0.96 1.26 0.96 1.04 1.06 1.22 0.99 0.85 1.07 0.54 0.40 0.58 0.61 0.99 1.26 2.34 2.04 1.87 1.12 0.73 0.44 0.28 0.59 0.67 0.28 0.08 0.09 0.22 0.43 0.47 0.48
0.35 0.47 0.70 1.09 0.99 0.91 0.76 0.74 0.91 0.98 0.91 0.94 0.79 0.81 0.85 1.06 1.54 0.94 0.65 0.53 1.15 1.33 1.13 1.53 1.63 1.16 0.63 0.80 1.04 1.04 1.28 1.86 2.02 1.92 1.26 0.97 0.47 0.33 0.54 0.45 0.26 0.14 0.05 0.20 0.22 0.82 0.70
0.47 0.63 0.94 1.09 0.78 0.74 0.68 0.85 0.99 1.02 0.95 0.84 0.90 0.88 1.02 1.42 1.51 0.84 0.59 0.53 1.54 1.58 1.72 1.95 1.68 0.88 0.80 0.88 0.72 0.91 1.27 1.48 1.29 1.39 1.23 1.09 0.60 0.41 0.57 0.37 0.31 0.15 0.06 0.18 0.16 0.90 1.11
0.63 0.81 1.13 0.89 0.82 0.71 0.71 0.80 0.87 0.87 0.89 1.00 1.13 1.17 1.48 1.19 1.00 0.74 0.75 1.02 1.69 1.72 1.90 1.59 1.32 1.14 0.90 0.49 0.30 0.67 1.20 1.11 0.95 1.18 1.19 0.67 0.53 0.84 0.76 0.40 0.18 0.09 0.15 0.19 0.25 0.63 1.30
0.79 0.98 0.94 0.77 0.60 0.63 0.86 0.94 0.92 0.94 1.06 1.13 1.21 1.50 1.57 1.23 0.87 0.90 1.33 1.56 1.57 1.35 1.13 0.92 0.92 0.41 0.22 0.27 0.29 0.75 1.06 0.98 1.21 2.00 1.94 1.48 1.16 1.01 0.69 0.54 0.27 0.14 0.48 1.04 0.89 1.16 0.74
0.85 0.88 0.80 0.68 0.65 0.87 1.00 1.02 1.06 1.15 1.15 1.07 1.56 1.45 1.33 0.95 0.81 1.30 1.87 1.50 1.20 1.11 0.74 0.46 0.14 0.11 0.14 0.13 0.26 0.49 0.87 0.87 0.67 0.78 1.02 1.41 1.17 0.81 0.53 0.38 0.45 0.32 0.48 1.01 0.72 0.60 0.50
0.81 0.78 0.76 0.68 0.86 0.95 1.01 1.04 0.99 1.07 1.23 1.56 1.89 1.80 1.64 1.22 1.06 1.37 1.74 1.27 1.49 0.85 0.49 0.19 0.15 0.20 0.17 0.15 0.20 0.43 0.80 0.54 0.16 0.15 0.41 0.58 0.46 0.35 0.36 0.14 0.38 0.50 0.51 0.38 0.83 0.54 0.64
0.72 0.78 0.74 0.69 0.78 0.98 1.03 1.08 1.16 1.51 1.78 1.97 2.28 2.58 1.75 1.02 1.18 1.64 1.47 1.16 0.78 0.25 0.05 0.04 0.17 0.11 0.06 0.05 0.15 0.23 0.37 0.13 0.08 0.03 0.08 0.12 0.34 0.25 0.29 0.32 0.33 0.40 0.28 0.66 1.28 0.91 0.60
0.64 0.75 0.68 0.75 0.88 1.07 1.25 1.44 1.77 2.16 2.32 2.81 2.19 2.91 2.01 1.18 1.77 1.97 1.33 1.01 0.41 0.07 0.03 0.06 0.05 0.05 0.02 0.02 0.03 0.04 0.04 0.03 0.00 0.00 0.02 0.09 0.16 0.23 0.46 0.40 0.26 0.37 0.58 0.49 0.69 0.61 0.57
0.70 0.73 0.76 0.88 1.03 1.18 1.49 1.54 1.63 2.09 2.52 3.24 3.02 2.48 2.30 1.82 2.25 1.44 0.73 0.65 0.34 0.12 0.05 0.10 0.10 0.04 0.01 0.01 0.01 0.01 0.01 0.02 0.00 0.00 0.01 0.01 0.18 0.27 0.20 0.08 0.08 0.16 0.24 0.29 0.67 0.58 0.38
0.61 0.66 0.77 0.90 1.08 1.16 1.30 1.22 1.21 1.77 2.40 2.74 2.59 2.41 2.79 1.54 0.97 0.60 0.60 0.29 0.22 0.16 0.10 0.13 0.09 0.04 0.01 0.01 0.01 0.01 0.00 0.00 0.00 0.00 0.00 0.05 0.30 0.41 0.37 0.35 0.35 0.32 0.26 0.38 0.42 0.81 0.70
0.70 0.74 0.89 0.99 1.18 1.28 1.30 1.10 1.05 1.54 1.95 2.61 2.20 2.60 3.24 2.26 0.55 0.23 0.31 0.26 0.21 0.09 0.07 0.12 0.14 0.08 0.04 0.02 0.00 0.00 0.00 0.00 0.00 0.00 0.02 0.20 0.40 0.59 0.60 0.53 0.71 0.51 0.28 0.50 0.96 1.20 0.39
0.65 0.81 0.97 1.12 1.18 1.34 1.41 1.47 1.69 1.98 2.11 2.49 1.72 1.19 0.90 1.03 0.46 0.18 0.24 0.22 0.14 0.14 0.11 0.15 0.13 0.09 0.06 0.04 0.01 0.00 0.00 0.01 0.01 0.02 0.13 0.45 0.81 0.91 0.42 0.32 0.62 0.60 0.30 0.42 0.97 0.54 0.45
0.69 0.74 0.90 0.95 1.00 1.04 1.11 1.19 1.57 2.32 2.55 2.08 1.35 0.69 0.31 0.19 0.16 0.14 0.15 0.14 0.10 0.13 0.16 0.15 0.09 0.04 0.05 0.05 0.02 0.01 0.00 0.00 0.01 0.02 0.12 0.33 0.74 0.74 0.46 0.33 0.34 0.33 0.13 0.24 0.54 0.38 0.25
0.69 0.74 0.85 0.94 0.95 1.00 1.03 1.09 1.37 2.12 2.76 2.15 1.32 0.77 0.36 0.31 0.17 0.15 0.08 0.03 0.02 0.11 0.09 0.05 0.06 0.09 0.06 0.04 0.03 0.02 0.01 0.02 0.01 0.02 0.11 0.34 0.50 0.79 0.67 0.40 0.38 0.32 0.08 0.17 0.38 0.32 0.16
0.95 1.12 1.37 1.57 1.63 1.70 1.94 1.84 1.59 1.82 2.36 2.04 1.21 0.77 0.33 0.19 0.08 0.04 0.01 0.01 0.01 0.07 0.10 0.06 0.03 0.08 0.05 0.04 0.05 0.06 0.02 0.02 0.02 0.01 0.03 0.18 0.39 0.74 0.95 0.76 0.75 0.44 0.13 0.16 0.17 0.16 0.10
0.99 1.07 1.17 1.23 1.28 1.36 1.52 1.73 1.83 1.72 1.50 1.27 0.86 0.55 0.27 0.13 0.04 0.04 0.03 0.02 0.03 0.06 0.09 0.13 0.08 0.02 0.05 0.09 0.18 0.22 0.22 0.07 0.00 0.01 0.01 0.05 0.21 0.41 0.44 0.35 0.17 0.11 0.13 0.11 0.08 0.10 0.03
0.74 0.76 0.71 0.71 0.78 0.85 0.83 0.81 1.04 1.15 1.12 0.91 0.78 0.66 0.21 0.08 0.04 0.02 0.03 0.02 0.08 0.16 0.14 0.11 0.11 0.09 0.13 0.25 0.40 0.27 0.13 0.05 0.02 0.01 0.00 0.01 0.06 0.25 0.19 0.19 0.08 0.03 0.02 0.02 0.03 0.03 0.00
0.66 0.61 0.53 0.58 0.70 0.78 0.67 0.62 0.80 0.86 0.71 0.63 0.67 0.50 0.19 0.07 0.01 0.01 0.02 0.02 0.04 0.16 0.20 0.20 0.17 0.23 0.23 0.38 0.39 0.18 0.04 0.00 0.00 0.01 0.03 0.07 0.11 0.16 0.16 0.15 0.01 0.00 0.00 0.01 0.08 0.07 0.00
1.18 0.97 0.97 0.95 1.07 1.04 0.86 0.74 0.88 0.68 0.58 0.50 0.43 0.41 0.24 0.06 0.01 0.01 0.00 0.01 0.06 0.12 0.22 0.25 0.36 0.36 0.44 0.44 0.34 0.15 0.03 0.01 0.00 0.00 0.00 0.03 0.06 0.09 0.09 0.12 0.01 0.00 0.00 0.03 0.02 0.00 0.01
1.15 1.19 1.37 1.45 1.41 1.42 1.14 0.83 0.93 0.68 0.48 0.42 0.31 0.31 0.22 0.08 0.02 0.00 0.00 0.00 0.03 0.09 0.22 0.24 0.37 0.30 0.32 0.43 0.21 0.12 0.04 0.01 0.00 0.01 0.00 0.00 0.00 0.01 0.00 0.00 0.00 0.00 0.00 0.00 0.00 0.00 0.00

GFSGBSN_prec_precacc_147.txt.gz
Total_Precipitation_Accumulation
0.35 0.35 0.36 0.45 0.48 0.50 0.60 0.72 0.70 0.66 0.83 1.32 1.72 2.14 1.61 0.95 0.91 1.28 1.41 1.31 1.36 1.21 1.08 1.51 1.82 2.81 2.93 3.09 2.14 0.87 0.61 0.80 0.84 1.10 0.56 0.46 0.52 0.42 0.36 0.15 0.65 0.80 0.55 0.46 0.62 0.53 0.29
0.36 0.36 0.36 0.45 0.51 0.55 0.67 0.72 0.71 0.75 1.20 2.17 2.04 1.57 0.94 0.64 0.74 0.94 1.28 1.26 1.08 1.00 0.89 1.05 1.70 2.37 1.94 2.50 1.59 0.78 0.64 0.69 0.64 0.94 0.67 0.48 0.65 0.47 0.41 0.25 0.46 0.65 0.67 0.65 1.06 0.71 0.55
0.32 0.36 0.41 0.47 0.51 0.58 0.66 0.69 0.78 1.20 1.88 1.85 1.55 1.09 0.53 0.56 0.74 0.59 0.57 0.76 0.80 0.78 0.73 0.85 1.58 1.67 1.65 2.10 1.04 1.04 0.86 0.87 0.69 0.82 0.83 0.62 0.63 0.80 0.72 0.35 0.28 0.64 0.97 1.18 1.34 1.21 0.74
0.32 0.39 0.42 0.47 0.53 0.58 0.61 0.74 1.29 1.45 1.37 1.31 1.21 0.77 0.49 0.66 0.53 0.48 0.42 0.46 0.47 0.60 0.72 0.99 1.60 1.42 1.92 1.29 0.76 0.88 0.63 0.62 0.77 1.09 1.09 0.95 0.53 0.56 0.90 0.55 0.52 0.67 1.41 1.25 1.53 1.64 1.03
0.38 0.40 0.41 0.42 0.49 0.61 0.79 1.19 1.27 1.00 1.04 1.03 0.86 0.59 0.56 0.49 0.53 0.54 0.47 0.76 0.91 1.00 1.26 1.38 1.36 1.08 1.95 1.47 0.94 0.74 0.39 0.59 1.01 1.41 1.77 1.49 0.90 0.77 0.90 0.93 0.63 0.65 0.97 0.85 0.99 1.30 1.40
0.37 0.33 0.31 0.41 0.59 0.77 1.08 1.10 1.01 0.86 0.78 0.76 0.67 0.55 0.49 0.46 0.55 0.79 0.96 1.00 1.17 1.04 1.49 1.66 1.30 1.35 1.20 1.39 0.92 0.70 0.22 0.68 1.37 1.88 2.59 2.60 1.46 1.01 0.90 0.75 0.46 0.40 0.55 0.55 0.66 0.92 1.32
0.29 0.30 0.37 0.49 0.75 1.09 1.08 1.00 0.89 0.68 0.72 0.72 0.64 0.56 0.57 0.70 0.83 1.20 1.08 1.51 1.98 1.77 1.56 1.51 1.14 0.70 0.70 0.87 1.13 0.62 0.31 1.13 1.88 2.67 2.51 2.10 1.21 0.74 0.70 0.38 0.18 0.08 0.13 0.45 0.50 0.66 0.95
0.30 0.31 0.45 0.68 1.05 1.21 0.95 0.86 0.70 0.73 0.76 0.71 0.60 0.61 0.71 0.86 1.02 1.39 1.29 1.31 1.65 1.60 1.14 0.73 0.65 0.32 0.18 0.37 0.85 0.64 0.72 1.84 2.36 2.61 1.74 1.23 0.60 0.24 0.62 0.53 0.28 0.12 0.20 0.36 0.77 0.54 0.69
0.31 0.37 0.66 0.91 1.27 0.99 0.91 0.69 0.69 0.78 0.78 0.71 0.69 0.73 0.81 0.80 0.96 1.26 0.96 1.04 1.06 1.22 0.99 0.85 1.07 0.54 0.40 0.58 0.61 0.99 1.26 2.34 2.04 1.87 1.12 0.73 0.44 0.28 0.59 0.67 0.28 0.08 0.09 0.22 0.43 0.47 0.48
0.35 0.47 0.70 1.09 0.99 0.91 0.76 0.74 0.91 0.98 0.91 0.94 0.79 0.81 0.85 1.06 1.54 0.94 0.65 0.53 1.15 1.33 1.13 1.53 1.63 1.16 0.63 0.80 1.04 1.04 1.28 1.86 2.02 1.92 1.26 0.97 0.47 0.33 0.54 0.45 0.26 0.14 0.05 0.20 0.22 0.82 0.70
0.47 0.63 0.94 1.09 0.78 0.74 0.68 0.85 0.99 1.02 0.95 0.84 0.90 0.88 1.02 1.42 1.51 0.84 0.59 0.53 1.54 1.58 1.72 1.95 1.68 0.88 0.80 0.88 0.72 0.91 1.27 1.48 1.29 1.39 1.23 1.09 0.60 0.41 0.57 0.37 0.31 0.15 0.06 0.18 0.16 0.90 1.11
0.63 0.81 1.13 0.89 0.82 0.71 0.71 0.80 0.87 0.87 0.89 1.00 1.13 1.17 1.48 1.19 1.00 0.74 0.75 1.02 1.69 1.72 1.90 1.59 1.32 1.14 0.90 0.49 0.30 0.67 1.20 1.11 0.95 1.18 1.19 0.67 0.53 0.84 0.76 0.40 0.18 0.09 0.15 0.19 0.25 0.63 1.30
0.79 0.98 0.94 0.77 0.60 0.63 0.86 0.94 0.92 0.94 1.06 1.13 1.21 1.50 1.57 1.23 0.87 0.90 1.33 1.56 1.57 1.35 1.13 0.92 0.92 0.41 0.22 0.27 0.29 0.75 1.06 0.98 1.21 2.00 1.94 1.48 1.16 1.01 0.69 0.54 0.27 0.14 0.48 1.04 0.89 1.16 0.74
0.85 0.88 0.80 0.68 0.65 0.87 1.00 1.02 1.06 1.15 1.15 1.07 1.56 1.45 1.33 0.95 0.81 1.30 1.87 1.50 1.20 1.11 0.74 0.46 0.14 0.11 0.14 0.13 0.26 0.49 0.87 0.87 0.67 0.78 1.02 1.41 1.17 0.81 0.53 0.38 0.45 0.32 0.48 1.01 0.72 0.60 0.50
0.81 0.78 0.76 0.68 0.86 0.95 1.01 1.04 0.99 1.07 1.23 1.56 1.89 1.80 1.64 1.22 1.06 1.37 1.74 1.27 1.49 0.85 0.49 0.19 0.15 0.20 0.17 0.15 0.20 0.43 0.80 0.54 0.16 0.15 0.41 0.58 0.46 0.35 0.36 0.14 0.38 0.50 0.51 0.38 0.83 0.54 0.64
0.72 0.78 0.74 0.69 0.78 0.98 1.03 1.08 1.16 1.51 1.78 1.97 2.28 2.58 1.75 1.02 1.18 1.64 1.47 1.16 0.78 0.25 0.05 0.04 0.17 0.11 0.06 0.05 0.15 0.23 0.37 0.13 0.08 0.03 0.08 0.12 0.34 0.25 0.29 0.32 0.33 0.40 0.28 0.66 1.28 0.91 0.60
0.64 0.75 0.68 0.75 0.88 1.07 1.25 1.44 1.77 2.16 2.32 2.81 2.19 2.91 2.01 1.18 1.77 1.97 1.33 1.01 0.41 0.07 0.03 0.06 0.05 0.05 0.02 0.02 0.03 0.04 0.04 0.03 0.00 0.00 0.02 0.09 0.16 0.23 0.46 0.40 0.26 0.37 0.58 0.49 0.69 0.61 0.57
0.70 0.73 0.76 0.88 1.03 1.18 1.49 1.54 1.63 2.09 2.52 3.24 3.02 2.48 2.30 1.82 2.25 1.44 0.73 0.65 0.34 0.12 0.05 0.10 0.10 0.04 0.01 0.01 0.01 0.01 0.01 0.02 0.00 0.00 0.01 0.01 0.18 0.27 0.20 0.08 0.08 0.16 0.24 0.29 0.67 0.58 0.38
0.61 0.66 0.77 0.90 1.08 1.16 1.30 1.22 1.21 1.77 2.40 2.74 2.59 2.41 2.79 1.54 0.97 0.60 0.60 0.29 0.22 0.16 0.10 0.13 0.09 0.04 0.01 0.01 0.01 0.01 0.00 0.00 0.00 0.00 0.00 0.05 0.30 0.41 0.37 0.35 0.35 0.32 0.26 0.38 0.42 0.81 0.70
0.70 0.74 0.89 0.99 1.18 1.28 1.30 1.10 1.05 1.54 1.95 2.61 2.20 2.60 3.24 2.26 0.55 0.23 0.31 0.26 0.21 0.09 0.07 0.12 0.14 0.08 0.04 0.02 0.00 0.00 0.00 0.00 0.00 0.00 0.02 0.20 0.40 0.59 0.60 0.53 0.71 0.51 0.28 0.50 0.96 1.20 0.39
0.65 0.81 0.97 1.12 1.18 1.34 1.41 1.47 1.69 1.98 2.11 2.49 1.72 1.19 0.90 1.03 0.46 0.18 0.24 0.22 0.14 0.14 0.11 0.15 0.13 0.09 0.06 0.04 0.01 0.00 0.00 0.01 0.01 0.02 0.13 0.45 0.81 0.91 0.42 0.32 0.62 0.60 0.30 0.42 0.97 0.54 0.45
0.69 0.74 0.90 0.95 1.00 1.04 1.11 1.19 1.57 2.32 2.55 2.08 1.35 0.69 0.31 0.19 0.16 0.14 0.15 0.14 0.10 0.13 0.16 0.15 0.09 0.04 0.05 0.05 0.02 0.01 0.00 0.00 0.01 0.02 0.12 0.33 0.74 0.74 0.46 0.33 0.34 0.33 0.13 0.24 0.54 0.38 0.25
0.69 0.74 0.85 0.94 0.95 1.00 1.03 1.09 1.37 2.12 2.76 2.15 1.32 0.77 0.36 0.31 0.17 0.15 0.08 0.03 0.02 0.11 0.09 0.05 0.06 0.09 0.06 0.04 0.03 0.02 0.01 0.02 0.01 0.02 0.11 0.34 0.50 0.79 0.67 0.40 0.38 0.32 0.08 0.17 0.38 0.32 0.16
0.95 1.12 1.37 1.57 1.63 1.70 1.94 1.84 1.59 1.82 2.36 2.04 1.21 0.77 0.33 0.19 0.08 0.04 0.01 0.01 0.01 0.07 0.10 0.06 0.03 0.08 0.05 0.04 0.05 0.06 0.02 0.02 0.02 0.01 0.03 0.18 0.39 0.74 0.95 0.76 0.75 0.44 0.13 0.16 0.17 0.16 0.10
0.99 1.07 1.17 1.23 1.28 1.36 1.52 1.73 1.83 1.72 1.50 1.27 0.86 0.55 0.27 0.13 0.04 0.04 0.03 0.02 0.03 0.06 0.09 0.13 0.08 0.02 0.05 0.09 0.18 0.22 0.22 0.07 0.00 0.01 0.01 0.05 0.21 0.41 0.44 0.35 0.17 0.11 0.13 0.11 0.08 0.10 0.03
0.74 0.76 0.71 0.71 0.78 0.86 0.83 0.81 1.04 1.15 1.12 0.91 0.78 0.66 0.21 0.08 0.04 0.02 0.03 0.02 0.08 0.16 0.14 0.11 0.11 0.09 0.13 0.25 0.40 0.27 0.13 0.05 0.02 0.01 0.00 0.01 0.06 0.25 0.19 0.19 0.08 0.03 0.02 0.02 0.03 0.03 0.00
0.66 0.61 0.53 0.58 0.70 0.78 0.67 0.62 0.80 0.86 0.71 0.63 0.67 0.50 0.19 0.07 0.01 0.01 0.02 0.02 0.04 0.16 0.20 0.20 0.17 0.23 0.23 0.38 0.39 0.18 0.04 0.00 0.00 0.01 0.03 0.07 0.11 0.16 0.16 0.15 0.01 0.00 0.00 0.01 0.08 0.07 0.00
1.18 0.97 0.97 0.95 1.07 1.04 0.86 0.74 0.88 0.69 0.58 0.50 0.43 0.41 0.24 0.06 0.01 0.01 0.00 0.01 0.06 0.12 0.22 0.25 0.36 0.36 0.44 0.44 0.34 0.15 0.03 0.01 0.00 0.00 0.00 0.03 0.06 0.09 0.09 0.12 0.01 0.00 0.00 0.03 0.02 0.00 0.01
1.15 1.19 1.37 1.45 1.41 1.42 1.14 0.83 0.93 0.69 0.48 0.42 0.32 0.31 0.22 0.08 0.02 0.00 0.00 0.00 0.03 0.09 0.22 0.24 0.37 0.30 0.32 0.43 0.21 0.12 0.04 0.01 0.00 0.01 0.00 0.00 0.00 0.01 0.00 0.00 0.00 0.00 0.00 0.00 0.00 0.00 0.00

GFSGBSN_prec_precacc_150.txt.gz
Total_Precipitation_Accumulation
0.35 0.36 0.36 0.45 0.49 0.50 0.60 0.72 0.70 0.66 0.83 1.32 1.72 2.14 1.61 0.95 0.91 1.28 1.41 1.36 1.43 1.27 1.21 1.61 1.87 2.83 2.93 3.09 2.14 0.87 0.61 0.80 0.91 1.39 0.61 0.46 0.52 0.42 0.36 0.15 0.65 0.80 0.55 0.46 0.62 0.53 0.29
0.36 0.37 0.36 0.46 0.52 0.55 0.67 0.72 0.71 0.75 1.20 2.17 2.04 1.57 0.94 0.64 0.74 0.94 1.28 1.27 1.09 1.01 0.90 1.06 1.70 2.37 1.94 2.50 1.59 0.78 0.64 0.70 0.82 1.22 0.71 0.48 0.65 0.47 0.41 0.25 0.46 0.65 0.67 0.65 1.06 0.71 0.55
0.32 0.36 0.41 0.47 0.51 0.59 0.66 0.69 0.78 1.20 1.88 1.85 1.55 1.09 0.53 0.56 0.74 0.59 0.57 0.76 0.80 0.78 0.74 0.85 1.58 1.67 1.65 2.10 1.04 1.04 0.86 0.88 0.78 0.92 0.84 0.62 0.63 0.80 0.72 0.35 0.28 0.64 0.97 1.18 1.34 1.21 0.74
0.32 0.40 0.43 0.48 0.53 0.58 0.61 0.74 1.29 1.45 1.37 1.31 1.21 0.77 0.49 0.66 0.53 0.48 0.42 0.46 0.47 0.60 0.72 0.99 1.60 1.42 1.92 1.29 0.76 0.88 0.63 0.62 0.78 1.09 1.09 0.95 0.53 0.56 0.90 0.55 0.52 0.67 1.41 1.25 1.53 1.64 1.03
0.39 0.41 0.42 0.43 0.49 0.61 0.79 1.19 1.27 1.00 1.04 1.03 0.86 0.59 0.56 0.49 0.53 0.54 0.47 0.76 0.91 1.00 1.26 1.38 1.36 1.08 1.96 1.48 0.95 0.74 0.39 0.59 1.01 1.41 1.78 1.49 0.90 0.77 0.90 0.93 0.63 0.65 0.97 0.85 0.99 1.30 1.40
0.38 0.34 0.31 0.42 0.60 0.77 1.08 1.10 1.01 0.86 0.78 0.76 0.67 0.55 0.49 0.46 0.55 0.79 0.96 1.00 1.17 1.04 1.49 1.66 1.30 1.35 1.20 1.40 0.93 0.70 0.22 0.68 1.37 1.89 2.59 2.60 1.46 1.01 0.90 0.75 0.46 0.40 0.55 0.55 0.66 0.92 1.32
0.30 0.31 0.37 0.50 0.75 1.09 1.08 1.00 0.89 0.68 0.72 0.72 0.64 0.56 0.57 0.70 0.83 1.20 1.08 1.51 1.98 1.77 1.56 1.51 1.14 0.70 0.70 0.87 1.13 0.62 0.31 1.13 1.88 2.67 2.51 2.10 1.21 0.74 0.70 0.38 0.18 0.08 0.13 0.45 0.50 0.66 0.95
0.30 0.31 0.45 0.68 1.06 1.21 0.95 0.86 0.70 0.73 0.76 0.71 0.60 0.61 0.71 0.86 1.02 1.39 1.29 1.31 1.65 1.60 1.14 0.73 0.65 0.32 0.18 0.37 0.85 0.64 0.72 1.84 2.36 2.61 1.74 1.23 0.60 0.24 0.62 0.53 0.28 0.12 0.20 0.36 0.77 0.54 0.69
0.31 0.37 0.66 0.91 1.27 0.99 0.91 0.70 0.70 0.78 0.78 0.71 0.69 0.73 0.81 0.80 0.96 1.26 0.96 1.04 1.06 1.22 0.99 0.85 1.07 0.54 0.40 0.58 0.61 0.99 1.26 2.34 2.04 1.87 1.12 0.73 0.44 0.28 0.59 0.67 0.28 0.08 0.09 0.22 0.43 0.47 0.48
0.35 0.47 0.70 1.09 0.99 0.91 0.76 0.74 0.91 0.99 0.91 0.94 0.79 0.81 0.85 1.06 1.54 0.94 0.65 0.53 1.15 1.33 1.13 1.53 1.63 1.16 0.63 0.80 1.04 1.04 1.28 1.86 2.02 1.92 1.26 0.97 0.47 0.33 0.54 0.45 0.26 0.14 0.05 0.20 0.22 0.82 0.70
0.47 0.63 0.94 1.09 0.78 0.74 0.68 0.85 0.99 1.02 0.95 0.84 0.90 0.88 1.02 1.42 1.51 0.84 0.59 0.53 1.54 1.58 1.72 1.95 1.68 0.88 0.80 0.88 0.72 0.91 1.27 1.48 1.29 1.39 1.23 1.09 0.60 0.41 0.57 0.37 0.31 0.15 0.06 0.18 0.16 0.90 1.11
0.63 0.81 1.13 0.89 0.82 0.71 0.71 0.80 0.87 0.87 0.89 1.00 1.13 1.17 1.48 1.19 1.00 0.74 0.75 1.02 1.69 1.72 1.90 1.59 1.32 1.14 0.90 0.49 0.30 0.67 1.20 1.11 0.95 1.18 1.19 0.67 0.53 0.84 0.76 0.40 0.18 0.09 0.15 0.19 0.25 0.63 1.30
0.79 0.98 0.94 0.77 0.60 0.63 0.86 0.94 0.92 0.94 1.06 1.13 1.21 1.50 1.57 1.23 0.87 0.90 1.33 1.56 1.57 1.35 1.13 0.92 0.92 0.41 0.22 0.27 0.29 0.75 1.06 0.98 1.21 2.00 1.94 1.48 1.16 1.01 0.69 0.54 0.27 0.14 0.48 1.04 0.89 1.16 0.74
0.85 0.88 0.80 0.68 0.65 0.87 1.00 1.02 1.06 1.15 1.15 1.07 1.56 1.45 1.33 0.95 0.81 1.30 1.87 1.50 1.20 1.11 0.74 0.46 0.14 0.11 0.14 0.13 0.26 0.49 0.87 0.87 0.67 0.78 1.02 1.41 1.17 0.81 0.53 0.38 0.45 0.32 0.48 1.01 0.72 0.60 0.50
0.81 0.78 0.76 0.68 0.86 0.95 1.01 1.04 0.99 1.07 1.23 1.56 1.89 1.80 1.64 1.22 1.06 1.37 1.74 1.27 1.49 0.85 0.49 0.19 0.15 0.20 0.17 0.15 0.20 0.43 0.80 0.54 0.16 0.15 0.41 0.58 0.46 0.35 0.36 0.14 0.38 0.50 0.51 0.38 0.83 0.54 0.64
0.72 0.78 0.74 0.69 0.78 0.98 1.03 1.08 1.16 1.51 1.78 1.97 2.28 2.58 1.75 1.02 1.18 1.64 1.47 1.16 0.78 0.25 0.05 0.04 0.17 0.11 0.06 0.05 0.15 0.23 0.37 0.13 0.08 0.03 0.08 0.12 0.34 0.25 0.29 0.32 0.33 0.40 0.28 0.66 1.28 0.91 0.60
0.64 0.75 0.68 0.75 0.88 1.07 1.25 1.44 1.77 2.16 2.32 2.81 2.19 2.91 2.01 1.18 1.77 1.97 1.33 1.01 0.41 0.07 0.03 0.06 0.05 0.05 0.02 0.02 0.03 0.04 0.04 0.03 0.00 0.00 0.02 0.09 0.16 0.23 0.46 0.40 0.26 0.37 0.58 0.49 0.69 0.61 0.57
0.70 0.73 0.76 0.88 1.03 1.18 1.49 1.54 1.63 2.09 2.52 3.24 3.02 2.48 2.30 1.82 2.25 1.44 0.73 0.65 0.34 0.12 0.05 0.10 0.10 0.04 0.01 0.01 0.01 0.01 0.01 0.02 0.00 0.00 0.01 0.01 0.18 0.27 0.20 0.08 0.08 0.16 0.24 0.29 0.67 0.58 0.38
0.61 0.66 0.77 0.90 1.08 1.16 1.30 1.22 1.21 1.77 2.40 2.74 2.59 2.41 2.79 1.54 0.97 0.60 0.60 0.29 0.22 0.16 0.10 0.13 0.09 0.04 0.01 0.01 0.01 0.01 0.00 0.00 0.00 0.00 0.00 0.05 0.30 0.41 0.37 0.35 0.35 0.32 0.26 0.38 0.42 0.81 0.70
0.70 0.74 0.89 0.99 1.18 1.28 1.30 1.10 1.05 1.54 1.95 2.61 2.20 2.60 3.24 2.26 0.55 0.23 0.31 0.26 0.21 0.09 0.07 0.12 0.14 0.08 0.04 0.02 0.00 0.00 0.00 0.00 0.00 0.00 0.02 0.20 0.40 0.59 0.60 0.53 0.71 0.51 0.28 0.50 0.96 1.20 0.39
0.65 0.81 0.97 1.12 1.18 1.34 1.41 1.47 1.69 1.98 2.11 2.49 1.72 1.19 0.90 1.03 0.46 0.18 0.24 0.22 0.14 0.14 0.11 0.15 0.13 0.09 0.06 0.04 0.01 0.00 0.00 0.01 0.01 0.02 0.13 0.45 0.81 0.91 0.42 0.32 0.62 0.60 0.30 0.42 0.97 0.54 0.45
0.69 0.74 0.90 0.95 1.00 1.04 1.11 1.19 1.57 2.32 2.55 2.08 1.35 0.69 0.31 0.19 0.16 0.14 0.15 0.14 0.10 0.13 0.16 0.15 0.09 0.04 0.05 0.05 0.02 0.01 0.00 0.00 0.01 0.02 0.12 0.33 0.74 0.74 0.46 0.33 0.34 0.33 0.13 0.24 0.54 0.38 0.25
0.69 0.74 0.85 0.94 0.95 1.00 1.03 1.09 1.37 2.12 2.76 2.15 1.32 0.77 0.36 0.31 0.17 0.15 0.08 0.03 0.02 0.11 0.09 0.05 0.06 0.09 0.06 0.04 0.03 0.02 0.01 0.02 0.01 0.02 0.11 0.34 0.50 0.79 0.67 0.40 0.38 0.32 0.08 0.17 0.38 0.32 0.16
0.96 1.12 1.37 1.57 1.63 1.70 1.94 1.84 1.59 1.82 2.36 2.04 1.21 0.77 0.33 0.19 0.08 0.04 0.01 0.01 0.01 0.07 0.10 0.06 0.03 0.08 0.05 0.04 0.05 0.06 0.02 0.02 0.02 0.01 0.03 0.18 0.39 0.74 0.95 0.76 0.75 0.44 0.13 0.16 0.17 0.16 0.10
0.99 1.07 1.17 1.23 1.28 1.36 1.52 1.73 1.83 1.72 1.50 1.27 0.86 0.55 0.27 0.13 0.04 0.04 0.03 0.02 0.03 0.06 0.09 0.13 0.08 0.02 0.05 0.09 0.18 0.22 0.22 0.07 0.00 0.01 0.01 0.05 0.21 0.41 0.44 0.35 0.17 0.11 0.13 0.11 0.08 0.10 0.03
0.74 0.76 0.71 0.71 0.78 0.86 0.83 0.82 1.04 1.15 1.12 0.91 0.78 0.66 0.21 0.08 0.04 0.02 0.03 0.02 0.08 0.16 0.14 0.11 0.11 0.09 0.13 0.25 0.40 0.27 0.13 0.05 0.02 0.01 0.00 0.01 0.06 0.25 0.19 0.19 0.08 0.03 0.02 0.02 0.03 0.03 0.00
0.66 0.61 0.53 0.58 0.70 0.78 0.67 0.62 0.80 0.86 0.71 0.63 0.67 0.50 0.19 0.07 0.01 0.01 0.02 0.02 0.04 0.16 0.20 0.20 0.17 0.23 0.23 0.38 0.39 0.18 0.04 0.00 0.00 0.01 0.03 0.07 0.11 0.16 0.16 0.15 0.01 0.00 0.00 0.01 0.08 0.07 0.00
1.18 0.97 0.97 0.95 1.07 1.04 0.86 0.74 0.88 0.69 0.58 0.50 0.43 0.41 0.24 0.06 0.01 0.01 0.00 0.01 0.06 0.12 0.22 0.25 0.36 0.36 0.44 0.44 0.34 0.15 0.03 0.01 0.00 0.00 0.00 0.03 0.06 0.09 0.09 0.12 0.01 0.00 0.00 0.03 0.02 0.00 0.01
1.17 1.20 1.37 1.45 1.41 1.42 1.14 0.83 0.93 0.69 0.48 0.42 0.32 0.31 0.22 0.08 0.02 0.00 0.00 0.00 0.03 0.09 0.22 0.24 0.37 0.30 0.32 0.43 0.21 0.12 0.04 0.01 0.00 0.01 0.00 0.00 0.00 0.01 0.00 0.00 0.00 0.00 0.00 0.00 0.00 0.00 0.00

GFSGBSN_prec_precacc_153.txt.gz
Total_Precipitation_Accumulation
0.36 0.36 0.36 0.45 0.49 0.50 0.60 0.72 0.70 0.66 0.83 1.32 1.72 2.14 1.61 0.95 0.91 1.28 1.42 1.36 1.45 1.31 1.30 1.66 1.91 2.84 2.93 3.09 2.14 0.87 0.61 0.81 0.92 1.44 0.67 0.49 0.53 0.42 0.36 0.15 0.65 0.80 0.55 0.46 0.62 0.53 0.29
0.36 0.37 0.36 0.46 0.52 0.55 0.67 0.72 0.71 0.75 1.20 2.17 2.04 1.57 0.94 0.64 0.74 0.94 1.28 1.28 1.09 1.01 0.92 1.09 1.70 2.37 1.94 2.50 1.59 0.78 0.64 0.70 0.82 1.25 0.76 0.50 0.65 0.47 0.41 0.25 0.46 0.65 0.67 0.65 1.06 0.71 0.55
0.32 0.36 0.42 0.47 0.51 0.59 0.66 0.69 0.78 1.20 1.88 1.85 1.55 1.09 0.53 0.56 0.74 0.59 0.57 0.76 0.80 0.78 0.74 0.85 1.58 1.67 1.65 2.10 1.04 1.04 0.86 0.88 0.79 0.95 0.89 0.63 0.63 0.80 0.72 0.35 0.28 0.64 0.97 1.18 1.34 1.21 0.74
0.33 0.40 0.43 0.48 0.53 0.58 0.61 0.74 1.29 1.45 1.37 1.31 1.21 0.77 0.49 0.66 0.53 0.48 0.42 0.46 0.47 0.60 0.72 0.99 1.60 1.42 1.92 1.29 0.76 0.89 0.63 0.62 0.81 1.11 1.11 0.96 0.53 0.56 0.90 0.55 0.52 0.67 1.41 1.25 1.53 1.64 1.03
0.40 0.42 0.43 0.43 0.50 0.62 0.80 1.20 1.27 1.00 1.04 1.03 0.86 0.59 0.56 0.49 0.53 0.54 0.47 0.76 0.91 1.00 1.26 1.38 1.36 1.09 1.98 1.51 0.97 0.75 0.39 0.59 1.03 1.42 1.79 1.49 0.90 0.77 0.90 0.93 0.63 0.65 0.97 0.85 0.99 1.30 1.40
0.39 0.35 0.32 0.42 0.60 0.78 1.08 1.11 1.02 0.86 0.78 0.76 0.67 0.55 0.49 0.46 0.55 0.79 0.96 1.00 1.17 1.04 1.49 1.66 1.30 1.37 1.24 1.43 0.93 0.70 0.22 0.68 1.38 1.91 2.60 2.60 1.46 1.01 0.90 0.75 0.46 0.40 0.55 0.55 0.66 0.92 1.32
0.30 0.31 0.37 0.50 0.75 1.09 1.08 1.00 0.90 0.68 0.72 0.72 0.64 0.56 0.57 0.70 0.83 1.20 1.08 1.51 1.98 1.77 1.56 1.51 1.14 0.70 0.70 0.87 1.13 0.62 0.31 1.14 1.90 2.67 2.51 2.10 1.21 0.74 0.70 0.38 0.18 0.08 0.13 0.45 0.50 0.66 0.95
0.30 0.31 0.45 0.68 1.06 1.21 0.95 0.87 0.71 0.74 0.76 0.71 0.60 0.61 0.71 0.86 1.02 1.39 1.29 1.31 1.65 1.60 1.14 0.73 0.65 0.32 0.18 0.37 0.85 0.65 0.72 1.84 2.36 2.61 1.74 1.23 0.60 0.24 0.62 0.53 0.28 0.12 0.20 0.36 0.77 0.54 0.69
0.31 0.37 0.66 0.91 1.27 0.99 0.91 0.70 0.70 0.78 0.78 0.71 0.69 0.73 0.81 0.80 0.96 1.26 0.96 1.04 1.06 1.22 0.99 0.85 1.07 0.54 0.40 0.58 0.61 0.99 1.26 2.34 2.04 1.87 1.12 0.73 0.44 0.28 0.59 0.67 0.28 0.08 0.09 0.22 0.43 0.47 0.48
0.35 0.47 0.70 1.09 0.99 0.91 0.76 0.74 0.91 0.99 0.91 0.94 0.79 0.81 0.85 1.06 1.54 0.94 0.65 0.53 1.15 1.33 1.13 1.53 1.63 1.16 0.63 0.80 1.04 1.04 1.28 1.86 2.02 1.92 1.26 0.97 0.47 0.33 0.54 0.45 0.26 0.14 0.05 0.20 0.22 0.82 0.70
0.48 0.63 0.94 1.09 0.78 0.74 0.68 0.85 0.99 1.02 0.95 0.84 0.90 0.88 1.02 1.42 1.51 0.84 0.59 0.53 1.54 1.58 1.72 1.95 1.68 0.88 0.80 0.88 0.72 0.91 1.27 1.48 1.29 1.39 1.23 1.09 0.60 0.41 0.57 0.37 0.31 0.15 0.06 0.18 0.16 0.90 1.11
0.63 0.81 1.13 0.89 0.82 0.71 0.71 0.80 0.87 0.87 0.89 1.00 1.13 1.17 1.48 1.19 1.00 0.74 0.75 1.02 1.69 1.72 1.90 1.59 1.32 1.14 0.90 0.49 0.30 0.67 1.20 1.11 0.95 1.18 1.19 0.67 0.53 0.84 0.76 0.40 0.18 0.09 0.15 0.19 0.25 0.63 1.30
0.79 0.98 0.94 0.77 0.60 0.63 0.86 0.94 0.92 0.94 1.06 1.13 1.21 1.50 1.57 1.23 0.87 0.90 1.33 1.56 1.57 1.35 1.13 0.92 0.92 0.41 0.22 0.27 0.29 0.75 1.06 0.98 1.21 2.00 1.94 1.48 1.16 1.01 0.69 0.54 0.27 0.14 0.48 1.04 0.89 1.16 0.74
0.85 0.88 0.80 0.68 0.65 0.87 1.00 1.02 1.06 1.15 1.15 1.07 1.56 1.45 1.33 0.95 0.81 1.30 1.87 1.50 1.20 1.11 0.74 0.46 0.14 0.11 0.14 0.13 0.26 0.49 0.87 0.87 0.67 0.78 1.02 1.41 1.17 0.81 0.53 0.38 0.45 0.32 0.48 1.01 0.72 0.60 0.50
0.81 0.78 0.76 0.68 0.86 0.95 1.01 1.04 0.99 1.07 1.23 1.56 1.89 1.80 1.64 1.22 1.06 1.37 1.74 1.27 1.49 0.85 0.49 0.19 0.15 0.20 0.17 0.15 0.20 0.43 0.80 0.54 0.16 0.15 0.41 0.58 0.46 0.35 0.36 0.14 0.38 0.50 0.51 0.38 0.83 0.54 0.64
0.72 0.78 0.74 0.69 0.78 0.98 1.03 1.08 1.16 1.51 1.78 1.97 2.28 2.58 1.75 1.02 1.18 1.64 1.47 1.16 0.78 0.25 0.05 0.04 0.17 0.11 0.06 0.05 0.15 0.23 0.37 0.13 0.08 0.03 0.08 0.12 0.34 0.25 0.29 0.32 0.33 0.40 0.28 0.66 1.28 0.91 0.60
0.64 0.75 0.68 0.75 0.88 1.07 1.25 1.44 1.77 2.16 2.32 2.81 2.19 2.91 2.01 1.18 1.77 1.97 1.33 1.01 0.41 0.07 0.03 0.06 0.05 0.05 0.02 0.02 0.03 0.04 0.04 0.03 0.00 0.00 0.02 0.09 0.16 0.23 0.46 0.40 0.26 0.37 0.58 0.49 0.69 0.61 0.57
0.70 0.73 0.76 0.88 1.03 1.18 1.49 1.54 1.63 2.09 2.52 3.24 3.02 2.48 2.30 1.82 2.25 1.44 0.73 0.65 0.34 0.12 0.05 0.10 0.10 0.04 0.01 0.01 0.01 0.01 0.01 0.02 0.00 0.00 0.01 0.01 0.18 0.27 0.20 0.08 0.08 0.16 0.24 0.29 0.67 0.58 0.38
0.61 0.66 0.77 0.90 1.08 1.16 1.30 1.22 1.21 1.77 2.40 2.74 2.59 2.41 2.79 1.54 0.97 0.60 0.60 0.29 0.22 0.16 0.10 0.13 0.09 0.04 0.01 0.01 0.01 0.01 0.00 0.00 0.00 0.00 0.00 0.05 0.30 0.41 0.37 0.35 0.35 0.32 0.26 0.38 0.42 0.81 0.70
0.70 0.74 0.89 0.99 1.18 1.28 1.30 1.10 1.05 1.54 1.95 2.61 2.20 2.60 3.24 2.26 0.55 0.23 0.31 0.26 0.21 0.09 0.07 0.12 0.14 0.08 0.04 0.02 0.00 0.00 0.00 0.00 0.00 0.00 0.02 0.20 0.40 0.59 0.60 0.53 0.71 0.51 0.28 0.50 0.96 1.20 0.39
0.65 0.81 0.97 1.12 1.18 1.34 1.41 1.47 1.69 1.98 2.11 2.49 1.72 1.19 0.90 1.03 0.46 0.18 0.24 0.22 0.14 0.14 0.11 0.15 0.13 0.09 0.06 0.04 0.01 0.00 0.00 0.01 0.01 0.02 0.13 0.45 0.81 0.91 0.42 0.32 0.62 0.60 0.30 0.42 0.97 0.54 0.45
0.69 0.74 0.90 0.95 1.00 1.04 1.11 1.19 1.57 2.32 2.55 2.08 1.35 0.69 0.31 0.19 0.16 0.14 0.15 0.14 0.10 0.13 0.16 0.15 0.09 0.04 0.05 0.05 0.02 0.01 0.00 0.00 0.01 0.02 0.12 0.33 0.74 0.74 0.46 0.33 0.34 0.33 0.13 0.24 0.54 0.38 0.25
0.69 0.74 0.85 0.94 0.95 1.00 1.03 1.09 1.37 2.12 2.76 2.15 1.32 0.77 0.36 0.31 0.17 0.15 0.08 0.03 0.02 0.11 0.09 0.05 0.06 0.09 0.06 0.04 0.03 0.02 0.01 0.02 0.01 0.02 0.11 0.34 0.50 0.79 0.67 0.40 0.38 0.32 0.08 0.17 0.38 0.32 0.16
0.96 1.12 1.37 1.57 1.63 1.70 1.94 1.84 1.59 1.82 2.36 2.04 1.21 0.77 0.33 0.19 0.08 0.04 0.01 0.01 0.01 0.07 0.10 0.06 0.03 0.08 0.05 0.04 0.05 0.06 0.02 0.02 0.02 0.01 0.03 0.18 0.39 0.74 0.95 0.76 0.75 0.44 0.13 0.16 0.17 0.16 0.10
0.99 1.07 1.17 1.23 1.28 1.36 1.52 1.73 1.83 1.72 1.50 1.27 0.86 0.55 0.27 0.13 0.04 0.04 0.03 0.02 0.03 0.06 0.09 0.13 0.08 0.02 0.05 0.09 0.18 0.22 0.22 0.07 0.00 0.01 0.01 0.05 0.21 0.41 0.44 0.35 0.17 0.11 0.13 0.11 0.08 0.10 0.03
0.74 0.76 0.71 0.71 0.78 0.86 0.83 0.82 1.04 1.15 1.12 0.91 0.78 0.66 0.21 0.08 0.04 0.02 0.03 0.02 0.08 0.16 0.14 0.11 0.11 0.09 0.13 0.25 0.40 0.27 0.13 0.05 0.02 0.01 0.00 0.01 0.06 0.25 0.19 0.19 0.08 0.03 0.02 0.02 0.03 0.03 0.00
0.67 0.61 0.53 0.58 0.70 0.78 0.67 0.62 0.80 0.86 0.71 0.63 0.67 0.50 0.19 0.07 0.01 0.01 0.02 0.02 0.04 0.16 0.20 0.20 0.17 0.23 0.23 0.38 0.39 0.18 0.04 0.00 0.00 0.01 0.03 0.07 0.11 0.16 0.16 0.15 0.01 0.00 0.00 0.01 0.08 0.07 0.00
1.19 0.97 0.97 0.95 1.07 1.04 0.86 0.74 0.88 0.69 0.58 0.50 0.43 0.41 0.24 0.06 0.01 0.01 0.00 0.01 0.06 0.12 0.22 0.25 0.36 0.36 0.44 0.44 0.34 0.15 0.03 0.01 0.00 0.00 0.00 0.03 0.06 0.09 0.09 0.12 0.01 0.00 0.00 0.03 0.02 0.00 0.01
1.17 1.20 1.38 1.45 1.41 1.42 1.14 0.83 0.93 0.69 0.48 0.42 0.32 0.31 0.22 0.08 0.02 0.00 0.00 0.00 0.03 0.09 0.22 0.24 0.37 0.30 0.32 0.43 0.21 0.12 0.04 0.01 0.00 0.01 0.00 0.00 0.00 0.01 0.00 0.00 0.00 0.00 0.00 0.00 0.00 0.00 0.00

GFSGBSN_prec_precacc_156.txt.gz
Total_Precipitation_Accumulation
0.36 0.36 0.37 0.45 0.49 0.50 0.60 0.72 0.70 0.66 0.83 1.32 1.72 2.14 1.61 0.95 0.91 1.28 1.42 1.36 1.45 1.32 1.36 1.70 1.94 2.84 2.93 3.09 2.14 0.87 0.61 0.83 0.96 1.55 0.78 0.54 0.54 0.42 0.36 0.15 0.65 0.80 0.55 0.46 0.62 0.53 0.29
0.37 0.38 0.37 0.46 0.52 0.56 0.67 0.72 0.71 0.75 1.20 2.17 2.04 1.57 0.94 0.64 0.74 0.94 1.28 1.28 1.09 1.02 0.93 1.09 1.71 2.37 1.94 2.50 1.59 0.78 0.64 0.74 0.85 1.30 0.80 0.56 0.68 0.47 0.41 0.25 0.46 0.65 0.67 0.65 1.06 0.71 0.55
0.33 0.37 0.43 0.48 0.52 0.59 0.66 0.69 0.78 1.20 1.88 1.85 1.55 1.09 0.53 0.56 0.74 0.59 0.57 0.76 0.80 0.78 0.74 0.85 1.58 1.67 1.65 2.10 1.04 1.04 0.86 0.92 0.80 0.96 0.92 0.66 0.64 0.80 0.72 0.35 0.28 0.64 0.97 1.18 1.34 1.21 0.74
0.34 0.41 0.44 0.49 0.54 0.59 0.62 0.74 1.29 1.45 1.37 1.31 1.21 0.77 0.49 0.66 0.53 0.48 0.42 0.46 0.47 0.60 0.72 0.99 1.61 1.42 1.92 1.29 0.76 0.89 0.63 0.63 0.81 1.11 1.15 0.98 0.54 0.56 0.90 0.55 0.52 0.67 1.41 1.25 1.53 1.64 1.03
0.41 0.42 0.43 0.44 0.50 0.62 0.80 1.21 1.27 1.00 1.04 1.03 0.86 0.59 0.56 0.49 0.53 0.54 0.47 0.76 0.91 1.00 1.26 1.38 1.36 1.09 1.99 1.56 0.99 0.75 0.39 0.59 1.04 1.42 1.82 1.50 0.91 0.77 0.90 0.93 0.63 0.65 0.97 0.85 0.99 1.30 1.40
0.39 0.35 0.32 0.42 0.60 0.78 1.09 1.12 1.03 0.87 0.78 0.76 0.67 0.55 0.49 0.46 0.55 0.79 0.96 1.00 1.17 1.04 1.49 1.66 1.30 1.38 1.31 1.48 0.94 0.70 0.22 0.68 1.39 1.91 2.61 2.60 1.46 1.01 0.90 0.75 0.46 0.40 0.55 0.55 0.66 0.92 1.32
0.31 0.31 0.38 0.50 0.75 1.09 1.08 1.01 0.91 0.69 0.72 0.72 0.64 0.56 0.57 0.70 0.83 1.20 1.08 1.51 1.98 1.77 1.56 1.51 1.14 0.70 0.71 0.87 1.13 0.62 0.33 1.17 1.93 2.68 2.51 2.10 1.21 0.74 0.70 0.38 0.18 0.08 0.13 0.45 0.50 0.66 0.95
0.31 0.32 0.45 0.68 1.06 1.21 0.95 0.87 0.72 0.74 0.76 0.71 0.60 0.61 0.71 0.86 1.02 1.39 1.29 1.31 1.65 1.60 1.14 0.73 0.65 0.32 0.18 0.37 0.85 0.65 0.72 1.84 2.36 2.61 1.74 1.23 0.60 0.24 0.62 0.53 0.28 0.12 0.20 0.36 0.77 0.54 0.69
0.32 0.38 0.66 0.91 1.27 0.99 0.91 0.70 0.71 0.79 0.78 0.71 0.69 0.73 0.81 0.80 0.96 1.26 0.96 1.04 1.06 1.22 0.99 0.85 1.07 0.54 0.40 0.58 0.61 1.00 1.26 2.34 2.04 1.87 1.12 0.73 0.44 0.28 0.59 0.67 0.28 0.08 0.09 0.22 0.43 0.47 0.48
0.36 0.48 0.71 1.09 0.99 0.91 0.76 0.74 0.92 0.99 0.91 0.94 0.79 0.81 0.85 1.06 1.54 0.94 0.65 0.53 1.15 1.33 1.13 1.53 1.63 1.16 0.63 0.80 1.04 1.04 1.28 1.86 2.02 1.92 1.26 0.97 0.47 0.33 0.54 0.45 0.26 0.14 0.05 0.20 0.22 0.82 0.70
0.48 0.63 0.94 1.09 0.78 0.74 0.68 0.85 1.00 1.02 0.95 0.84 0.90 0.88 1.02 1.42 1.51 0.84 0.59 0.53 1.54 1.58 1.72 1.95 1.68 0.88 0.80 0.88 0.72 0.91 1.27 1.48 1.29 1.39 1.23 1.09 0.60 0.41 0.57 0.37 0.31 0.15 0.06 0.18 0.16 0.90 1.11
0.64 0.81 1.13 0.89 0.82 0.71 0.71 0.80 0.87 0.87 0.89 1.00 1.13 1.17 1.48 1.19 1.00 0.74 0.75 1.02 1.69 1.72 1.90 1.59 1.32 1.14 0.90 0.49 0.30 0.67 1.20 1.11 0.95 1.18 1.19 0.67 0.53 0.84 0.76 0.40 0.18 0.09 0.15 0.19 0.25 0.63 1.30
0.79 0.98 0.94 0.77 0.60 0.63 0.86 0.94 0.92 0.94 1.06 1.13 1.21 1.50 1.57 1.23 0.87 0.90 1.33 1.56 1.57 1.35 1.13 0.92 0.92 0.41 0.22 0.27 0.29 0.75 1.06 0.98 1.21 2.00 1.94 1.48 1.16 1.01 0.69 0.54 0.27 0.14 0.48 1.04 0.89 1.16 0.74
0.85 0.88 0.80 0.68 0.65 0.87 1.00 1.02 1.06 1.15 1.15 1.07 1.56 1.45 1.33 0.95 0.81 1.30 1.87 1.50 1.20 1.11 0.74 0.46 0.14 0.11 0.14 0.13 0.26 0.49 0.87 0.87 0.67 0.78 1.02 1.41 1.17 0.81 0.53 0.38 0.45 0.32 0.48 1.01 0.72 0.60 0.50
0.81 0.78 0.76 0.68 0.86 0.95 1.01 1.04 0.99 1.07 1.23 1.56 1.89 1.80 1.64 1.22 1.06 1.37 1.74 1.27 1.49 0.85 0.49 0.19 0.15 0.20 0.17 0.15 0.20 0.43 0.80 0.54 0.16 0.15 0.41 0.58 0.46 0.35 0.36 0.14 0.38 0.50 0.51 0.38 0.83 0.54 0.64
0.72 0.78 0.74 0.69 0.78 0.98 1.03 1.08 1.16 1.51 1.78 1.97 2.28 2.58 1.75 1.02 1.18 1.64 1.47 1.16 0.78 0.25 0.05 0.04 0.17 0.11 0.06 0.05 0.15 0.23 0.37 0.13 0.08 0.03 0.08 0.12 0.34 0.25 0.29 0.32 0.33 0.40 0.28 0.66 1.28 0.91 0.60
0.64 0.75 0.68 0.75 0.88 1.07 1.25 1.44 1.77 2.16 2.32 2.81 2.19 2.91 2.01 1.18 1.77 1.97 1.33 1.01 0.41 0.07 0.03 0.06 0.05 0.05 0.02 0.02 0.03 0.04 0.04 0.03 0.00 0.00 0.02 0.09 0.16 0.23 0.46 0.40 0.26 0.37 0.58 0.49 0.69 0.61 0.57
0.70 0.73 0.76 0.88 1.03 1.18 1.49 1.54 1.63 2.09 2.52 3.24 3.02 2.48 2.30 1.82 2.25 1.44 0.73 0.65 0.34 0.12 0.05 0.10 0.10 0.04 0.01 0.01 0.01 0.01 0.01 0.02 0.00 0.00 0.01 0.01 0.18 0.27 0.20 0.08 0.08 0.16 0.24 0.29 0.67 0.58 0.38
0.61 0.66 0.77 0.90 1.08 1.16 1.30 1.22 1.21 1.77 2.40 2.74 2.59 2.41 2.79 1.54 0.97 0.60 0.60 0.29 0.22 0.16 0.10 0.13 0.09 0.04 0.01 0.01 0.01 0.01 0.00 0.00 0.00 0.00 0.00 0.05 0.30 0.41 0.37 0.35 0.35 0.32 0.26 0.38 0.42 0.81 0.70
0.70 0.74 0.89 0.99 1.18 1.28 1.30 1.10 1.05 1.54 1.95 2.61 2.20 2.60 3.24 2.26 0.55 0.23 0.31 0.26 0.21 0.09 0.07 0.12 0.14 0.08 0.04 0.02 0.00 0.00 0.00 0.00 0.00 0.00 0.02 0.20 0.40 0.59 0.60 0.53 0.71 0.51 0.28 0.50 0.96 1.20 0.39
0.65 0.81 0.97 1.12 1.18 1.34 1.41 1.47 1.69 1.98 2.11 2.49 1.72 1.19 0.90 1.03 0.46 0.18 0.24 0.22 0.14 0.14 0.11 0.15 0.13 0.09 0.06 0.04 0.01 0.00 0.00 0.01 0.01 0.02 0.13 0.45 0.81 0.91 0.42 0.32 0.62 0.60 0.30 0.42 0.97 0.54 0.45
0.69 0.74 0.90 0.95 1.00 1.04 1.11 1.19 1.57 2.32 2.55 2.08 1.35 0.69 0.31 0.19 0.16 0.14 0.15 0.14 0.10 0.13 0.16 0.15 0.09 0.04 0.05 0.05 0.02 0.01 0.00 0.00 0.01 0.02 0.12 0.33 0.74 0.74 0.46 0.33 0.34 0.33 0.13 0.24 0.54 0.38 0.25
0.69 0.74 0.85 0.94 0.95 1.00 1.03 1.09 1.37 2.12 2.76 2.15 1.32 0.77 0.36 0.31 0.17 0.15 0.08 0.03 0.02 0.11 0.09 0.05 0.06 0.09 0.06 0.04 0.03 0.02 0.01 0.02 0.01 0.02 0.11 0.34 0.50 0.79 0.67 0.40 0.38 0.32 0.08 0.17 0.38 0.32 0.16
0.96 1.12 1.37 1.57 1.63 1.70 1.94 1.84 1.59 1.82 2.36 2.04 1.21 0.77 0.33 0.19 0.08 0.04 0.01 0.01 0.01 0.07 0.10 0.06 0.03 0.08 0.05 0.04 0.05 0.06 0.02 0.02 0.02 0.01 0.03 0.18 0.39 0.74 0.95 0.76 0.75 0.44 0.13 0.16 0.17 0.16 0.10
0.99 1.07 1.17 1.23 1.28 1.36 1.52 1.73 1.83 1.72 1.50 1.27 0.86 0.55 0.27 0.13 0.04 0.04 0.03 0.02 0.03 0.06 0.09 0.13 0.08 0.02 0.05 0.09 0.18 0.22 0.22 0.07 0.00 0.01 0.01 0.05 0.21 0.41 0.44 0.35 0.17 0.11 0.13 0.11 0.08 0.10 0.03
0.74 0.77 0.72 0.71 0.78 0.86 0.83 0.82 1.04 1.15 1.12 0.91 0.78 0.66 0.21 0.08 0.04 0.02 0.03 0.02 0.08 0.16 0.14 0.11 0.11 0.09 0.13 0.25 0.40 0.27 0.13 0.05 0.02 0.01 0.00 0.01 0.06 0.25 0.19 0.19 0.08 0.03 0.02 0.02 0.03 0.03 0.00
0.67 0.62 0.54 0.58 0.70 0.78 0.67 0.62 0.80 0.86 0.71 0.63 0.67 0.50 0.19 0.07 0.01 0.01 0.02 0.02 0.04 0.16 0.20 0.20 0.17 0.23 0.23 0.38 0.39 0.18 0.04 0.00 0.00 0.01 0.03 0.07 0.11 0.16 0.16 0.15 0.01 0.00 0.00 0.01 0.08 0.07 0.00
1.19 0.97 0.97 0.95 1.07 1.04 0.86 0.74 0.88 0.69 0.58 0.50 0.43 0.41 0.24 0.06 0.01 0.01 0.00 0.01 0.06 0.12 0.22 0.25 0.36 0.36 0.44 0.44 0.34 0.15 0.03 0.01 0.00 0.00 0.00 0.03 0.06 0.09 0.09 0.12 0.01 0.00 0.00 0.03 0.02 0.00 0.01
1.17 1.20 1.38 1.45 1.41 1.43 1.14 0.84 0.93 0.69 0.48 0.42 0.32 0.31 0.22 0.08 0.02 0.00 0.00 0.00 0.03 0.09 0.22 0.24 0.37 0.30 0.32 0.43 0.21 0.12 0.04 0.01 0.00 0.01 0.00 0.00 0.00 0.01 0.00 0.00 0.00 0.00 0.00 0.00 0.00 0.00 0.00

GFSGBSN_prec_precacc_159.txt.gz
Total_Precipitation_Accumulation
0.37 0.37 0.38 0.45 0.50 0.51 0.60 0.72 0.70 0.66 0.83 1.32 1.72 2.14 1.61 0.95 0.91 1.28 1.42 1.36 1.45 1.32 1.37 1.71 1.95 2.84 2.93 3.09 2.14 0.87 0.61 0.87 1.06 1.64 0.88 0.59 0.56 0.43 0.36 0.15 0.65 0.80 0.55 0.46 0.62 0.53 0.29
0.38 0.39 0.38 0.47 0.53 0.56 0.68 0.73 0.72 0.75 1.20 2.17 2.04 1.57 0.94 0.64 0.74 0.94 1.28 1.28 1.09 1.02 0.93 1.09 1.71 2.37 1.94 2.50 1.59 0.78 0.64 0.76 0.88 1.33 0.84 0.62 0.71 0.48 0.41 0.25 0.46 0.65 0.67 0.65 1.06 0.71 0.55
0.35 0.38 0.43 0.49 0.52 0.60 0.67 0.70 0.78 1.21 1.88 1.85 1.55 1.09 0.53 0.56 0.74 0.59 0.57 0.76 0.80 0.78 0.74 0.85 1.58 1.67 1.65 2.10 1.04 1.04 0.86 0.93 0.80 0.96 0.94 0.72 0.65 0.81 0.72 0.35 0.28 0.64 0.97 1.18 1.34 1.21 0.74
0.34 0.42 0.45 0.49 0.54 0.60 0.63 0.75 1.30 1.45 1.37 1.31 1.21 0.77 0.49 0.66 0.53 0.48 0.42 0.46 0.47 0.60 0.72 0.99 1.61 1.42 1.93 1.29 0.76 0.89 0.63 0.65 0.81 1.11 1.15 1.01 0.54 0.57 0.90 0.55 0.52 0.67 1.41 1.25 1.53 1.64 1.03
0.41 0.43 0.43 0.44 0.51 0.63 0.81 1.22 1.28 1.01 1.04 1.03 0.86 0.59 0.56 0.49 0.53 0.54 0.47 0.76 0.91 1.00 1.26 1.38 1.36 1.09 2.03 1.63 1.00 0.75 0.39 0.60 1.04 1.42 1.83 1.51 0.91 0.77 0.90 0.93 0.63 0.65 0.97 0.85 0.99 1.30 1.40
0.40 0.35 0.32 0.42 0.61 0.78 1.10 1.13 1.03 0.87 0.78 0.76 0.67 0.55 0.49 0.46 0.55 0.79 0.96 1.00 1.17 1.04 1.49 1.66 1.30 1.39 1.36 1.51 0.94 0.70 0.22 0.68 1.39 1.91 2.63 2.61 1.46 1.01 0.90 0.75 0.46 0.40 0.55 0.55 0.66 0.92 1.32
0.31 0.31 0.38 0.50 0.75 1.09 1.09 1.02 0.91 0.69 0.72 0.72 0.64 0.56 0.57 0.70 0.83 1.20 1.08 1.51 1.98 1.77 1.56 1.51 1.14 0.70 0.72 0.88 1.13 0.62 0.34 1.18 1.94 2.70 2.53 2.10 1.21 0.74 0.70 0.38 0.18 0.08 0.13 0.45 0.50 0.66 0.95
0.31 0.32 0.45 0.68 1.06 1.21 0.95 0.88 0.73 0.74 0.76 0.71 0.60 0.61 0.71 0.86 1.02 1.39 1.29 1.31 1.65 1.60 1.14 0.73 0.65 0.32 0.18 0.37 0.85 0.65 0.73 1.85 2.39 2.62 1.74 1.23 0.60 0.24 0.62 0.53 0.28 0.12 0.20 0.36 0.77 0.54 0.69
0.32 0.38 0.66 0.91 1.27 0.99 0.91 0.70 0.72 0.79 0.78 0.71 0.69 0.73 0.81 0.80 0.96 1.26 0.96 1.04 1.06 1.22 0.99 0.85 1.07 0.54 0.40 0.58 0.61 1.00 1.26 2.34 2.04 1.87 1.12 0.73 0.44 0.28 0.59 0.67 0.28 0.08 0.09 0.22 0.43 0.47 0.48
0.36 0.48 0.71 1.09 0.99 0.91 0.76 0.74 0.92 1.00 0.91 0.94 0.79 0.81 0.85 1.06 1.54 0.94 0.65 0.53 1.15 1.33 1.13 1.53 1.63 1.16 0.63 0.80 1.04 1.04 1.28 1.86 2.02 1.92 1.26 0.97 0.47 0.33 0.54 0.45 0.26 0.14 0.05 0.20 0.22 0.82 0.70
0.48 0.63 0.94 1.09 0.78 0.74 0.68 0.85 1.00 1.03 0.95 0.84 0.90 0.88 1.02 1.42 1.51 0.84 0.59 0.53 1.54 1.58 1.72 1.95 1.68 0.88 0.80 0.88 0.72 0.91 1.27 1.48 1.29 1.39 1.23 1.09 0.60 0.41 0.57 0.37 0.31 0.15 0.06 0.18 0.16 0.90 1.11
0.64 0.81 1.13 0.89 0.82 0.71 0.71 0.80 0.87 0.87 0.89 1.00 1.13 1.17 1.48 1.19 1.00 0.74 0.75 1.02 1.69 1.72 1.90 1.59 1.32 1.14 0.90 0.49 0.30 0.67 1.20 1.11 0.95 1.18 1.19 0.67 0.53 0.84 0.76 0.40 0.18 0.09 0.15 0.19 0.25 0.63 1.30
0.79 0.98 0.94 0.77 0.60 0.63 0.86 0.94 0.92 0.94 1.06 1.13 1.21 1.50 1.57 1.23 0.87 0.90 1.33 1.56 1.57 1.35 1.13 0.92 0.92 0.41 0.22 0.27 0.29 0.75 1.06 0.98 1.21 2.00 1.94 1.48 1.16 1.01 0.69 0.54 0.27 0.14 0.48 1.04 0.89 1.16 0.74
0.85 0.88 0.80 0.68 0.65 0.87 1.00 1.02 1.06 1.15 1.15 1.07 1.56 1.45 1.33 0.95 0.81 1.30 1.87 1.50 1.20 1.11 0.74 0.46 0.14 0.11 0.14 0.13 0.26 0.49 0.87 0.87 0.67 0.78 1.02 1.41 1.17 0.81 0.53 0.38 0.45 0.32 0.48 1.01 0.72 0.60 0.50
0.81 0.78 0.76 0.68 0.86 0.95 1.01 1.04 0.99 1.07 1.23 1.56 1.89 1.80 1.64 1.22 1.06 1.37 1.74 1.27 1.49 0.85 0.49 0.19 0.15 0.20 0.17 0.15 0.20 0.43 0.80 0.54 0.16 0.15 0.41 0.58 0.46 0.35 0.36 0.14 0.38 0.50 0.51 0.38 0.83 0.54 0.64
0.72 0.78 0.74 0.69 0.78 0.98 1.03 1.08 1.16 1.51 1.78 1.97 2.28 2.58 1.75 1.02 1.18 1.64 1.47 1.16 0.78 0.25 0.05 0.04 0.17 0.11 0.06 0.05 0.15 0.23 0.37 0.13 0.08 0.03 0.08 0.12 0.34 0.25 0.29 0.32 0.33 0.40 0.28 0.66 1.28 0.91 0.60
0.64 0.75 0.68 0.75 0.88 1.07 1.25 1.44 1.77 2.16 2.32 2.81 2.19 2.91 2.01 1.18 1.77 1.97 1.33 1.01 0.41 0.07 0.03 0.06 0.05 0.05 0.02 0.02 0.03 0.04 0.04 0.03 0.00 0.00 0.02 0.09 0.16 0.23 0.46 0.40 0.26 0.37 0.58 0.49 0.69 0.61 0.57
0.70 0.73 0.76 0.88 1.03 1.18 1.49 1.54 1.63 2.09 2.52 3.24 3.02 2.48 2.30 1.82 2.25 1.44 0.73 0.65 0.34 0.12 0.05 0.10 0.10 0.04 0.01 0.01 0.01 0.01 0.01 0.02 0.00 0.00 0.01 0.01 0.18 0.27 0.20 0.08 0.08 0.16 0.24 0.29 0.67 0.58 0.38
0.61 0.66 0.77 0.90 1.08 1.16 1.30 1.22 1.21 1.77 2.40 2.74 2.59 2.41 2.79 1.54 0.97 0.60 0.60 0.29 0.22 0.16 0.10 0.13 0.09 0.04 0.01 0.01 0.01 0.01 0.00 0.00 0.00 0.00 0.00 0.05 0.30 0.41 0.37 0.35 0.35 0.32 0.26 0.38 0.42 0.81 0.70
0.70 0.74 0.89 0.99 1.18 1.28 1.30 1.10 1.05 1.54 1.95 2.61 2.20 2.60 3.24 2.26 0.55 0.23 0.31 0.26 0.21 0.09 0.07 0.12 0.14 0.08 0.04 0.02 0.00 0.00 0.00 0.00 0.00 0.00 0.02 0.20 0.40 0.59 0.60 0.53 0.71 0.51 0.28 0.50 0.96 1.20 0.39
0.65 0.81 0.97 1.12 1.18 1.34 1.41 1.47 1.69 1.98 2.11 2.49 1.72 1.19 0.90 1.03 0.46 0.18 0.24 0.22 0.14 0.14 0.11 0.15 0.13 0.09 0.06 0.04 0.01 0.00 0.00 0.01 0.01 0.02 0.13 0.45 0.81 0.91 0.42 0.32 0.62 0.60 0.30 0.42 0.97 0.54 0.45
0.69 0.74 0.90 0.95 1.00 1.04 1.11 1.19 1.57 2.32 2.55 2.08 1.35 0.69 0.31 0.19 0.16 0.14 0.15 0.14 0.10 0.13 0.16 0.15 0.09 0.04 0.05 0.05 0.02 0.01 0.00 0.00 0.01 0.02 0.12 0.33 0.74 0.74 0.46 0.33 0.34 0.33 0.13 0.24 0.54 0.38 0.25
0.69 0.74 0.85 0.94 0.95 1.00 1.03 1.09 1.37 2.12 2.76 2.15 1.32 0.77 0.36 0.31 0.17 0.15 0.08 0.03 0.02 0.11 0.09 0.05 0.06 0.09 0.06 0.04 0.03 0.02 0.01 0.02 0.01 0.02 0.11 0.34 0.50 0.79 0.67 0.40 0.38 0.32 0.08 0.17 0.38 0.32 0.16
0.96 1.12 1.37 1.57 1.63 1.70 1.94 1.84 1.59 1.82 2.36 2.04 1.21 0.77 0.33 0.19 0.08 0.04 0.01 0.01 0.01 0.07 0.10 0.06 0.03 0.08 0.05 0.04 0.05 0.06 0.02 0.02 0.02 0.01 0.03 0.18 0.39 0.74 0.95 0.76 0.75 0.44 0.13 0.16 0.17 0.16 0.10
1.00 1.07 1.17 1.23 1.28 1.36 1.52 1.73 1.83 1.72 1.50 1.27 0.86 0.55 0.27 0.13 0.04 0.04 0.03 0.02 0.03 0.06 0.09 0.13 0.08 0.02 0.05 0.09 0.18 0.22 0.22 0.07 0.00 0.01 0.01 0.05 0.21 0.41 0.44 0.35 0.17 0.11 0.13 0.11 0.08 0.10 0.03
0.78 0.78 0.72 0.71 0.78 0.86 0.83 0.82 1.04 1.15 1.12 0.91 0.78 0.66 0.21 0.08 0.04 0.02 0.03 0.02 0.08 0.16 0.14 0.11 0.11 0.09 0.13 0.25 0.40 0.27 0.13 0.05 0.02 0.01 0.00 0.01 0.06 0.25 0.19 0.19 0.08 0.03 0.02 0.02 0.03 0.03 0.00
0.70 0.63 0.54 0.59 0.71 0.78 0.67 0.62 0.80 0.86 0.71 0.63 0.67 0.50 0.19 0.07 0.01 0.01 0.02 0.02 0.04 0.16 0.20 0.20 0.17 0.23 0.23 0.38 0.39 0.18 0.04 0.00 0.00 0.01 0.03 0.07 0.11 0.16 0.16 0.15 0.01 0.00 0.00 0.01 0.08 0.07 0.00
1.20 0.98 0.98 0.95 1.07 1.04 0.86 0.74 0.88 0.69 0.58 0.50 0.43 0.41 0.24 0.06 0.01 0.01 0.00 0.01 0.06 0.12 0.22 0.25 0.36 0.36 0.44 0.44 0.34 0.15 0.03 0.01 0.00 0.00 0.00 0.03 0.06 0.09 0.09 0.12 0.01 0.00 0.00 0.03 0.02 0.00 0.01
1.17 1.20 1.38 1.45 1.41 1.43 1.14 0.84 0.93 0.69 0.48 0.42 0.32 0.31 0.22 0.08 0.02 0.00 0.00 0.00 0.03 0.09 0.22 0.24 0.37 0.30 0.32 0.43 0.21 0.12 0.04 0.01 0.00 0.01 0.00 0.00 0.00 0.01 0.00 0.00 0.00 0.00 0.00 0.00 0.00 0.00 0.00

GFSGBSN_prec_precacc_162.txt.gz
Total_Precipitation_Accumulation
0.38 0.38 0.38 0.46 0.50 0.51 0.61 0.73 0.70 0.66 0.83 1.32 1.72 2.14 1.61 0.95 0.91 1.28 1.42 1.36 1.45 1.32 1.37 1.71 1.95 2.84 2.93 3.09 2.14 0.87 0.61 0.89 1.07 1.66 1.02 0.71 0.62 0.46 0.36 0.15 0.65 0.80 0.55 0.46 0.62 0.53 0.29
0.38 0.39 0.38 0.47 0.54 0.57 0.69 0.74 0.72 0.76 1.20 2.17 2.04 1.57 0.94 0.64 0.74 0.94 1.28 1.28 1.09 1.02 0.93 1.09 1.71 2.37 1.94 2.50 1.59 0.78 0.64 0.76 0.88 1.35 0.91 0.69 0.73 0.48 0.41 0.25 0.46 0.65 0.67 0.65 1.06 0.71 0.55
0.35 0.38 0.43 0.49 0.53 0.61 0.68 0.71 0.79 1.21 1.88 1.85 1.55 1.09 0.53 0.56 0.74 0.59 0.57 0.76 0.80 0.78 0.74 0.85 1.58 1.67 1.65 2.10 1.04 1.04 0.86 0.93 0.80 0.96 0.97 0.84 0.66 0.81 0.72 0.35 0.28 0.64 0.97 1.18 1.34 1.21 0.74
0.34 0.42 0.45 0.49 0.55 0.60 0.63 0.76 1.30 1.46 1.37 1.31 1.21 0.77 0.49 0.66 0.53 0.48 0.42 0.46 0.47 0.60 0.72 0.99 1.61 1.42 1.94 1.30 0.76 0.89 0.63 0.65 0.81 1.11 1.15 1.03 0.54 0.57 0.90 0.55 0.52 0.67 1.41 1.25 1.53 1.64 1.03
0.41 0.43 0.43 0.44 0.51 0.63 0.82 1.22 1.28 1.01 1.04 1.03 0.86 0.59 0.56 0.49 0.53 0.54 0.47 0.76 0.91 1.00 1.26 1.38 1.36 1.09 2.06 1.64 1.00 0.75 0.39 0.60 1.04 1.42 1.83 1.52 0.91 0.77 0.90 0.93 0.63 0.65 0.97 0.85 0.99 1.30 1.40
0.40 0.35 0.32 0.42 0.61 0.79 1.10 1.13 1.04 0.87 0.78 0.76 0.67 0.55 0.49 0.46 0.55 0.79 0.96 1.00 1.17 1.04 1.49 1.66 1.30 1.40 1.38 1.52 0.94 0.70 0.22 0.69 1.39 1.92 2.67 2.63 1.46 1.01 0.90 0.75 0.46 0.40 0.55 0.55 0.66 0.92 1.32
0.31 0.31 0.38 0.50 0.75 1.09 1.09 1.02 0.92 0.69 0.72 0.72 0.64 0.56 0.57 0.70 0.83 1.20 1.08 1.51 1.98 1.77 1.56 1.51 1.14 0.71 0.74 0.88 1.13 0.62 0.34 1.18 1.95 2.72 2.59 2.10 1.22 0.74 0.70 0.38 0.18 0.08 0.13 0.45 0.50 0.66 0.95
0.31 0.32 0.45 0.68 1.06 1.21 0.95 0.88 0.73 0.74 0.76 0.71 0.60 0.61 0.71 0.86 1.02 1.39 1.29 1.31 1.65 1.60 1.14 0.73 0.65 0.32 0.18 0.37 0.85 0.65 0.73 1.85 2.40 2.69 1.75 1.23 0.61 0.24 0.62 0.53 0.28 0.12 0.20 0.36 0.77 0.54 0.69
0.32 0.38 0.66 0.91 1.27 0.99 0.91 0.70 0.72 0.79 0.78 0.71 0.69 0.73 0.81 0.80 0.96 1.26 0.96 1.04 1.06 1.22 0.99 0.85 1.07 0.54 0.40 0.58 0.61 1.00 1.26 2.34 2.05 1.88 1.12 0.73 0.44 0.28 0.59 0.67 0.28 0.08 0.09 0.22 0.43 0.47 0.48
0.36 0.48 0.71 1.09 0.99 0.91 0.76 0.74 0.92 1.00 0.91 0.94 0.79 0.81 0.85 1.06 1.54 0.94 0.65 0.53 1.15 1.33 1.13 1.53 1.63 1.16 0.63 0.80 1.04 1.04 1.28 1.86 2.02 1.92 1.26 0.97 0.47 0.33 0.54 0.45 0.26 0.14 0.05 0.20 0.22 0.82 0.70
0.48 0.63 0.94 1.09 0.78 0.74 0.68 0.85 1.00 1.03 0.95 0.84 0.90 0.88 1.02 1.42 1.51 0.84 0.59 0.53 1.54 1.58 1.72 1.95 1.68 0.88 0.80 0.88 0.72 0.91 1.27 1.48 1.29 1.39 1.23 1.09 0.60 0.41 0.57 0.37 0.31 0.15 0.06 0.18 0.16 0.90 1.11
0.64 0.81 1.13 0.89 0.82 0.71 0.71 0.80 0.87 0.88 0.89 1.00 1.13 1.17 1.48 1.19 1.00 0.74 0.75 1.02 1.69 1.72 1.90 1.59 1.32 1.14 0.90 0.49 0.30 0.67 1.20 1.11 0.95 1.18 1.19 0.67 0.53 0.84 0.76 0.40 0.18 0.09 0.15 0.19 0.25 0.63 1.30
0.79 0.98 0.94 0.77 0.60 0.63 0.86 0.94 0.92 0.94 1.06 1.13 1.21 1.50 1.57 1.23 0.87 0.90 1.33 1.56 1.57 1.35 1.13 0.92 0.92 0.41 0.22 0.27 0.29 0.75 1.06 0.98 1.21 2.00 1.94 1.48 1.16 1.01 0.69 0.54 0.27 0.14 0.48 1.04 0.89 1.16 0.74
0.85 0.88 0.80 0.68 0.65 0.87 1.00 1.02 1.06 1.15 1.15 1.07 1.56 1.45 1.33 0.95 0.81 1.30 1.87 1.50 1.20 1.11 0.74 0.46 0.14 0.11 0.14 0.13 0.26 0.49 0.87 0.87 0.67 0.78 1.02 1.41 1.17 0.81 0.53 0.38 0.45 0.32 0.48 1.01 0.72 0.60 0.50
0.81 0.78 0.76 0.68 0.86 0.95 1.01 1.04 0.99 1.07 1.23 1.56 1.89 1.80 1.64 1.22 1.06 1.37 1.74 1.27 1.49 0.85 0.49 0.19 0.15 0.20 0.17 0.15 0.20 0.43 0.80 0.54 0.16 0.15 0.41 0.58 0.46 0.35 0.36 0.14 0.38 0.50 0.51 0.38 0.83 0.54 0.64
0.72 0.78 0.74 0.69 0.78 0.98 1.03 1.08 1.16 1.51 1.78 1.97 2.28 2.58 1.75 1.02 1.18 1.64 1.47 1.16 0.78 0.25 0.05 0.04 0.17 0.11 0.06 0.05 0.15 0.23 0.37 0.13 0.08 0.03 0.08 0.12 0.34 0.25 0.29 0.32 0.33 0.40 0.28 0.66 1.28 0.91 0.60
0.64 0.75 0.68 0.75 0.88 1.07 1.25 1.44 1.77 2.16 2.32 2.81 2.19 2.91 2.01 1.18 1.77 1.97 1.33 1.01 0.41 0.07 0.03 0.06 0.05 0.05 0.02 0.02 0.03 0.04 0.04 0.03 0.00 0.00 0.02 0.09 0.16 0.23 0.46 0.40 0.26 0.37 0.58 0.49 0.69 0.61 0.57
0.70 0.73 0.76 0.88 1.03 1.18 1.49 1.54 1.63 2.09 2.52 3.24 3.02 2.48 2.30 1.82 2.25 1.44 0.73 0.65 0.34 0.12 0.05 0.10 0.10 0.04 0.01 0.01 0.01 0.01 0.01 0.02 0.00 0.00 0.01 0.01 0.18 0.27 0.20 0.08 0.08 0.16 0.24 0.29 0.67 0.58 0.38
0.61 0.66 0.77 0.90 1.08 1.16 1.30 1.22 1.21 1.77 2.40 2.74 2.59 2.41 2.79 1.54 0.97 0.60 0.60 0.29 0.22 0.16 0.10 0.13 0.09 0.04 0.01 0.01 0.01 0.01 0.00 0.00 0.00 0.00 0.00 0.05 0.30 0.41 0.37 0.35 0.35 0.32 0.26 0.38 0.42 0.81 0.70
0.70 0.74 0.89 0.99 1.18 1.28 1.30 1.10 1.05 1.54 1.95 2.61 2.20 2.60 3.24 2.26 0.55 0.23 0.31 0.26 0.21 0.09 0.07 0.12 0.14 0.08 0.04 0.02 0.00 0.00 0.00 0.00 0.00 0.00 0.02 0.20 0.40 0.59 0.60 0.53 0.71 0.51 0.28 0.50 0.96 1.20 0.39
0.65 0.81 0.97 1.12 1.18 1.34 1.41 1.47 1.69 1.98 2.11 2.49 1.72 1.19 0.90 1.03 0.46 0.18 0.24 0.22 0.14 0.14 0.11 0.15 0.13 0.09 0.06 0.04 0.01 0.00 0.00 0.01 0.01 0.02 0.13 0.45 0.81 0.91 0.42 0.32 0.62 0.60 0.30 0.42 0.97 0.54 0.45
0.69 0.74 0.90 0.95 1.00 1.04 1.11 1.19 1.57 2.32 2.55 2.08 1.35 0.69 0.31 0.19 0.16 0.14 0.15 0.14 0.10 0.13 0.16 0.15 0.09 0.04 0.05 0.05 0.02 0.01 0.00 0.00 0.01 0.02 0.12 0.33 0.74 0.74 0.46 0.33 0.34 0.33 0.13 0.24 0.54 0.38 0.25
0.69 0.74 0.85 0.94 0.95 1.00 1.03 1.09 1.37 2.12 2.76 2.15 1.32 0.77 0.36 0.31 0.17 0.15 0.08 0.03 0.02 0.11 0.09 0.05 0.06 0.09 0.06 0.04 0.03 0.02 0.01 0.02 0.01 0.02 0.11 0.34 0.50 0.79 0.67 0.40 0.38 0.32 0.08 0.17 0.38 0.32 0.16
0.96 1.12 1.37 1.57 1.63 1.70 1.94 1.84 1.59 1.82 2.36 2.04 1.21 0.77 0.33 0.19 0.08 0.04 0.01 0.01 0.01 0.07 0.10 0.06 0.03 0.08 0.05 0.04 0.05 0.06 0.02 0.02 0.02 0.01 0.03 0.18 0.39 0.74 0.95 0.76 0.75 0.44 0.13 0.16 0.17 0.16 0.10
1.03 1.09 1.18 1.24 1.28 1.36 1.52 1.73 1.83 1.72 1.50 1.27 0.86 0.55 0.27 0.13 0.04 0.04 0.03 0.02 0.03 0.06 0.09 0.13 0.08 0.02 0.05 0.09 0.18 0.22 0.22 0.07 0.00 0.01 0.01 0.05 0.21 0.41 0.44 0.35 0.17 0.11 0.13 0.11 0.08 0.10 0.03
0.85 0.86 0.78 0.73 0.78 0.86 0.83 0.82 1.04 1.15 1.12 0.91 0.78 0.66 0.21 0.08 0.04 0.02 0.03 0.02 0.08 0.16 0.14 0.11 0.11 0.09 0.13 0.25 0.40 0.27 0.13 0.05 0.02 0.01 0.00 0.01 0.06 0.25 0.19 0.19 0.08 0.03 0.02 0.02 0.03 0.03 0.00
0.75 0.69 0.60 0.62 0.72 0.79 0.68 0.63 0.80 0.86 0.71 0.63 0.67 0.50 0.19 0.07 0.01 0.01 0.02 0.02 0.04 0.16 0.20 0.20 0.17 0.23 0.23 0.38 0.39 0.18 0.04 0.00 0.00 0.01 0.03 0.07 0.11 0.16 0.16 0.15 0.01 0.00 0.00 0.01 0.08 0.07 0.00
1.22 1.00 1.00 0.97 1.08 1.05 0.87 0.75 0.89 0.69 0.58 0.50 0.43 0.41 0.24 0.06 0.01 0.01 0.00 0.01 0.06 0.12 0.22 0.25 0.36 0.36 0.44 0.44 0.34 0.15 0.03 0.01 0.00 0.00 0.00 0.03 0.06 0.09 0.09 0.12 0.01 0.00 0.00 0.03 0.02 0.00 0.01
1.18 1.21 1.38 1.46 1.42 1.43 1.15 0.84 0.94 0.71 0.49 0.42 0.32 0.31 0.22 0.08 0.02 0.00 0.00 0.00 0.03 0.09 0.22 0.24 0.37 0.30 0.32 0.43 0.21 0.12 0.04 0.01 0.00 0.01 0.00 0.00 0.00 0.01 0.00 0.00 0.00 0.00 0.00 0.00 0.00 0.00 0.00